[[{"header":{"parameterUnit":"m.s-1","parameterCategory":1,"la1":30.6,"la2":28.766,"lo1":-90.7593,"lo2":-88.6598,"dx":0.0162,"dy":0.0183,"nx":116,"ny":114,"refTime":"2022-11-28T18:00:00:Z","depth":0,"parameterNumber":2,"parameterNumberName":"U-component_of_WINDS"},"data":[0.0,0.0,0.0,0.0,0.0,0.0,0.0,0.0,0.0,0.0,0.0,0.0,0.0,0.0,0.0,0.0,0.0,0.0,0.0,0.0,0.0,0.0,0.0,0.0,0.0,0.0,0.0,0.0,0.0,0.0,0.0,0.0,0.0,0.0,0.0,0.0,0.0,0.0,0.0,0.0,0.0,0.0,0.0,0.0,0.0,0.0,0.0,0.0,0.0,0.0,0.0,0.0,0.0,0.0,0.0,0.0,0.0,0.0,0.0,0.0,0.0,0.0,0.0,0.0,0.0,0.0,0.0,0.0,0.0,0.0,0.0,0.0,0.0,0.0,0.0,0.0,0.0,0.0,0.0,0.0,0.0,0.0,0.0,0.0,0.0,0.0,0.0,0.0,0.0,0.0,0.0,0.0,0.0,0.0,0.0,0.0,0.0,0.0,0.0,0.0,0.0,0.0,0.0,0.0,0.0,0.0,0.0,0.0,0.0,0.0,0.0,0.0,0.0,0.0,0.0,0.0,0.0,0.0,0.0,0.0,0.0,0.0,0.0,0.0,0.0,0.0,0.0,0.0,0.0,0.0,0.0,0.0,0.0,0.0,0.0,0.0,0.0,0.0,0.0,0.0,0.0,0.0,0.0,0.0,0.0,0.0,0.0,0.0,0.0,0.0,0.0,0.0,0.0,0.0,0.0,0.0,0.0,0.0,0.0,0.0,0.0,0.0,0.0,0.0,0.0,0.0,0.0,0.0,0.0,0.0,0.0,0.0,0.0,0.0,0.0,0.0,0.0,0.0,0.0,0.0,0.0,0.0,0.0,0.0,0.0,0.0,0.0,0.0,0.0,0.0,0.0,0.0,0.0,0.0,0.0,0.0,0.0,0.0,0.0,0.0,0.0,0.0,0.0,0.0,0.0,0.0,0.0,0.0,0.0,0.0,0.0,0.0,0.0,0.0,0.0,0.0,0.0,0.0,0.0,0.0,0.0,0.0,0.0,0.0,0.0,0.0,0.0,0.0,0.0,0.0,0.0,0.0,0.0,0.0,0.0,0.0,0.0,0.0,0.0,0.0,0.0,0.0,0.0,0.0,0.0,0.0,0.0,0.0,0.0,0.0,0.0,0.0,0.0,0.0,0.0,0.0,0.0,0.0,0.0,0.0,0.0,0.0,0.0,0.0,0.0,0.0,0.0,0.0,0.0,0.0,0.0,0.0,0.0,0.0,0.0,0.0,0.0,0.0,0.0,0.0,0.0,0.0,0.0,0.0,0.0,0.0,0.0,0.0,0.0,0.0,0.0,0.0,0.0,0.0,0.0,0.0,0.0,0.0,0.0,0.0,0.0,0.0,0.0,0.0,0.0,0.0,0.0,0.0,0.0,0.0,0.0,0.0,0.0,0.0,0.0,0.0,0.0,0.0,0.0,0.0,0.0,0.0,0.0,0.0,0.0,0.0,0.0,0.0,0.0,0.0,0.0,0.0,0.0,0.0,0.0,0.0,0.0,0.0,0.0,0.0,0.0,0.0,0.0,0.0,0.0,0.0,0.0,0.0,0.0,0.0,0.0,0.0,0.0,0.0,0.0,0.0,0.0,0.0,0.0,0.0,0.0,0.0,0.0,0.0,0.0,0.0,0.0,0.0,0.0,0.0,0.0,0.0,0.0,0.0,0.0,0.0,0.0,0.0,0.0,0.0,0.0,0.0,0.0,0.0,0.0,0.0,0.0,0.0,0.0,0.0,0.0,0.0,0.0,0.0,0.0,0.0,0.0,0.0,0.0,0.0,0.0,0.0,0.0,0.0,0.0,0.0,0.0,0.0,0.0,0.0,0.0,0.0,0.0,0.0,0.0,0.0,0.0,0.0,0.0,0.0,0.0,0.0,0.0,0.0,0.0,0.0,0.0,0.0,0.0,0.0,0.0,0.0,0.0,0.0,0.0,0.0,0.0,0.0,0.0,0.0,0.0,0.0,0.0,0.0,0.0,0.0,0.0,0.0,0.0,0.0,0.0,0.0,0.0,0.0,0.0,0.0,0.0,0.0,0.0,0.0,0.0,0.0,0.0,0.0,0.0,0.0,0.0,0.0,0.0,0.0,0.0,0.0,0.0,0.0,0.0,0.0,0.0,0.0,0.0,0.0,0.0,0.0,0.0,0.0,0.0,0.0,0.0,0.0,0.0,0.0,0.0,0.0,0.0,0.0,0.0,0.0,0.0,0.0,0.0,0.0,0.0,0.0,0.0,0.0,0.0,0.0,0.0,0.0,0.0,0.0,0.0,0.0,0.0,0.0,0.0,0.0,0.0,0.0,0.0,0.0,0.0,0.0,0.0,0.0,0.0,0.0,0.0,0.0,0.0,0.0,0.0,0.0,0.0,0.0,0.0,0.0,0.0,0.0,0.0,0.0,0.0,0.0,0.0,0.0,0.0,0.0,0.0,0.0,0.0,0.0,0.0,0.0,0.0,0.0,0.0,0.0,0.0,0.0,0.0,0.0,0.0,0.0,0.0,0.0,0.0,0.0,0.0,0.0,0.0,0.0,0.0,0.0,0.0,0.0,0.0,0.0,0.0,0.0,0.0,0.0,0.0,0.0,0.0,0.0,0.0,0.0,0.0,0.0,0.0,0.0,0.0,0.0,0.0,0.0,0.0,0.0,0.0,0.0,0.0,0.0,0.0,0.0,0.0,0.0,0.0,0.0,0.0,0.0,0.0,0.0,0.0,0.0,0.0,0.0,0.0,0.0,0.0,0.0,0.0,0.0,0.0,0.0,0.0,0.0,0.0,0.0,0.0,0.0,0.0,0.0,0.0,0.0,0.0,0.0,0.0,0.0,0.0,0.0,0.0,0.0,0.0,0.0,0.0,0.0,0.0,0.0,0.0,0.0,0.0,0.0,0.0,0.0,0.0,0.0,0.0,0.0,0.0,0.0,0.0,0.0,0.0,0.0,0.0,0.0,0.0,0.0,0.0,0.0,0.0,0.0,0.0,0.0,0.0,0.0,0.0,0.0,0.0,0.0,0.0,0.0,0.0,0.0,0.0,0.0,0.0,0.0,0.0,0.0,0.0,0.0,0.0,0.0,0.0,0.0,0.0,0.0,0.0,0.0,0.0,0.0,0.0,0.0,0.0,0.0,0.0,0.0,0.0,0.0,0.0,0.0,0.0,0.0,0.0,0.0,0.0,0.0,0.0,0.0,0.0,0.0,0.0,0.0,0.0,0.0,0.0,0.0,0.0,0.0,0.0,0.0,0.0,0.0,0.0,0.0,0.0,0.0,0.0,0.0,0.0,0.0,0.0,0.0,0.0,0.0,0.0,0.0,0.0,0.0,0.0,0.0,0.0,0.0,0.0,0.0,0.0,0.0,0.0,0.0,0.0,0.0,0.0,0.0,0.0,0.0,0.0,0.0,0.0,0.0,0.0,0.0,0.0,0.0,0.0,0.0,0.0,0.0,0.0,0.0,0.0,0.0,0.0,0.0,0.0,0.0,0.0,0.0,0.0,0.0,0.0,0.0,0.0,0.0,0.0,0.0,0.0,0.0,0.0,0.0,0.0,0.0,0.0,0.0,0.0,0.0,0.0,0.0,0.0,0.0,0.0,0.0,0.0,0.0,0.0,0.0,0.0,0.0,0.0,0.0,0.0,0.0,0.0,0.0,0.0,0.0,0.0,0.0,0.0,0.0,0.0,0.0,0.0,0.0,0.0,0.0,0.0,0.0,0.0,0.0,0.0,0.0,0.0,0.0,0.0,0.0,0.0,0.0,0.0,0.0,0.0,0.0,0.0,0.0,0.0,0.0,0.0,0.0,0.0,0.0,0.0,0.0,0.0,0.0,0.0,0.0,0.0,0.0,0.0,0.0,0.0,0.0,0.0,0.0,0.0,0.0,0.0,0.0,0.0,0.0,0.0,0.0,0.0,0.0,0.0,0.0,0.0,0.0,0.0,0.0,0.0,0.0,0.0,0.0,0.0,0.0,0.0,0.0,0.0,0.0,0.0,0.0,0.0,0.0,0.0,0.0,0.0,0.0,0.0,0.0,0.0,0.0,0.0,0.0,0.0,0.0,0.0,0.0,0.0,0.0,0.0,0.0,0.0,0.0,0.0,0.0,0.0,0.0,0.0,0.0,0.0,0.0,0.0,0.0,0.0,0.0,0.0,0.0,0.0,0.0,0.0,0.0,0.0,0.0,0.0,0.0,0.0,0.0,0.0,0.0,0.0,0.0,0.0,0.0,0.0,0.0,0.0,0.0,0.0,0.0,0.0,0.0,0.0,0.0,0.0,0.0,0.0,0.0,0.0,0.0,0.0,0.0,0.0,0.0,0.0,0.0,0.0,0.0,0.0,0.0,0.0,0.0,0.0,0.0,0.0,0.0,0.0,0.0,0.0,0.0,0.0,0.0,0.0,0.0,0.0,0.0,0.0,0.0,0.0,0.0,0.0,0.0,0.0,0.0,0.0,0.0,0.0,0.0,0.0,0.0,0.0,0.0,0.0,0.0,0.0,0.0,0.0,0.0,0.0,0.0,0.0,0.0,0.0,0.0,0.0,0.0,0.0,0.0,0.0,0.0,0.0,0.0,0.0,0.0,0.0,0.0,0.0,0.0,0.0,0.0,0.0,0.0,0.0,0.0,0.0,0.0,0.0,0.0,0.0,0.0,0.0,0.0,0.0,0.0,0.0,0.0,0.0,0.0,0.0,0.0,0.0,0.0,0.0,0.0,0.0,0.0,0.0,0.0,0.0,0.0,0.0,0.0,0.0,0.0,0.0,0.0,0.0,0.0,0.0,0.0,0.0,0.0,0.0,0.0,0.0,0.0,0.0,0.0,0.0,0.0,0.0,0.0,0.0,0.0,0.0,0.0,0.0,0.0,0.0,0.0,0.0,0.0,0.0,0.0,0.0,0.0,0.0,0.0,0.0,0.0,0.0,0.0,0.0,0.0,0.0,0.0,0.0,0.0,0.0,0.0,0.0,0.0,0.0,0.0,0.0,0.0,0.0,0.0,0.0,0.0,0.0,0.0,0.0,0.0,0.0,0.0,0.0,0.0,0.0,0.0,0.0,0.0,0.0,0.0,0.0,0.0,0.0,0.0,0.0,0.0,0.0,0.0,0.0,0.0,0.0,0.0,0.0,0.0,0.0,0.0,0.0,0.0,0.0,0.0,0.0,0.0,0.0,0.0,0.0,0.0,0.0,0.0,0.0,0.0,0.0,0.0,0.0,0.0,0.0,0.0,0.0,0.0,0.0,0.0,0.0,0.0,0.0,0.0,0.0,0.0,0.0,0.0,0.0,0.0,0.0,0.0,0.0,0.0,0.0,0.0,0.0,0.0,0.0,0.0,0.0,0.0,0.0,0.0,0.0,0.0,0.0,0.0,0.0,0.0,0.0,0.0,0.0,0.0,0.0,0.0,0.0,0.0,0.0,0.0,0.0,0.0,0.0,0.0,0.0,0.0,0.0,0.0,0.0,0.0,0.0,0.0,0.0,0.0,0.0,0.0,0.0,0.0,0.0,0.0,0.0,0.0,0.0,0.0,0.0,0.0,0.0,0.0,0.0,0.0,0.0,0.0,0.0,0.0,0.0,0.0,0.0,0.0,0.0,0.0,0.0,0.0,0.0,0.0,0.0,0.0,0.0,0.0,0.0,0.0,0.0,0.0,0.0,0.0,0.0,0.0,0.0,0.0,0.0,0.0,0.0,0.0,0.0,0.0,0.0,0.0,0.0,0.0,0.0,0.0,0.0,0.0,0.0,0.0,0.0,0.0,0.0,0.0,0.0,0.0,0.0,0.0,0.0,0.0,0.0,0.0,0.0,0.0,0.0,0.0,0.0,0.0,0.0,0.0,0.0,0.0,0.0,0.0,0.0,0.0,0.0,0.0,0.0,0.0,0.0,0.0,0.0,0.0,0.0,0.0,0.0,0.0,0.0,0.0,0.0,0.0,0.0,0.0,0.0,0.0,0.0,0.0,0.0,0.0,0.0,0.0,0.0,0.0,0.0,0.0,0.0,0.0,0.0,0.0,0.0,0.0,0.0,0.0,0.0,0.0,0.0,0.0,0.0,0.0,0.0,0.0,0.0,0.0,0.0,0.0,0.0,0.0,0.0,0.0,0.0,0.0,0.0,0.0,-2.19,-2.1251,0.0,0.0,0.0,0.0,0.0,0.0,0.0,0.0,0.0,0.0,0.0,0.0,0.0,0.0,0.0,0.0,0.0,0.0,0.0,0.0,0.0,0.0,0.0,-1.3403,-1.3511,-1.3836,-1.3869,0.0,0.0,0.0,0.0,0.0,0.0,0.0,0.0,0.0,-1.5213,-1.4868,-1.5727,-1.6202,-1.6318,-1.7474,-1.7343,-1.6201,0.0,0.0,0.0,0.0,0.0,0.0,0.0,0.0,0.0,0.0,0.0,0.0,0.0,0.0,0.0,0.0,0.0,0.0,0.0,0.0,0.0,0.0,0.0,0.0,0.0,0.0,0.0,0.0,0.0,0.0,0.0,0.0,0.0,0.0,0.0,0.0,0.0,0.0,0.0,0.0,0.0,0.0,0.0,0.0,0.0,0.0,0.0,0.0,0.0,0.0,0.0,0.0,0.0,0.0,0.0,0.0,0.0,0.0,0.0,0.0,0.0,0.0,0.0,0.0,0.0,0.0,0.0,0.0,0.0,0.0,-2.1412,-2.1166,0.0,0.0,0.0,0.0,0.0,0.0,0.0,0.0,0.0,0.0,0.0,0.0,0.0,0.0,0.0,0.0,0.0,0.0,0.0,0.0,0.0,-1.3392,-1.4023,-1.4078,-1.4297,-1.4826,-1.4874,-1.4863,-1.4825,-1.5295,0.0,0.0,0.0,0.0,-1.5954,-1.5938,-1.5714,-1.5252,-1.6003,-1.6833,-1.7749,-1.8511,-1.7607,-1.542,-1.6843,0.0,0.0,0.0,0.0,0.0,0.0,0.0,0.0,0.0,0.0,0.0,0.0,0.0,0.0,0.0,0.0,0.0,0.0,0.0,0.0,0.0,0.0,0.0,0.0,0.0,0.0,0.0,0.0,0.0,0.0,0.0,0.0,0.0,0.0,0.0,0.0,0.0,0.0,0.0,0.0,0.0,0.0,0.0,0.0,0.0,0.0,0.0,0.0,0.0,0.0,0.0,0.0,0.0,0.0,0.0,0.0,0.0,0.0,0.0,0.0,0.0,0.0,0.0,-2.1587,-2.1563,-2.1563,-2.1563,-2.1276,-2.0771,-2.1326,-2.1392,-2.1019,-2.0784,0.0,0.0,0.0,0.0,0.0,0.0,0.0,0.0,0.0,0.0,0.0,0.0,0.0,0.0,0.0,0.0,0.0,0.0,0.0,-1.4066,-1.4783,-1.4805,-1.4761,-1.4724,-1.4729,-1.4679,-1.456,-1.4632,0.0,0.0,0.0,-1.5331,-1.6473,-1.6489,-1.6815,-1.7471,-1.7374,-1.7394,-1.7556,-1.8642,-1.8446,-1.7208,-1.8154,-1.8205,-1.747,0.0,0.0,0.0,0.0,0.0,0.0,0.0,0.0,0.0,0.0,0.0,0.0,0.0,0.0,0.0,0.0,0.0,0.0,0.0,0.0,0.0,0.0,0.0,0.0,0.0,0.0,0.0,0.0,0.0,0.0,0.0,0.0,0.0,0.0,0.0,0.0,0.0,0.0,0.0,0.0,0.0,-2.1177,-2.0105,0.0,0.0,0.0,0.0,0.0,0.0,0.0,0.0,0.0,0.0,0.0,0.0,0.0,-2.1643,-2.2183,-2.1944,-2.211,-2.2618,-2.2379,-2.2285,-2.2285,-2.2273,-2.2206,-2.2126,-2.2233,0.0,-1.9694,-1.9978,0.0,0.0,0.0,0.0,0.0,0.0,0.0,0.0,0.0,0.0,0.0,0.0,0.0,0.0,0.0,0.0,0.0,0.0,0.0,0.0,0.0,-1.5413,-1.5503,-1.5752,-1.6152,-1.6364,-1.6297,-1.658,0.0,0.0,-1.6745,-1.7042,-1.7638,-1.7375,-1.7438,-1.789,-1.7785,-1.7835,-1.8072,-1.8564,-1.8422,-1.7735,-1.8119,-1.8056,-1.7642,-1.7258,0.0,0.0,0.0,0.0,0.0,0.0,0.0,0.0,0.0,0.0,0.0,0.0,0.0,0.0,0.0,0.0,0.0,0.0,0.0,0.0,0.0,0.0,0.0,0.0,0.0,0.0,0.0,0.0,0.0,0.0,0.0,0.0,0.0,0.0,0.0,0.0,0.0,0.0,0.0,-2.0567,-1.9901,-2.0077,-2.0438,-2.0799,0.0,0.0,0.0,0.0,0.0,0.0,0.0,0.0,0.0,-2.1954,-2.1967,-2.2086,-2.2339,-2.2234,-2.2326,-2.2563,-2.2468,-2.2387,-2.2386,-2.2076,-2.1953,-2.1953,-2.1678,-2.1069,-2.0278,-2.0767,-2.0889,-2.0769,0.0,0.0,0.0,0.0,-1.9187,-1.8805,0.0,0.0,0.0,0.0,0.0,0.0,0.0,0.0,0.0,0.0,0.0,0.0,-1.5987,-1.6189,-1.6419,-1.675,-1.7443,-1.7822,-1.778,-1.8174,-1.8408,-1.8408,-1.8408,-1.8501,-1.8641,-1.8283,-1.8027,-1.7926,-1.8004,-1.8148,-1.8324,-1.8442,-1.8279,-1.7868,-1.7942,-1.7836,-1.7621,-1.7648,-1.7379,-1.6922,0.0,0.0,0.0,0.0,0.0,0.0,0.0,0.0,0.0,0.0,0.0,0.0,0.0,0.0,0.0,0.0,0.0,0.0,0.0,0.0,0.0,0.0,0.0,0.0,0.0,0.0,0.0,0.0,0.0,0.0,0.0,0.0,0.0,0.0,0.0,0.0,0.0,-1.9439,-1.9369,-2.0224,-2.0466,-2.0734,0.0,0.0,0.0,0.0,0.0,0.0,-2.2021,-2.1982,-2.2075,-2.2334,-2.228,-2.2423,-2.2695,-2.2721,-2.2836,-2.3124,-2.3124,-2.3137,-2.3134,-2.2741,-2.2556,-2.2515,-2.218,-2.2035,-2.1985,-2.1439,-2.1163,-2.1066,-2.0245,-1.9907,-1.9837,-1.9518,-1.922,-1.9018,0.0,0.0,0.0,0.0,0.0,0.0,0.0,0.0,0.0,0.0,0.0,-1.6003,-1.6674,-1.7259,-1.7504,-1.729,-1.7881,-1.8192,-1.8004,-1.8066,-1.8113,-1.8113,-1.8176,-1.8483,-1.9062,-1.9117,-1.8745,-1.7987,-1.8322,-1.8257,-1.7828,-1.8285,-1.8246,-1.7821,-1.8069,-1.8062,-1.7866,-1.7476,-1.7371,-1.742,-1.6979,0.0,0.0,0.0,0.0,0.0,0.0,0.0,0.0,0.0,0.0,0.0,0.0,0.0,0.0,0.0,0.0,0.0,0.0,0.0,0.0,0.0,0.0,0.0,0.0,0.0,0.0,0.0,0.0,0.0,0.0,0.0,0.0,0.0,0.0,0.0,0.0,0.0,0.0,-1.9834,-2.0332,0.0,0.0,0.0,0.0,-2.1485,-2.2022,-2.2363,-2.2361,-2.2185,-2.2103,-2.2102,-2.2005,-2.2434,-2.3526,-2.3539,-2.4077,-2.5159,-2.5159,-2.5159,-2.5159,-2.5128,-2.5128,-2.5096,-2.5096,-2.5096,-2.4791,-2.132,-1.9895,-1.9807,-1.8988,-1.8698,-1.8668,-1.8679,-1.8637,-1.8648,0.0,0.0,0.0,-1.3137,-1.3471,-1.3804,-1.4002,-1.4776,-1.5488,-1.5867,-1.6191,-1.6577,-1.707,-1.7286,-1.7466,-1.7731,-1.8357,-1.8721,-1.8654,-1.9083,-1.9311,-1.9311,-1.936,-1.9193,-1.8779,-1.8796,-1.8491,-1.7868,-1.7988,-1.7948,-1.7787,-1.7968,-1.7808,-1.7413,-1.7509,-1.7509,-1.7468,-1.7618,-1.772,-1.7771,-1.7767,-1.744,0.0,0.0,0.0,0.0,0.0,0.0,0.0,0.0,0.0,0.0,0.0,0.0,0.0,0.0,0.0,0.0,0.0,0.0,0.0,0.0,0.0,0.0,0.0,0.0,0.0,0.0,0.0,0.0,0.0,0.0,0.0,0.0,0.0,0.0,0.0,0.0,0.0,-2.0819,-2.108,0.0,-2.1747,-2.1836,-2.1886,-2.1886,-2.2013,-2.2242,-2.2644,-2.292,-2.3222,-2.3581,-2.3923,-2.4295,-2.4705,-2.4705,-2.4897,-2.5294,-2.5294,-2.5294,-2.5294,-2.493,-2.4789,-2.4757,-2.4479,-2.4336,-2.4222,-2.2682,-2.2086,-2.2054,-2.1235,-2.071,-2.0477,-2.0477,-2.0311,-2.0198,0.0,0.0,0.0,-1.3442,-1.3816,-1.4245,-1.4687,-1.5478,-1.6064,-1.6127,-1.658,-1.7005,-1.7276,-1.7592,-1.7929,-1.8241,-1.8876,-1.9269,-1.9252,-1.9677,-1.9919,-1.9919,-1.9797,-1.9384,-1.8635,-1.8583,-1.8232,-1.7537,-1.7881,-1.7941,-1.7767,-1.7988,-1.7953,-1.7709,-1.7752,-1.7669,-1.752,-1.7849,-1.7853,-1.7686,-1.7922,-1.7769,-1.7465,0.0,0.0,0.0,0.0,0.0,0.0,0.0,0.0,0.0,0.0,0.0,0.0,0.0,0.0,0.0,0.0,0.0,0.0,0.0,0.0,0.0,0.0,0.0,0.0,0.0,0.0,0.0,0.0,0.0,0.0,0.0,0.0,0.0,0.0,-2.0355,-2.074,-2.1694,-2.1733,-2.1876,-2.2254,-2.2478,-2.2626,-2.2626,-2.2888,-2.3215,-2.3616,-2.3927,-2.4249,-2.4587,-2.4957,-2.5205,-2.5415,-2.5415,-2.5517,-2.5708,-2.5708,-2.5708,-2.5675,-2.5335,-2.5157,-2.5157,-2.4837,-2.4704,-2.467,-2.4198,-2.3845,-2.3547,-2.2742,-2.2207,-2.193,-2.1618,-2.1385,-2.1185,0.0,0.0,-1.3467,-1.4122,-1.4196,-1.464,-1.5982,-1.6074,-1.6176,-1.6754,-1.7131,-1.734,-1.7341,-1.8327,-1.8936,-1.8833,-1.9419,-1.9762,-1.9708,-1.9762,-1.9797,-1.978,-1.9406,-1.9006,-1.8593,-1.8519,-1.8016,-1.7028,-1.8001,-1.8227,-1.7737,-1.839,-1.8681,-1.8704,-1.8842,-1.861,-1.8127,-1.8127,-1.7787,-1.7272,-1.7427,-1.729,-1.7137,0.0,0.0,0.0,0.0,0.0,0.0,0.0,0.0,0.0,0.0,0.0,0.0,0.0,0.0,0.0,0.0,0.0,0.0,0.0,0.0,0.0,0.0,0.0,0.0,0.0,0.0,0.0,0.0,0.0,0.0,0.0,0.0,0.0,-2.0725,-2.1172,-2.1733,-2.2334,-2.2276,-2.2166,-2.2179,-2.3055,-2.365,-2.365,-2.4661,-2.5262,-2.5262,-2.5109,-2.5026,-2.5026,-2.4935,-2.5146,-2.5649,-2.5661,-2.595,-2.6549,-2.6549,-2.6549,-2.6549,-2.6549,-2.6549,-2.6549,-2.6549,-2.6549,-2.648,-2.5712,-2.4945,-2.4135,-2.3167,-2.2798,-2.2662,-2.1894,-2.1638,-2.1498,-1.5969,-1.5302,-1.4844,-1.4971,-1.5347,-1.5747,-1.6146,-1.6934,-1.7483,-1.745,-1.7868,-1.8253,-1.851,-1.8678,-1.8949,-1.9411,-1.9621,-1.9726,-1.9708,-1.9726,-1.9723,-1.9665,-1.9195,-1.8698,-1.8263,-1.831,-1.8086,-1.7513,-1.8177,-1.8425,-1.829,-1.8467,-1.8554,-1.8554,-1.8704,-1.8672,-1.853,-1.8643,-1.8584,-1.8362,-1.7589,-1.73,-1.7391,0.0,0.0,0.0,0.0,0.0,0.0,0.0,0.0,0.0,0.0,0.0,0.0,0.0,0.0,0.0,0.0,0.0,0.0,0.0,0.0,0.0,0.0,0.0,0.0,0.0,0.0,0.0,0.0,0.0,0.0,0.0,-2.0605,-2.1056,-2.125,-2.1667,-2.2158,-2.2769,-2.3026,-2.335,-2.3731,-2.4269,-2.4608,-2.4608,-2.4836,-2.4936,-2.4936,-2.5237,-2.5451,-2.5451,-2.621,-2.6678,-2.6816,-2.7218,-2.7494,-2.7657,-2.7657,-2.7657,-2.7657,-2.7657,-2.7657,-2.7657,-2.7657,-2.7657,-2.7645,-2.7429,-2.7199,-2.6749,-2.4022,-2.2586,-2.2035,-2.1824,-2.197,-2.2174,-1.6523,-1.5911,-1.5479,-1.5728,-1.5995,-1.631,-1.6605,-1.7429,-1.7928,-1.7727,-1.8388,-1.8919,-1.8992,-1.911,-1.9306,-1.9678,-1.9708,-1.9708,-1.9708,-1.9672,-1.9614,-1.952,-1.8879,-1.8501,-1.8472,-1.8203,-1.802,-1.7976,-1.8514,-1.877,-1.8711,-1.9012,-1.9126,-1.9138,-1.9283,-1.9227,-1.9078,-1.9149,-1.9076,-1.8845,-1.8179,-1.786,-1.7729,-1.7547,-1.77,-1.7907,-1.7481,-1.7437,-1.7576,-1.7278,0.0,0.0,0.0,0.0,0.0,0.0,0.0,0.0,0.0,0.0,0.0,0.0,0.0,0.0,0.0,0.0,0.0,0.0,0.0,0.0,0.0,0.0,0.0,0.0,-2.141,-2.1953,-2.2337,-2.2577,-2.2933,-2.3511,-2.3957,-2.4307,-2.4626,-2.5013,-2.5232,-2.5232,-2.5393,-2.5611,-2.5837,-2.6138,-2.6414,-2.664,-2.7281,-2.7632,-2.7632,-2.7946,-2.8109,-2.8109,-2.8109,-2.8109,-2.8109,-2.8109,-2.8109,-2.8109,-2.8,-2.7779,-2.7422,-2.7323,-2.6851,-2.6139,0.0,0.0,0.0,0.0,-2.2807,-2.2749,-1.6657,-1.6095,-1.5835,-1.6415,-1.6418,-1.6539,-1.7195,-1.773,-1.8001,-1.7824,-1.8827,-1.9442,-1.9127,-1.9521,-1.9762,-1.9708,-1.9708,-1.9708,-1.969,-1.9629,-1.952,-1.9395,-1.86,-1.8418,-1.8948,-1.8223,-1.8043,-1.8481,-1.9002,-1.9207,-1.9096,-1.9712,-1.999,-1.999,-2.0105,-1.9964,-1.965,-1.9662,-1.9448,-1.9071,-1.9005,-1.8627,-1.8057,-1.771,-1.7542,-1.7496,-1.7747,-1.7821,-1.7848,-1.8101,0.0,0.0,0.0,0.0,0.0,0.0,0.0,0.0,0.0,0.0,0.0,0.0,0.0,0.0,0.0,0.0,0.0,0.0,0.0,0.0,0.0,0.0,0.0,0.0,-2.2467,-2.3045,-2.3641,-2.3782,-2.3986,-2.442,-2.4811,-2.5057,-2.5057,-2.5501,-2.5787,-2.5787,-2.6348,-2.6901,-2.7344,-2.7369,0.0,0.0,0.0,-2.8197,-2.8197,-2.826,-2.8298,-2.8248,-2.8298,-2.8298,-2.8248,-2.8248,-2.8248,-2.8261,-2.8052,-2.7506,-2.6752,-2.6538,-2.5513,-2.4302,-2.656,-2.7013,-2.6159,-2.4692,-2.3737,-2.3216,-1.7406,-1.7266,-1.7198,-1.7278,-1.7216,-1.7194,-1.7289,-1.8287,-1.8909,-1.855,-1.9641,-2.0289,-1.9843,-1.9808,-1.9762,-1.9708,-1.9708,-1.9687,-1.9629,-1.952,-1.9395,-1.9321,-1.8859,-1.8629,-1.8765,-1.8755,-1.8781,-1.8894,-1.9422,-1.9673,-1.966,-1.9786,-1.9837,-1.9837,-1.9978,-2.0004,-1.994,-2.0029,-2.0128,-2.016,-1.9657,-1.8936,-1.8087,-1.8013,-1.7681,-1.7261,-1.7323,-1.7344,-1.7344,-1.7406,-1.7385,-1.7365,-1.7578,-1.7787,0.0,0.0,0.0,0.0,0.0,0.0,0.0,0.0,0.0,0.0,0.0,0.0,0.0,0.0,0.0,0.0,0.0,0.0,0.0,-2.2694,-2.2971,-2.3399,-2.4419,-2.4955,-2.5138,-2.4906,-2.5252,-2.5481,-2.5481,-2.6399,-2.6954,-2.6954,-2.7469,-2.7833,-2.7946,-2.7946,-2.7996,-2.8109,-2.8536,-2.8737,-2.8737,-2.9227,-2.9376,-2.9146,-2.9376,0.0,-2.9146,-2.9146,-2.9146,-2.9146,-2.894,-2.8733,-2.8578,-2.8526,-2.7913,-2.6772,-2.4454,-2.3494,-2.3304,-2.3143,-2.3238,-2.3432,-1.7624,-1.7601,-1.7582,-1.751,-1.7443,-1.7371,-1.7306,-1.8444,-1.9174,-1.8842,-2.002,-2.0727,-2.0254,-2.015,-2.003,-1.9851,-1.978,-1.9723,-1.9611,-1.9483,-1.9376,-1.9302,-1.891,-1.8838,-1.9092,-1.9023,-1.9133,-1.9384,-1.9673,-1.9798,-1.9798,-1.9798,-1.9798,-1.9798,-1.9862,-1.9926,-1.999,-2.0067,-2.0195,-2.0321,-2.0125,-1.9553,-1.8832,-1.8588,-1.814,-1.7643,-1.7643,-1.746,-1.7199,-1.7199,-1.7199,-1.722,-1.7323,-1.7455,-1.7618,0.0,0.0,0.0,0.0,0.0,0.0,0.0,0.0,0.0,0.0,0.0,0.0,0.0,0.0,-2.107,-2.1504,0.0,-2.2644,-2.3439,-2.3772,-2.4236,-2.5096,-2.5435,-2.5531,-2.5333,-2.5971,-2.644,-2.644,-2.7205,-2.7695,-2.7695,-2.7946,-2.8235,-2.8499,-2.8511,-2.8649,-2.8938,-2.9214,-2.9276,-2.9136,-2.9462,-2.9482,-2.9236,-2.9378,-2.9378,-2.9236,-2.9236,-2.9236,-2.9236,-2.904,-2.8712,-2.8263,-2.7678,-2.7191,-2.6644,-2.4854,-2.4023,-2.3763,-2.3418,-2.3444,-2.3659,-1.7841,-1.7701,-1.7582,-1.751,-1.7455,-1.7395,-1.7334,-1.847,-1.9216,-1.8941,-2.019,-2.0942,-2.051,-2.0427,-2.0291,-2.0008,-1.9884,-1.9759,-1.9629,-1.952,-1.9395,-1.9321,-1.9011,-1.9059,-1.9503,-1.9259,-1.9346,-1.9798,-1.9798,-1.9798,-1.9798,-1.9798,-1.9798,-1.9798,-1.9798,-1.9862,-1.9952,-1.9952,-2.0029,-2.0182,-2.0372,-2.0164,-1.9736,-1.9386,-1.8832,-1.8244,-1.814,-1.7787,-1.7356,-1.7238,-1.7199,-1.7199,-1.7199,-1.7178,-1.7183,-1.7342,-1.7369,0.0,0.0,0.0,0.0,0.0,0.0,0.0,0.0,-1.9545,-2.0309,-2.0294,-2.1104,-2.1948,-2.2372,-2.2895,-2.3496,-2.4205,-2.4682,-2.5159,-2.5686,-2.585,-2.5925,-2.5925,-2.6728,-2.7318,-2.7431,-2.7946,-2.826,-2.826,-2.836,-2.8624,-2.9038,-2.9051,-2.9264,-2.9728,-2.9702,-2.9611,-2.9341,-2.9341,-2.9236,-2.9052,-2.9091,-2.9091,-2.9052,-2.9052,-2.9052,-2.9013,-2.8843,-2.8343,-2.7597,-2.6689,-2.6205,-2.608,-2.608,-2.5735,-2.5179,-2.4498,-2.4133,-2.4003,-1.8603,-1.8047,-1.7582,-1.751,-1.7486,-1.7467,-1.7395,-1.8519,-1.9284,-1.9015,-2.0222,-2.099,-2.071,-2.051,-2.0291,-2.0008,-1.9884,-1.9762,-1.969,-1.9629,-1.952,-1.9395,-1.9344,-1.9419,-1.9591,-1.9624,-1.9681,-1.9798,-1.9798,-1.9798,-1.9798,-1.9798,-1.9798,-1.9798,-1.9798,-1.9811,-1.9837,-1.9837,-1.9901,-2.0042,-2.0182,-2.0308,-2.0421,-2.0467,-1.9797,-1.8754,-1.827,-1.8061,-1.7917,-1.7382,-1.7199,-1.7199,-1.7199,-1.7115,-1.7148,-1.7796,-1.7917,-1.7943,-1.8539,-1.8653,-1.858,-1.8448,-1.8772,-1.9218,0.0,-2.0164,-2.0769,-2.1232,-2.1823,-2.2385,-2.2907,-2.3484,-2.423,-2.5247,-2.5473,-2.5711,-2.6311,-2.6826,-2.7092,-2.7092,-2.7205,-2.7469,-2.7959,-2.8511,-2.88,-2.88,-2.9315,-2.9628,-2.9691,-2.9691,-2.9626,-2.9457,-2.9419,-2.9353,-2.9131,-2.9131,-2.904,-2.8843,-2.9013,-2.9013,-2.8843,-2.8843,-2.8843,-2.8843,-2.8618,-2.8459,-2.8379,-2.8259,-2.7765,-2.7051,-2.7051,-2.6505,-2.5735,-2.5893,-2.539,-2.4712,-1.8804,-1.8444,-1.8079,-1.7593,-1.7503,-1.7479,-1.7411,-1.8575,-1.9383,-1.9202,-2.0388,-2.1183,-2.0957,-2.0645,-2.0409,-2.0254,-2.0043,-1.9866,-1.9762,-1.965,-1.9574,-1.952,-1.9521,-1.9542,-1.9586,-1.9785,-1.9841,-1.9794,-1.9889,-1.9888,-1.9798,-1.9798,-1.9798,-1.9798,-1.9888,-1.9926,-1.9926,-1.9991,-2.008,-2.0131,-2.0296,-2.0423,-2.0511,-2.0662,-2.0398,-1.9876,-1.929,-1.8858,0.0,-1.827,-1.8192,-1.817,-1.8117,-1.8094,-1.8156,-1.838,-1.8413,-1.8484,-1.8958,-1.8969,-1.9014,-1.9598,-1.9901,-2.0203,-2.0679,-2.1217,-2.1681,-2.192,-2.2673,-2.3364,-2.359,-2.4343,-2.5071,-2.5523,-2.5875,-2.6336,-2.6901,-2.7165,-2.7519,-2.816,-2.8235,-2.8335,-2.8561,-2.9101,-2.9428,-2.9428,-2.9654,-2.9792,-2.9792,-2.965,-2.9509,-2.9419,-2.9275,-2.9118,-2.8922,-2.8922,-2.8803,-2.8618,-2.8697,-2.8697,-2.8618,-2.8618,-2.8618,-2.8618,-2.855,-2.851,-2.851,-2.851,-2.8299,-2.7978,-2.7978,-2.7418,-2.6505,-2.5547,-2.4956,-2.4584,-1.9484,-1.9177,-1.8809,-1.8215,-1.8095,-1.7926,-1.7497,-1.842,-1.9156,-1.9061,-2.0274,-2.116,-2.1135,-2.0844,-2.0628,-2.0512,-2.0272,-2.0078,-1.9975,-1.9777,-1.9665,-1.9665,-1.9613,-1.962,-1.9638,-1.9792,-1.9806,-1.9606,-1.988,-1.9889,-1.9687,-1.9838,-1.9888,-1.9862,-2.0144,-2.0182,-2.0016,-2.0296,-2.0346,-2.0207,-2.0423,-2.0486,-2.0511,-2.0662,-2.0699,-2.0633,-2.0009,-1.9525,-1.9133,-1.8963,-1.8911,-1.8888,-1.8796,-1.8796,-1.8881,-1.8921,-1.9145,-1.9447,-1.9787,-1.9826,-1.9925,-2.0717,-2.0918,-2.1069,-2.1594,-2.202,-2.2397,-2.2711,-2.3427,-2.4092,-2.4381,-2.5071,-2.5649,-2.5812,-2.6348,-2.6864,-2.7266,-2.7544,-2.8034,-2.88,-2.9026,-2.9126,-2.9126,-2.9553,-2.9753,-2.9702,-2.9702,-2.9663,-2.9624,-2.9404,-2.9302,-2.9223,-2.9079,-2.8922,-2.8724,-2.8724,-2.8657,-2.851,-2.851,-2.851,-2.851,-2.851,-2.851,-2.851,-2.851,-2.851,-2.851,-2.851,-2.851,-2.8471,-2.8219,-2.7765,-2.6969,-2.5168,-2.4498,-2.4413,-2.1046,-2.0344,-1.9746,-1.9651,-1.9571,-1.9085,-1.7718,-1.8029,-1.8427,-1.8427,-1.9651,-2.0714,-2.115,-2.1119,-2.099,-2.0811,-2.0545,-2.0393,-2.0393,-2.001,-1.978,-1.978,-1.968,-1.9629,-1.9695,-1.9626,-1.9461,-1.9122,-1.9707,-1.981,-1.9425,-1.9951,-2.0105,-2.0003,-2.0684,-2.061,-2.0042,-2.0709,-2.0684,-2.0207,-2.0423,-2.0486,-2.0511,-2.0662,-2.0699,-2.0633,-2.0009,-1.9799,-1.9682,-1.9107,-1.8911,-1.8911,-1.8911,-1.8855,-1.8905,-1.9415,-2.0257,-2.1102,-2.153,-2.1614,-2.1612,-2.1511,-2.1496,-2.1606,-2.2159,-2.2297,-2.2623,-2.3715,-2.3979,-2.4318,-2.5347,-2.5573,-2.5774,-2.6373,-2.6927,-2.7268,-2.7281,-2.821,-2.885,-2.8888,-2.9428,-2.9767,-2.9767,-2.9779,-2.9689,-2.9419,-2.9419,-2.9314,-2.9131,-2.9091,-2.9,-2.8831,-2.8791,-2.8724,-2.851,-2.851,-2.851,-2.851,-2.851,-2.851,-2.851,-2.851,-2.851,-2.851,-2.851,-2.851,-2.851,-2.851,-2.851,-2.8431,-2.7551,-2.7226,-2.6969,-2.5168,-2.4498,-2.4498,-2.1214,-2.083,-2.0398,-1.9801,-1.9638,-1.9449,-1.8969,-1.9075,-1.9184,-1.9131,-1.993,0.0,0.0,0.0,0.0,0.0,-2.0777,-2.0544,-2.041,-2.0237,-2.0078,-1.9937,-1.9795,-1.974,-1.9768,-1.9783,-1.9689,-1.9496,-1.9574,-1.9462,-1.9205,-1.9111,-1.9046,-1.9022,-1.932,-1.9344,-1.9166,-1.9473,-1.9496,-1.9344,-1.9415,-1.9428,-1.9452,-1.9499,-1.971,-1.9907,0.0,-1.9909,-2.0869,-2.0994,-2.0809,-2.0529,-2.0348,-2.0134,-2.0008,-2.0361,-2.0946,-2.1517,-2.1542,-2.1564,-2.1625,-2.1945,-2.2033,-2.2184,-2.2706,-2.312,-2.354,-2.3916,-2.4569,-2.5172,-2.5523,-2.5946,-2.6273,-2.6461,-2.6952,-2.7406,-2.777,-2.8461,-2.9038,-2.9453,-2.9679,-2.9792,-2.9792,-2.9792,-2.9702,-2.9419,-2.9419,-2.9314,-2.9091,-2.8961,-2.8882,-2.8791,-2.8657,-2.8578,-2.851,-2.851,-2.851,-2.851,-2.851,-2.851,-2.851,-2.851,-2.851,-2.851,-2.851,-2.851,-2.851,-2.851,-2.851,-2.8431,-2.7551,-2.6835,-2.6121,-2.4956,-2.4112,-2.356,-2.1588,-2.1418,-2.1181,-2.0597,-2.0431,0.0,0.0,0.0,0.0,0.0,0.0,0.0,0.0,0.0,0.0,0.0,0.0,-2.0826,-2.0679,-2.0527,-2.0356,-2.015,-2.0028,-1.9955,-1.9866,-1.9912,-1.9802,-1.9517,-1.9621,-1.9488,-1.9179,-1.8988,-1.8878,-1.8832,-1.8992,-1.8911,-1.8727,-1.9048,-1.9565,-2.013,-1.9436,-1.9657,-2.0324,-1.9647,-1.9574,0.0,-1.9715,-2.0355,-2.1264,-2.1458,-2.1293,-2.1053,-2.1073,-2.0867,-2.0707,-2.1085,-2.1521,-2.1933,-2.2049,-2.2071,-2.2159,-2.2493,-2.2581,-2.2669,-2.302,-2.359,-2.4054,-2.4255,-2.4983,-2.5661,-2.5862,-2.6248,-2.6499,-2.6499,-2.7115,-2.7708,-2.8059,-2.8662,-2.9238,-2.9613,-2.9573,-2.9546,-2.9546,-2.9546,-2.9495,-2.9314,-2.9223,-2.9118,-2.8895,-2.8776,-2.8685,-2.8685,-2.8578,-2.851,-2.851,-2.851,-2.851,-2.851,-2.851,-2.851,-2.851,-2.851,-2.851,-2.851,-2.851,-2.851,-2.851,-2.851,-2.851,-2.8431,-2.7551,-2.6846,-2.6163,-2.4956,-2.4112,-2.356,-2.2214,-2.2092,-2.1969,0.0,0.0,0.0,0.0,0.0,0.0,0.0,0.0,0.0,0.0,0.0,0.0,0.0,0.0,0.0,-2.1199,-2.0908,-2.0627,-2.0427,-2.0357,-2.0235,-2.0041,-2.0023,-1.9762,-1.9262,-1.9812,-1.9809,-1.9305,-1.9475,-1.9498,-1.9373,-1.9551,-1.9293,-1.8751,-1.9373,-2.0689,-2.2133,-2.0298,-2.0887,-2.2691,-2.0886,-2.0182,-2.0225,-2.0784,-2.0921,-2.0816,-2.0619,-2.0501,-2.0519,-2.1,-2.1041,-2.1029,-2.1551,-2.2009,-2.2443,-2.2957,-2.3078,-2.3078,-2.3108,-2.3078,-2.3078,-2.3108,-2.359,-2.4155,-2.4675,-2.5234,-2.5774,-2.6386,-2.6499,-2.6499,-2.6499,-2.7356,-2.8035,-2.8073,-2.8786,-2.9342,-2.938,-2.9236,-2.9091,-2.9091,-2.9091,-2.9091,-2.9091,-2.8922,-2.8724,-2.851,-2.851,-2.851,-2.851,-2.851,-2.851,-2.851,-2.851,-2.851,-2.851,-2.851,-2.851,-2.851,-2.851,-2.851,-2.851,-2.851,-2.8471,-2.8431,-2.8431,-2.8431,-2.8259,-2.7389,-2.7051,-2.6846,-2.5084,-2.4413,-2.4284,0.0,0.0,0.0,0.0,0.0,0.0,0.0,0.0,0.0,0.0,0.0,0.0,0.0,0.0,0.0,0.0,0.0,0.0,-2.1215,-2.1119,-2.0957,-2.0712,-2.0627,-2.056,-2.0525,-2.0321,-2.0166,-2.0028,-1.973,-1.9507,-1.9361,-1.9077,-1.8911,-1.8891,-1.8931,-1.8857,-1.8717,-1.8891,-1.9218,-1.9633,-1.9134,-1.9293,-1.9782,-1.9299,-1.9324,-1.9589,-1.9382,-1.9647,-2.0231,-2.1204,-2.1236,-2.0793,-2.0546,-2.0859,-2.1373,-2.1499,-2.22,-2.2932,-2.3058,-2.3017,-2.2969,-2.3078,-2.3017,-2.3,-2.3078,-2.359,-2.4155,-2.4675,-2.5234,-2.5774,-2.6386,-2.6499,-2.6465,-2.6305,-2.6831,-2.7368,-2.7607,-2.8174,-2.8753,-2.9108,-2.9131,-2.9091,-2.9091,-2.8961,-2.8882,-2.8882,-2.8843,-2.8724,-2.851,-2.851,-2.851,-2.851,-2.851,-2.851,-2.851,-2.851,-2.851,-2.851,-2.851,-2.851,-2.851,-2.851,-2.851,-2.851,-2.851,-2.8139,-2.751,-2.751,-2.7133,-2.6412,-2.5547,-2.521,-2.5041,-2.3897,-2.3484,-2.343,0.0,0.0,0.0,0.0,0.0,0.0,0.0,0.0,0.0,0.0,0.0,0.0,0.0,0.0,0.0,0.0,0.0,0.0,0.0,-2.1278,-2.1151,-2.0942,-2.0892,-2.0826,-2.0744,-2.061,-2.046,-2.034,-1.9997,-1.9767,-1.9639,-1.9207,-1.9006,-1.9006,-1.8798,-1.8688,-1.8688,-1.8688,-1.931,0.0,0.0,-1.9628,-2.0455,-1.9626,-1.9372,-1.9442,-1.9354,-1.9629,-2.0113,-2.0685,-2.0932,-2.0919,-2.0372,-2.0803,-2.1493,-2.1493,-2.2272,-2.3108,-2.3108,-2.2987,-2.2939,-2.3078,-2.2987,-2.2939,-2.3078,-2.359,-2.4092,-2.4393,-2.4883,-2.5423,-2.6009,-2.602,-2.6005,-2.6164,-2.6578,-2.7002,-2.7447,-2.7912,-2.8362,-2.89,-2.8895,-2.8828,-2.8828,-2.8736,-2.8657,-2.8657,-2.8657,-2.8618,-2.851,-2.851,-2.851,-2.851,-2.851,-2.851,-2.851,-2.851,-2.851,-2.851,-2.851,-2.851,-2.851,-2.851,-2.851,-2.8471,-2.8099,-2.7644,-2.7185,-2.6764,-2.6287,-2.5735,-2.5242,-2.5084,-2.4956,-2.4069,-2.3691,-2.3647,0.0,0.0,0.0,0.0,0.0,0.0,0.0,0.0,0.0,-2.1812,-2.1812,-2.1812,-2.1812,-2.1812,0.0,0.0,0.0,0.0,0.0,0.0,-2.1278,-2.1119,-2.1135,-2.1039,-2.0876,-2.0844,-2.0728,-2.0495,-2.0461,-2.0325,-2.0096,-1.9747,-1.9588,-1.957,-1.9159,-1.8991,-1.8991,-1.8954,-2.0157,-2.1912,-2.0217,-2.0745,-2.2369,0.0,-1.9871,-1.9639,-1.9907,-2.0141,-2.0259,-1.9765,-2.0187,-2.0858,-2.0346,-2.0803,-2.1521,-2.1521,-2.2272,-2.3108,-2.3108,-2.2987,-2.2939,-2.3078,-2.2987,-2.2939,-2.3078,-2.3496,-2.3904,-2.3979,-2.4381,-2.487,-2.5398,-2.5332,-2.5397,-2.5968,-2.6311,-2.6673,-2.725,-2.7639,-2.806,-2.8594,-2.8569,-2.851,-2.851,-2.851,-2.851,-2.851,-2.851,-2.851,-2.851,-2.851,-2.851,-2.851,-2.851,-2.851,-2.851,-2.851,-2.851,-2.851,-2.851,-2.851,-2.851,-2.851,-2.851,-2.8471,-2.7725,-2.7226,-2.6969,-2.6121,-2.5652,-2.5442,-2.5442,-2.5442,-2.5358,-2.4573,-2.4327,-2.4198,0.0,0.0,0.0,0.0,0.0,0.0,0.0,0.0,0.0,0.0,-2.1812,-2.1812,0.0,0.0,0.0,0.0,0.0,0.0,0.0,0.0,0.0,-2.1262,-2.1278,-2.1246,-2.1214,-2.1103,-2.1038,-2.0974,-2.0811,-2.0712,-2.0662,-2.0579,-2.0562,-2.0545,-2.0462,-2.0446,-2.0429,-2.0258,-2.0439,-2.0767,-2.0323,-2.0382,-2.0691,-2.0081,0.0,0.0,-1.9693,-1.9924,-2.0387,-1.9787,-2.005,-2.0549,-2.0283,-2.0869,-2.1648,-2.1536,-2.2272,-2.3108,-2.3108,-2.2987,-2.2939,-2.3078,-2.2987,-2.2939,-2.3078,-2.3183,-2.3396,-2.3904,-2.4067,-2.4305,-2.4858,-2.4926,-2.4983,-2.5262,-2.532,-2.561,-2.6251,-2.6756,-2.7298,-2.7828,-2.8246,-2.851,-2.851,-2.851,-2.851,-2.851,-2.851,-2.851,-2.851,-2.851,-2.851,-2.851,-2.851,-2.851,-2.851,-2.851,-2.851,-2.851,-2.851,-2.851,-2.851,-2.851,-2.851,-2.8471,-2.8339,-2.7418,-2.6038,-2.5872,-2.4904,-2.356,-2.356,-2.356,-2.356,-2.3396,-2.3343,-2.3309,0.0,0.0,0.0,0.0,0.0,0.0,0.0,-2.1812,-2.1812,-2.1812,-2.1812,-2.1812,-2.1812,-2.1812,-2.1812,0.0,0.0,0.0,0.0,0.0,0.0,-2.1325,-2.1293,-2.1293,-2.1293,-2.123,-2.1183,-2.1103,0.0,-2.0893,-2.0794,-2.0794,-2.0794,-2.0794,-2.0794,-2.0794,-2.0794,-2.0695,-2.0662,-2.0645,-2.046,-2.0392,-2.0375,-2.0135,0.0,0.0,-1.9295,-1.9643,-2.0387,-1.9677,-1.9956,-2.0562,-2.0296,-2.0909,-2.1675,-2.1536,-2.2272,-2.3108,-2.3108,-2.2987,-2.2939,-2.3078,-2.2939,-2.2848,-2.3047,-2.3047,-2.3105,-2.3459,-2.3521,-2.3715,-2.4293,-2.4298,-2.4432,-2.5098,-2.5053,-2.5261,-2.6142,-2.6624,-2.709,-2.7618,-2.8186,-2.851,-2.851,-2.851,-2.851,-2.851,-2.851,-2.851,-2.851,-2.851,-2.851,-2.851,-2.851,-2.851,-2.851,-2.851,-2.851,-2.851,-2.851,-2.851,-2.851,-2.851,-2.851,-2.8471,-2.8007,-2.704,-2.5777,-2.5326,-2.4317,-2.3091,-2.3091,-2.3091,-2.3091,-2.3091,-2.3091,-2.3091,0.0,0.0,0.0,0.0,0.0,0.0,0.0,-2.1812,-2.1812,-2.1812,-2.1812,-2.1812,-2.1812,-2.1812,-2.1812,0.0,0.0,0.0,0.0,0.0,0.0,0.0,0.0,0.0,-2.1293,0.0,0.0,-2.1151,-2.1151,0.0,0.0,0.0,0.0,0.0,-2.0909,-2.0909,-2.0909,-2.0876,-2.0844,0.0,0.0,-2.0477,-2.0443,0.0,0.0,0.0,0.0,-1.9404,-2.0267,-1.9547,-1.9866,-2.0542,-2.0334,-2.0872,-2.1576,-2.165,-2.2284,-2.2957,-2.307,-2.3017,-2.2969,-2.3078,-2.2909,-2.2775,-2.2897,-2.2812,-2.2728,-2.2752,-2.2757,-2.2932,-2.354,-2.3504,-2.3729,-2.4789,-2.4795,-2.5008,-2.5934,-2.6553,-2.7054,-2.7462,-2.8114,-2.851,-2.851,-2.851,-2.851,-2.851,-2.851,-2.851,-2.851,-2.851,-2.851,-2.851,-2.851,-2.851,-2.851,-2.851,-2.851,-2.851,-2.851,-2.851,-2.851,-2.851,-2.8391,-2.8179,-2.751,-2.6547,-2.5453,-2.4787,-2.395,-2.3091,-2.3091,-2.3091,-2.3091,-2.3091,-2.3091,-2.3091,0.0,0.0,0.0,0.0,0.0,0.0,0.0,-2.1812,-2.1812,-2.1812,-2.1812,-2.1812,-2.1812,-2.1812,-2.1812,0.0,0.0,0.0,0.0,0.0,0.0,0.0,0.0,0.0,0.0,0.0,0.0,-2.1277,-2.1277,0.0,0.0,0.0,0.0,0.0,0.0,-2.1246,-2.1262,-2.1119,0.0,0.0,0.0,0.0,0.0,0.0,0.0,0.0,0.0,-1.9445,-1.9895,-1.9456,-1.9681,-2.0197,-2.0417,-2.0798,-2.1305,-2.2031,-2.2309,-2.2498,-2.297,-2.3078,-2.3078,-2.3108,-2.2987,-2.2772,-2.2439,-2.228,-2.2085,-2.1716,-2.1644,-2.1807,-2.2372,-2.2431,-2.2735,-2.3691,-2.4082,-2.4413,-2.4876,-2.6082,-2.691,-2.6958,-2.7897,-2.851,-2.851,-2.851,-2.851,-2.851,-2.851,-2.851,-2.851,-2.851,-2.851,-2.851,-2.851,-2.851,-2.851,-2.851,-2.851,-2.851,-2.851,-2.851,-2.851,-2.851,-2.8059,-2.7307,-2.7226,-2.6216,-2.4616,-2.4541,-2.395,-2.3091,-2.3091,-2.3091,-2.3091,-2.3091,-2.3091,-2.3091,0.0,0.0,0.0,0.0,0.0,0.0,-2.1812,-2.1812,-2.1812,-2.1812,-2.1812,-2.1812,-2.1812,-2.1812,-2.1812,-2.1812,0.0,0.0,0.0,0.0,0.0,0.0,0.0,0.0,0.0,0.0,-2.1293,-2.1293,-2.1293,0.0,0.0,0.0,0.0,0.0,0.0,-2.1293,-2.1293,-2.1167,0.0,0.0,0.0,0.0,0.0,0.0,0.0,0.0,0.0,0.0,-1.9689,-1.9538,-1.9664,-2.0029,-2.077,-2.0875,-2.0836,-2.1335,-2.209,-2.2757,-2.2644,-2.2844,-2.3108,-2.3108,-2.275,-2.2392,-2.2301,-2.1902,-2.1546,-2.1503,-2.1493,-2.1556,-2.1782,-2.2083,-2.2531,-2.323,-2.3825,-2.4382,-2.4912,-2.6106,-2.6898,-2.6898,-2.7861,-2.851,-2.851,-2.851,-2.851,-2.851,-2.851,-2.851,-2.851,-2.851,-2.851,-2.851,-2.851,-2.851,-2.851,-2.851,-2.851,-2.851,-2.851,-2.851,-2.851,-2.851,-2.8299,-2.7966,-2.7429,-2.6464,-2.5242,-2.4701,-2.395,-2.3091,-2.3091,-2.3091,-2.3091,-2.3091,-2.3091,-2.3091,0.0,0.0,0.0,0.0,0.0,-2.1812,-2.1812,-2.1812,-2.1812,-2.1812,-2.1812,-2.1812,-2.1812,-2.1812,-2.1812,-2.1812,-2.1708,0.0,0.0,0.0,0.0,0.0,0.0,0.0,0.0,0.0,-2.1293,-2.1293,-2.1293,-2.1293,0.0,0.0,-2.1293,-2.1293,0.0,0.0,0.0,0.0,0.0,0.0,0.0,0.0,0.0,0.0,0.0,0.0,0.0,0.0,0.0,0.0,0.0,-1.9793,-2.0601,-2.0797,-2.0785,-2.106,-2.1744,-2.2388,-2.2133,-2.2347,-2.2619,-2.2619,-2.2243,-2.1832,-2.1829,-2.1378,-2.0986,-2.0989,-2.0991,-2.1041,-2.1245,-2.1694,-2.2246,-2.2782,-2.361,-2.4366,-2.4758,-2.6045,-2.6898,-2.6898,-2.7861,-2.851,-2.851,-2.851,-2.851,-2.851,-2.851,-2.851,-2.851,-2.851,-2.851,-2.851,-2.851,-2.851,-2.851,-2.851,-2.851,-2.851,-2.851,-2.851,-2.851,-2.851,-2.8351,-2.8059,-2.7174,-2.6246,-2.5368,-2.4445,-2.3691,-2.3091,-2.3091,-2.3091,-2.3091,-2.3091,-2.3091,-2.3091,0.0,0.0,0.0,0.0,0.0,0.0,-2.1812,-2.1812,-2.1812,-2.1812,-2.1812,-2.1812,-2.1812,-2.1812,-2.1812,-2.1812,-2.1679,0.0,0.0,0.0,0.0,0.0,0.0,0.0,0.0,0.0,-2.1293,-2.1293,-2.1293,-2.1293,-2.1293,-2.1293,-2.1293,-2.1293,0.0,0.0,0.0,0.0,0.0,0.0,0.0,0.0,0.0,0.0,0.0,0.0,0.0,0.0,0.0,0.0,0.0,0.0,0.0,-2.0497,-2.1326,-2.1608,-2.1335,-2.1002,-2.1411,-2.1506,-2.1506,-2.1506,-2.1353,-2.1107,-2.0803,-2.0557,-2.0302,-1.991,-1.9823,-1.9987,-2.0591,-2.1157,-2.1681,-2.2234,-2.3362,-2.4186,-2.4198,-2.5755,-2.6898,-2.6898,-2.7861,-2.851,-2.851,-2.851,-2.851,-2.851,-2.851,-2.851,-2.851,-2.851,-2.851,-2.851,-2.851,-2.851,-2.851,-2.851,-2.851,-2.851,-2.851,-2.851,-2.851,-2.851,-2.8018,-2.7174,-2.6205,-2.5326,-2.4456,-2.3517,-2.3091,-2.3091,-2.3091,-2.3091,-2.3091,-2.3091,-2.3091,-2.3091,0.0,0.0,0.0,0.0,0.0,0.0,0.0,-2.1812,-2.1812,-2.1812,-2.1812,-2.1812,-2.1812,-2.1812,-2.1812,-2.1812,-2.1708,0.0,0.0,0.0,0.0,0.0,0.0,0.0,0.0,-2.1293,-2.1293,-2.1293,-2.1293,-2.1293,-2.1293,-2.1293,-2.1293,-2.1293,-2.1293,-2.1278,0.0,0.0,0.0,0.0,0.0,0.0,0.0,0.0,0.0,0.0,0.0,0.0,0.0,0.0,0.0,0.0,0.0,0.0,0.0,-2.0168,-2.0755,-2.1371,-2.1033,-2.1232,-2.1493,-2.1493,-2.1177,-2.0824,-2.0729,-2.0324,-1.9934,-1.9836,-1.9798,-1.9861,-2.0037,-2.0853,-2.1543,-2.1719,-2.3145,-2.4186,-2.4186,-2.5451,-2.6502,-2.6849,-2.7861,-2.851,-2.851,-2.851,-2.851,-2.851,-2.851,-2.851,-2.851,-2.851,-2.851,-2.851,-2.851,-2.851,-2.851,-2.851,-2.851,-2.851,-2.851,-2.851,-2.851,-2.851,-2.8339,-2.8007,-2.6453,-2.5652,-2.5284,-2.3724,-2.3091,-2.3091,-2.3091,-2.3091,-2.3091,-2.3091,-2.3091,-2.3091,0.0,0.0,0.0,0.0,0.0,0.0,0.0,-2.1812,-2.1812,-2.1812,-2.1812,-2.1812,-2.1812,-2.1812,-2.1812,-2.1812,-2.1753,0.0,0.0,0.0,0.0,0.0,0.0,0.0,-2.1293,-2.1293,-2.1293,-2.1293,-2.1293,-2.1293,-2.1293,-2.1293,-2.1293,-2.1293,-2.1262,-2.1183,0.0,0.0,0.0,0.0,0.0,0.0,-1.9721,0.0,0.0,0.0,0.0,0.0,0.0,0.0,0.0,0.0,0.0,0.0,0.0,0.0,-1.9926,-2.0753,-2.0455,-2.0589,-2.0853,-2.0853,-2.0616,-2.0365,-2.0365,-2.0062,-1.9798,-1.9798,-1.9798,-1.9798,-1.9798,-2.0727,-2.1493,-2.1437,-2.2973,-2.4198,-2.4132,-2.527,-2.6382,-2.7102,-2.7993,-2.851,-2.851,-2.851,-2.851,-2.851,-2.851,-2.851,-2.851,-2.851,-2.851,-2.851,-2.851,-2.851,-2.851,-2.851,-2.851,-2.851,-2.851,-2.851,-2.851,-2.851,-2.851,-2.8391,-2.6577,-2.5777,0.0,-2.4231,-2.343,-2.3144,-2.3474,-2.3396,-2.3091,-2.3091,-2.3091,-2.3091,0.0,0.0,0.0,0.0,0.0,0.0,0.0,-2.1812,-2.1812,-2.1812,-2.1812,-2.1812,-2.1812,-2.1812,-2.1812,-2.1781,0.0,0.0,0.0,0.0,0.0,0.0,0.0,0.0,-2.1293,-2.1293,-2.1293,-2.1293,-2.1293,-2.1293,-2.1293,-2.1277,-2.1262,-2.1246,-2.1119,-2.0942,-2.0743,0.0,0.0,0.0,-2.0059,-1.968,0.0,0.0,0.0,0.0,0.0,0.0,0.0,0.0,0.0,0.0,0.0,0.0,0.0,0.0,0.0,0.0,0.0,-1.9748,-1.9798,-1.9798,-1.9798,-1.9798,-1.9798,-1.9798,0.0,-1.9798,-1.9798,-1.9811,-1.9849,-2.0752,-2.145,-2.1359,-2.2948,-2.4132,-2.4013,-2.5249,-2.6526,-2.7498,-2.8162,-2.851,-2.851,-2.851,-2.851,-2.851,-2.851,-2.851,-2.851,-2.851,-2.851,-2.851,-2.851,-2.851,-2.851,-2.851,-2.851,-2.851,-2.851,-2.8471,-2.8431,-2.8431,-2.8391,-2.8219,-2.6453,-2.5735,-2.5746,-2.4787,-2.395,-2.3266,-2.4079,-2.3864,-2.3091,-2.3091,-2.3091,-2.3091,0.0,0.0,0.0,0.0,0.0,0.0,0.0,0.0,0.0,0.0,-2.1812,-2.1812,-2.1812,-2.1812,-2.1783,0.0,0.0,0.0,0.0,0.0,0.0,0.0,0.0,0.0,-2.1293,-2.1293,-2.1293,-2.1293,-2.1293,-2.1293,-2.1293,-2.1039,-2.086,-2.0763,-2.0695,-2.051,-2.0272,-2.0251,0.0,0.0,-1.9748,-1.941,0.0,0.0,0.0,0.0,-1.8836,-1.8509,0.0,0.0,0.0,0.0,0.0,0.0,0.0,0.0,-1.8336,-1.8763,-1.8615,0.0,-1.9798,-1.9798,-1.9798,-1.9798,0.0,-1.9798,-1.9798,-1.9798,-1.9798,-1.9885,-2.0204,-2.0812,-2.1352,-2.1642,-2.2995,-2.4046,-2.4013,-2.5575,-2.6789,-2.7054,-2.7906,-2.851,-2.851,-2.851,-2.851,-2.851,-2.851,-2.851,-2.851,-2.851,-2.851,-2.851,-2.851,-2.851,-2.851,-2.851,-2.851,-2.851,-2.851,-2.8139,-2.751,-2.751,-2.7133,-2.637,-2.5284,-2.5158,-2.5694,-2.4059,-2.3734,-2.4112,-2.3604,-2.3309,-2.3091,-2.3091,-2.3091,-2.3091,0.0,0.0,0.0,0.0,0.0,0.0,0.0,0.0,0.0,0.0,0.0,-2.1812,-2.1812,-2.1812,0.0,0.0,0.0,0.0,0.0,0.0,0.0,0.0,0.0,-2.1293,-2.1293,-2.1293,-2.1293,-2.1293,-2.1293,-2.1293,-2.1293,-2.1055,-2.0893,-2.0828,-2.0611,-2.0291,-1.9975,-2.0135,-1.9863,-1.9387,-1.9587,0.0,0.0,0.0,0.0,0.0,-1.8644,-1.8352,0.0,-1.7902,-1.7584,-1.7199,0.0,0.0,0.0,0.0,-1.7747,-1.8127,-1.7897,-1.8618,-1.9421,-1.9421,-1.9623,-1.9798,-1.9798,-1.9798,-1.9798,-1.9798,-1.996,-2.0143,-2.0374,-2.1197,-2.1884,-2.2054,-2.3364,-2.4514,-2.4897,-2.6082,-2.6982,-2.7234,-2.8017,-2.851,-2.851,-2.851,-2.851,-2.851,-2.851,-2.851,-2.851,-2.851,-2.851,-2.851,-2.851,-2.851,-2.851,-2.851,-2.851,-2.851,-2.851,-2.8059,-2.7185,-2.7185,-2.667,-2.5735,-2.4872,-2.4787,-2.5115,-2.4155,-2.3777,-2.3864,-2.3777,-2.3484,-2.3091,-2.3091,-2.3387,-2.3734,0.0,0.0,0.0,0.0,0.0,0.0,0.0,0.0,0.0,0.0,0.0,0.0,0.0,0.0,0.0,0.0,0.0,0.0,0.0,0.0,0.0,0.0,-2.1293,-2.1293,-2.1293,-2.1406,-2.1471,-2.1471,-2.1536,-2.152,-2.1407,-2.1215,-2.1069,-2.0909,-2.0529,-2.012,-1.9744,-1.9982,-1.9938,-1.9666,-1.9385,0.0,0.0,0.0,0.0,0.0,0.0,0.0,0.0,-1.8004,-1.7717,-1.7342,-1.7342,0.0,0.0,0.0,0.0,0.0,-1.7317,-1.8053,-1.8895,-1.8983,-1.9334,-1.971,-1.9786,-1.9773,-1.9798,-1.9859,-2.0154,-2.0392,-2.0566,-2.1657,-2.2555,-2.2499,-2.3753,-2.5076,-2.5985,-2.6574,-2.709,-2.7618,-2.8186,-2.851,-2.851,-2.851,-2.851,-2.851,-2.851,-2.851,-2.851,-2.851,-2.851,-2.851,-2.8391,-2.8299,-2.8299,-2.8299,-2.8299,-2.8299,-2.8179,-2.7632,-2.6805,-2.6805,-2.6299,-2.5358,-2.4616,-2.437,-2.4498,-2.437,-2.3897,-2.3396,-2.4026,-2.382,-2.3091,-2.3091,-2.3691,-2.4498,0.0,0.0,0.0,0.0,0.0,0.0,0.0,0.0,0.0,0.0,0.0,0.0,0.0,0.0,0.0,0.0,0.0,0.0,0.0,0.0,0.0,-2.1293,-2.1293,-2.1293,-2.1293,-2.1908,-2.2232,-2.2232,-2.2628,-2.2527,-2.1967,-2.1489,-2.0877,-2.0166,-1.9874,-1.9642,-1.945,-1.9207,-1.896,-1.8697,-1.8658,0.0,0.0,0.0,0.0,0.0,0.0,0.0,0.0,-1.8587,-1.8297,-1.7957,-1.7957,0.0,0.0,0.0,0.0,0.0,-1.6725,-1.7476,-1.8418,-1.8895,-1.9058,-1.9233,-1.9698,-1.9708,-1.9767,-2.02,-2.0266,-2.0474,-2.1262,-2.1976,-2.2535,-2.285,-2.383,-2.4926,-2.5949,-2.6574,-2.709,-2.7618,-2.8186,-2.851,-2.851,-2.851,-2.851,-2.851,-2.851,-2.851,-2.851,-2.851,-2.851,-2.851,-2.7765,-2.7389,-2.7389,-2.7389,-2.7389,-2.7389,-2.6577,-2.5746,-2.4914,-2.4914,-2.4402,-2.3517,-2.3387,-2.3777,-2.4456,-2.3647,-2.3691,-2.4198,-2.356,-2.3222,-2.3091,-2.3091,-2.3691,-2.4498,0.0,0.0,0.0,0.0,0.0,0.0,0.0,0.0,0.0,0.0,0.0,0.0,0.0,0.0,0.0,0.0,0.0,0.0,0.0,0.0,-2.1293,-2.1293,-2.1293,-2.1487,-2.1892,-2.2232,-2.2472,-2.2619,-2.3093,-2.3024,-2.2479,-2.1888,-2.1007,-1.9889,-1.9752,-1.9482,-1.912,-1.8969,-1.8741,-1.8498,0.0,0.0,0.0,0.0,0.0,0.0,0.0,0.0,0.0,0.0,-1.8884,-1.8479,-1.8192,0.0,0.0,0.0,0.0,0.0,-1.6565,-1.7124,-1.789,-1.8418,-1.8946,-1.947,-1.9994,-2.0025,-2.0079,-2.0594,-2.0839,-2.1177,-2.191,-2.2643,-2.3401,-2.4109,-2.4638,-2.5324,-2.6394,-2.6729,-2.7198,-2.8014,-2.8366,-2.851,-2.851,-2.851,-2.851,-2.851,-2.851,-2.8299,-2.7805,-2.7805,-2.7551,-2.704,-2.6659,-2.6464,-2.6464,-2.5966,-2.5966,-2.6464,-2.5997,-2.5326,-2.4498,-2.4498,-2.3983,-2.3091,-2.3091,-2.3343,-2.3691,-2.3266,-2.3353,-2.3691,-2.3266,-2.3091,-2.3178,-2.3691,-2.4112,-2.4498,0.0,0.0,0.0,0.0,0.0,0.0,0.0,0.0,0.0,0.0,0.0,0.0,0.0,0.0,0.0,0.0,0.0,0.0,0.0,-2.1293,-2.1293,-2.1293,-2.1214,-2.144,-2.2004,-2.2325,-2.2605,-2.2812,-2.3451,-2.3415,-2.2739,-2.2045,-2.1027,-1.9806,-1.9699,-1.9387,-1.8912,-1.8822,-1.8697,-1.8498,0.0,0.0,0.0,0.0,0.0,0.0,0.0,0.0,0.0,0.0,0.0,0.0,0.0,0.0,0.0,-1.714,-1.6897,-1.6859,-1.675,-1.7137,-1.7714,-1.8254,-1.8896,-1.9592,-2.0248,-2.0274,-2.0333,-2.1007,-2.1465,-2.1892,-2.2456,-2.3329,-2.4242,-2.5155,-2.5312,-2.5685,-2.6741,-2.6898,-2.7294,-2.8378,-2.851,-2.8431,-2.8219,-2.8379,-2.8431,-2.8219,-2.8379,-2.8139,-2.7267,-2.7185,-2.6764,-2.5819,-2.5621,-2.5495,-2.5495,-2.4616,-2.4616,-2.5495,-2.5274,-2.4819,-2.4155,-2.4155,-2.3777,-2.3091,-2.3091,-2.3091,-2.3091,-2.3091,-2.3091,-2.3091,-2.3091,-2.3091,-2.3222,-2.4155,-2.437,-2.4198,0.0,0.0,0.0,0.0,0.0,0.0,0.0,0.0,0.0,0.0,0.0,0.0,0.0,0.0,0.0,0.0,0.0,0.0,0.0,-2.1293,-2.1293,-2.1293,-2.1006,-2.0859,-2.0923,-2.2137,-2.2801,-2.2887,-2.3994,-2.3862,-2.2589,-2.1615,-2.0673,-1.9788,-1.9409,-1.9128,-1.8879,-1.8639,-1.8517,-1.8498,-1.8498,0.0,0.0,0.0,0.0,0.0,0.0,0.0,0.0,0.0,0.0,0.0,0.0,0.0,-1.7939,-1.714,-1.6897,-1.6948,-1.7264,-1.7727,-1.8279,-1.8807,-1.8908,-1.9132,-2.0161,-2.0204,-2.0317,-2.135,-2.1874,-2.2325,-2.2855,-2.3773,-2.465,-2.5216,-2.5312,-2.5685,-2.6741,-2.6898,-2.7294,-2.8378,-2.851,-2.8179,-2.7389,-2.8018,-2.8179,-2.7348,-2.8059,-2.8139,-2.7267,-2.7185,-2.6764,-2.5819,-2.5031,-2.4584,-2.4584,-2.3691,-2.3691,-2.4573,-2.3734,-2.3266,-2.3178,-2.3178,-2.3178,-2.3091,-2.3091,-2.3091,-2.3091,-2.3091,-2.3091,-2.3091,-2.3091,-2.3091,-2.3222,-2.4155,-2.394,-2.3309,0.0,0.0,0.0,0.0,0.0,0.0,0.0,0.0,0.0,0.0,0.0,0.0,0.0,0.0,0.0,0.0,0.0,0.0,0.0,-2.1293,-2.1198,-2.1006,-2.086,-2.0679,-2.0429,-2.1379,-2.23,-2.316,-2.3911,-2.3814,-2.2886,-2.1892,-2.0863,-1.9836,-1.9261,-1.8879,-1.8639,-1.8537,-1.8498,-1.8498,-1.8498,-1.8722,0.0,0.0,0.0,0.0,0.0,0.0,0.0,0.0,-2.0014,-1.9643,-1.8702,-1.8493,-1.8369,-1.7231,-1.6897,-1.6961,-1.7314,-1.779,-1.8417,-1.9296,-1.9593,-1.9855,-2.0607,-2.088,-2.1267,-2.2285,-2.2597,-2.2943,-2.3785,-2.453,-2.5071,-2.5276,-2.5312,-2.5685,-2.6741,-2.6898,-2.7294,-2.8378,-2.851,-2.8179,-2.7267,-2.751,-2.7296,-2.6412,-2.704,-2.6864,-2.5589,-2.5913,-2.5537,-2.4145,-2.381,-2.3647,-2.3647,-2.3266,-2.3266,-2.3647,-2.3266,-2.3091,-2.3091,-2.3091,-2.3091,-2.3091,-2.3091,-2.3091,-2.3091,-2.3091,-2.3091,-2.3091,-2.3091,-2.3091,-2.3135,-2.3517,-2.3387,-2.3135,0.0,0.0,0.0,0.0,0.0,0.0,0.0,0.0,0.0,0.0,0.0,0.0,0.0,0.0,0.0,0.0,0.0,0.0,-2.1293,-2.1293,-2.1151,-2.0811,-2.0679,-2.0479,-2.0208,-2.067,-2.1569,-2.2913,-2.3615,-2.3603,-2.2915,-2.1879,-2.0841,-1.9861,-1.9103,-1.8678,-1.8498,-1.8498,-1.8498,-1.8498,-1.8498,-1.8863,0.0,0.0,0.0,0.0,0.0,0.0,0.0,0.0,-1.9785,-1.9603,-1.8453,-1.8466,-1.8643,-1.7282,-1.6897,-1.6999,-1.7506,-1.8041,-1.8731,-1.9811,-2.0439,-2.0911,-2.1395,-2.1665,-2.2019,-2.283,-2.3244,-2.3737,-2.4568,-2.5059,-2.5312,-2.5312,-2.5444,-2.5877,-2.6765,-2.7042,-2.7474,-2.8402,-2.851,-2.8047,-2.6887,-2.6958,-2.6577,-2.5358,-2.6152,-2.5986,-2.436,-2.4988,-2.4691,-2.3057,-2.3013,-2.3057,-2.3091,-2.3091,-2.3091,-2.3091,-2.3091,-2.3091,-2.3091,-2.3091,-2.3091,-2.3091,-2.3091,-2.3091,-2.3091,-2.3091,-2.3091,-2.3091,-2.3091,-2.3091,-2.3091,-2.3091,-2.3091,-2.3091,0.0,0.0,0.0,0.0,0.0,0.0,0.0,0.0,0.0,0.0,0.0,0.0,0.0,0.0,0.0,0.0,0.0,0.0,-2.1293,-2.1293,-2.1151,-2.0811,-2.0412,-2.0191,-2.0191,-2.0142,-2.0749,-2.2099,-2.3098,-2.3266,-2.2566,-2.1439,-2.0526,-1.9841,-1.8917,-1.8498,-1.8498,-1.8498,-1.8498,-1.8498,-1.8498,-1.8863,-1.946,0.0,0.0,0.0,0.0,0.0,0.0,0.0,-1.929,-1.959,-1.8453,-1.8466,-1.863,-1.7295,-1.691,-1.7089,-1.7972,-1.8581,-1.9271,-2.0427,-2.1394,-2.2167,-2.253,-2.2402,-2.2354,-2.2883,-2.3809,-2.4687,-2.5216,-2.5312,-2.5312,-2.5312,-2.5745,-2.6298,-2.6813,-2.7354,-2.7921,-2.845,-2.851,-2.7794,-2.5955,-2.64,-2.6016,-2.4211,-2.5557,-2.5683,-2.3877,-2.4681,-2.4435,-2.2847,-2.2803,-2.2891,-2.3091,-2.3091,-2.3091,-2.3091,-2.3091,-2.3091,-2.3091,-2.3091,-2.3091,-2.3091,-2.3091,-2.3091,-2.3091,-2.3091,-2.3091,-2.3091,-2.3091,-2.3091,-2.3091,-2.3091,-2.3091,-2.3091,0.0,0.0,0.0,0.0,0.0,0.0,0.0,0.0,0.0,0.0,0.0,0.0,0.0,0.0,0.0,0.0,0.0,0.0,-2.1293,-2.1293,-2.1151,-2.0811,-2.0679,-2.0479,-2.0208,-2.0638,-2.1283,-2.2111,-2.2818,-2.2783,-2.2024,-2.1005,-2.0182,-1.9518,-1.8804,-1.8498,-1.8498,-1.8498,-1.8498,-1.8498,-1.8361,-1.8642,-1.9211,0.0,0.0,0.0,0.0,0.0,0.0,0.0,0.0,0.0,-1.8205,-1.8205,-1.8226,-1.7634,-1.7465,-1.7565,-1.8073,-1.8581,-1.9359,-2.0878,-2.1285,-2.165,-2.2936,-2.3055,-2.3107,-2.3914,-2.4602,-2.5119,-2.5276,-2.5312,-2.5312,-2.5312,-2.5745,-2.6249,-2.6614,-2.715,-2.7636,-2.8023,-2.8082,-2.736,-2.5526,-2.5568,-2.4882,-2.3028,-2.3833,-2.392,-2.2862,-2.3584,-2.3541,-2.2574,-2.2706,-2.2847,-2.2882,-2.3013,-2.3091,-2.3091,-2.3091,-2.3091,-2.3091,-2.3091,-2.3091,-2.3091,-2.3091,-2.3091,-2.3091,-2.3091,-2.3091,-2.3091,-2.3091,-2.3091,-2.3091,-2.3091,-2.3091,-2.3091,0.0,0.0,0.0,0.0,0.0,0.0,0.0,0.0,0.0,0.0,-2.1371,-2.134,0.0,0.0,0.0,0.0,0.0,0.0,-2.1293,-2.1293,-2.1151,-2.0811,-2.0646,-2.0416,-2.0089,-2.0543,-2.0983,-2.1455,-2.2039,-2.2088,-2.1583,-2.0507,-1.9789,-1.9362,-1.8779,-1.8498,-1.8498,-1.842,-1.838,-1.8361,-1.8163,-1.844,-1.8975,0.0,0.0,0.0,0.0,0.0,0.0,0.0,0.0,0.0,-1.81,-1.81,-1.8057,-1.7788,-1.7699,-1.7782,-1.8124,-1.8756,-1.966,-2.1129,-2.1418,-2.1722,-2.3281,-2.3664,-2.392,-2.4662,-2.5083,-2.5312,-2.5312,-2.5312,-2.5312,-2.5312,-2.5865,-2.6353,-2.6574,-2.7174,-2.7676,-2.7898,-2.7893,-2.7208,-2.5368,-2.5105,-2.4253,-2.2441,-2.294,-2.2984,-2.2176,-2.2896,-2.3028,-2.2309,-2.2451,-2.2627,-2.2803,-2.2925,-2.3013,-2.3091,-2.3091,-2.3091,-2.3091,-2.3091,-2.3091,-2.3091,-2.3091,-2.3091,-2.3091,-2.3091,-2.3091,-2.3091,-2.3091,-2.3091,-2.3091,-2.3091,-2.3091,-2.312,0.0,0.0,0.0,0.0,0.0,0.0,0.0,0.0,0.0,-2.1293,-2.1293,-2.1293,0.0,0.0,0.0,-2.1293,-2.1293,-2.1293,-2.1293,-2.1293,-2.1167,-2.086,-2.0429,-2.0092,-1.9845,-1.9967,-2.018,-2.0401,-2.0944,-2.1181,-2.1097,-1.9929,-1.9362,-1.9277,-1.8736,-1.8498,-1.8459,-1.8282,-1.8183,-1.8149,-1.7942,-1.8187,-1.8682,-1.8661,0.0,0.0,0.0,0.0,0.0,0.0,0.0,0.0,-1.8074,-1.8061,-1.7978,-1.7753,-1.7699,-1.7782,-1.8124,-1.8957,-2.0012,-2.1192,-2.1749,-2.2323,-2.3534,-2.4194,-2.4723,-2.5204,-2.5312,-2.5312,-2.5312,-2.5312,-2.5312,-2.5312,-2.5994,-2.6524,-2.6572,-2.7215,-2.7661,-2.7708,-2.7719,-2.7033,-2.5284,-2.4935,-2.4029,-2.2309,-2.2677,-2.2589,-2.1731,-2.2501,-2.2677,-2.2097,-2.2097,-2.2318,-2.2715,-2.275,-2.2882,-2.3057,-2.3057,-2.3091,-2.3091,-2.3091,-2.3091,-2.3091,-2.3091,-2.3091,-2.3091,-2.3091,-2.3091,-2.3091,-2.3091,-2.3091,-2.3091,-2.3091,-2.3091,-2.3159,0.0,0.0,0.0,0.0,0.0,0.0,0.0,0.0,-2.1371,-2.1325,-2.1293,-2.1293,-2.1293,-2.1293,0.0,-2.1293,-2.1293,-2.1293,-2.1293,-2.1293,-2.1278,-2.1198,-2.0496,-1.9878,-1.9355,-1.9602,-1.9691,-1.9627,-2.0274,-2.033,-1.9803,-1.9536,-1.9157,-1.8694,-1.8554,-1.842,-1.8262,-1.8222,-1.8103,-1.7942,-1.7693,-1.7658,-1.7757,-1.7612,-1.7587,0.0,0.0,0.0,0.0,0.0,0.0,0.0,-1.7944,-1.7774,-1.7444,-1.7637,-1.7699,-1.7782,-1.8124,-1.8694,-1.9534,-2.1104,-2.2605,-2.3704,-2.3788,-2.4482,-2.5168,-2.5288,-2.5312,-2.5312,-2.5312,-2.5312,-2.5312,-2.5312,-2.5684,-2.6071,-2.6323,-2.6108,-2.6017,-2.6254,-2.6257,-2.583,-2.4744,-2.4616,-2.4102,-2.2974,-2.2334,-2.19,-2.1687,-2.1909,-2.1954,-2.1776,-2.2008,-2.2141,-2.223,-2.2397,-2.2618,-2.2838,-2.2838,-2.2969,-2.3091,-2.3091,-2.3091,-2.3091,-2.3091,-2.3091,-2.3091,-2.3091,-2.3091,-2.3091,-2.3091,-2.3091,-2.3091,-2.3091,-2.3091,-2.3159,0.0,0.0,0.0,0.0,0.0,0.0,0.0,0.0,-2.1729,-2.1342,-2.1293,-2.1293,-2.1293,-2.1293,0.0,0.0,-2.1293,-2.1293,-2.1293,-2.1293,-2.1135,-2.0745,-2.0102,-1.9515,-1.8974,-1.9029,-1.9035,-1.8975,-1.9312,-1.9452,-1.9376,-1.9101,-1.8807,-1.8498,-1.84,-1.8301,-1.8183,-1.7969,-1.7794,-1.7693,-1.7447,-1.7536,-1.7766,-1.7673,-1.7787,-1.8009,-1.8009,0.0,0.0,0.0,0.0,0.0,0.0,0.0,-1.7639,-1.7764,-1.7958,-1.8162,-1.8257,-1.8654,-1.9371,-2.0957,-2.2775,-2.4165,-2.3959,-2.4635,-2.5312,-2.5312,-2.5312,-2.5312,-2.5312,-2.5312,-2.5276,-2.5218,-2.5444,-2.5632,-2.5501,-2.5333,-2.5254,-2.5189,-2.5537,-2.5274,-2.3963,-2.4231,-2.393,-2.2545,-2.1989,-2.1696,-2.1696,-2.1696,-2.1696,-2.1696,-2.183,-2.1963,-2.2097,-2.2185,-2.2353,-2.2618,-2.2759,-2.2925,-2.3091,-2.3091,-2.3091,-2.3091,-2.3091,-2.3091,-2.3091,-2.3091,-2.3091,-2.3091,-2.3091,-2.3091,-2.3091,-2.3091,-2.3091,-2.3188,0.0,0.0,0.0,0.0,0.0,0.0,0.0,0.0,0.0,-2.1374,-2.1293,-2.1293,-2.1293,-2.1293,-2.1293,0.0,0.0,0.0,-2.1293,-2.1262,-2.0877,-2.0102,-1.9642,-1.918,-1.8673,-1.8556,-1.8498,-1.8498,-1.8498,-1.8764,-1.9242,-1.8736,-1.8478,-1.8439,-1.8282,-1.8163,-1.8049,-1.7659,-1.7475,-1.7434,-1.7282,-1.7499,-1.7944,-1.7944,-1.8218,-1.861,-1.861,-1.8388,-1.81,-1.81,0.0,0.0,0.0,0.0,-1.8052,-1.7813,-1.808,-1.8441,-1.8401,-1.8904,-1.9722,-2.0909,-2.264,-2.4087,-2.4022,-2.4585,-2.5204,-2.5288,-2.5312,-2.5312,-2.5312,-2.5312,-2.5276,-2.5111,-2.5264,-2.5231,-2.4786,-2.4734,-2.4653,-2.4397,-2.4935,-2.4755,-2.327,-2.38,-2.3627,-2.2078,-2.1776,-2.1696,-2.1696,-2.1696,-2.1696,-2.1696,-2.1696,-2.183,-2.2008,-2.2052,-2.2141,-2.2353,-2.2671,-2.2925,-2.3091,-2.3091,-2.3091,-2.3091,-2.3091,-2.3091,-2.3091,-2.3091,-2.3091,-2.3091,-2.3091,-2.3091,-2.3091,-2.3091,-2.314,-2.3315,0.0,0.0,0.0,0.0,0.0,0.0,0.0,0.0,0.0,0.0,-2.1293,-2.1293,-2.1293,-2.1293,-2.1293,-2.1293,-2.1293,-2.1293,-2.1293,0.0,0.0,-1.9952,-1.9591,-1.9124,-1.8537,-1.8517,-1.8498,-1.8498,-1.8498,-1.854,-1.8624,-1.854,-1.842,-1.8242,-1.8222,-1.7955,-1.7578,-1.7516,-1.7393,-1.724,-1.722,-1.7251,-1.7316,-1.7316,-1.7356,-1.7421,-1.7421,-1.7721,-1.81,-1.81,-1.8048,0.0,0.0,0.0,-1.7974,-1.7303,-1.7453,-1.7917,-1.8287,-1.975,-2.1189,-2.1275,-2.2454,-2.3646,-2.3948,-2.4307,-2.4759,-2.5216,-2.5312,-2.5312,-2.5312,-2.5312,-2.5276,-2.5111,-2.498,-2.4951,-2.5096,-2.4074,-2.3432,-2.3784,-2.3592,-2.3347,-2.3139,-2.3226,-2.3183,-2.2931,-2.2157,-2.1696,-2.1696,-2.1696,-2.1696,-2.1696,-2.1696,-2.1741,-2.1731,-2.1731,-2.1874,-2.2141,-2.2583,-2.2925,-2.3091,-2.3091,-2.3091,-2.3091,-2.3091,-2.3091,-2.3091,-2.3091,-2.3091,-2.3091,-2.3091,-2.3091,-2.3091,-2.3091,-2.3379,-2.3769,0.0,0.0,0.0,0.0,0.0,0.0,0.0,0.0,0.0,0.0,0.0,-2.1293,-2.1293,-2.1293,-2.1293,-2.1293,-2.1293,-2.1293,-2.1293,-2.0778,-2.0294,-1.9917,-1.9536,-1.9082,-1.8517,-1.8639,-1.8659,-1.8498,-1.8498,-1.8498,-1.8498,-1.838,-1.8282,-1.8202,-1.8083,-1.7828,-1.7496,-1.7372,-1.7282,-1.7199,-1.7199,-1.7408,-1.7695,-1.7695,-1.7891,-1.8153,-1.8153,-1.8127,-1.814,-1.8453,-1.8349,-1.8153,-1.8453,0.0,0.0,0.0,-1.8112,-1.8224,-1.827,-1.9397,-2.0702,-2.1259,-2.2216,-2.3199,-2.3949,-2.4314,-2.464,-2.5204,-2.5312,-2.5312,-2.5312,-2.5312,-2.5206,-2.4957,-2.4861,-2.4664,-2.4356,-2.3759,-2.3448,-2.366,-2.4012,-2.4114,-2.3899,-2.3877,-2.3671,-2.3139,-2.2246,-2.1696,-2.1696,-2.1696,-2.1696,-2.1696,-2.1696,-2.1696,-2.1696,-2.1696,-2.183,-2.2097,-2.2397,-2.2706,-2.2925,-2.3047,-2.3091,-2.3091,-2.3091,-2.3091,-2.3091,-2.3091,-2.3091,-2.3091,-2.3091,-2.3091,-2.3091,-2.3091,-2.3418,-2.3857,0.0,0.0,0.0,0.0,0.0,0.0,0.0,0.0,0.0,0.0,0.0,-2.1293,-2.1293,0.0,0.0,0.0,-2.1246,-2.1293,-2.1293,-2.0597,-2.0045,-1.9762,-1.9191,-1.872,-1.8355,-1.8494,-1.856,-1.8498,-1.8498,-1.8498,-1.8498,-1.8135,-1.7934,-1.7889,-1.7821,-1.7666,-1.7413,-1.7261,-1.7199,-1.7199,-1.7157,-1.7452,-1.7865,-1.78,-1.8061,-1.8435,-1.8435,-1.8265,-1.8131,-1.8535,-1.8519,-1.8375,-1.878,-1.9211,0.0,0.0,0.0,-1.8569,-1.8439,-1.9095,-2.0075,-2.1204,-2.1948,-2.2696,-2.3776,-2.4186,-2.4482,-2.4999,-2.5216,-2.5312,-2.5312,-2.5276,-2.5147,-2.4861,-2.4754,-2.4509,-2.3849,-2.3662,-2.3602,-2.3685,-2.4317,-2.4646,-2.4323,-2.4426,-2.4102,-2.3183,-2.2457,-2.1945,-2.1687,-2.1696,-2.1696,-2.1696,-2.1696,-2.1696,-2.1696,-2.1696,-2.183,-2.2097,-2.2264,-2.2485,-2.2803,-2.2969,-2.3047,-2.3091,-2.3091,-2.3091,-2.3091,-2.3091,-2.3091,-2.3091,-2.3091,-2.3091,-2.3091,-2.3091,-2.3442,-2.3994,0.0,0.0,0.0,0.0,0.0,0.0,0.0,0.0,0.0,0.0,0.0,-2.1293,-2.1293,-2.1293,-2.1167,-2.086,-2.1119,-2.1293,-2.1293,-2.0545,-1.9863,-1.9336,-1.8338,0.0,-1.7916,-1.7762,-1.7927,-1.8498,-1.8498,-1.8498,-1.8484,-1.7715,-1.7248,-1.7085,-1.7384,-1.7406,-1.722,-1.7199,-1.7199,-1.7199,-1.7065,-1.712,-1.723,-1.7041,-1.7024,-1.7114,-1.7114,-1.7458,-1.7943,-1.8083,-1.8466,-1.8872,-1.8898,-1.8924,-1.895,0.0,0.0,0.0,-1.8893,-1.9359,-2.0075,-2.1204,-2.1662,-2.2144,-2.328,-2.3685,-2.3986,-2.4458,-2.4963,-2.5312,-2.5312,-2.5218,-2.5052,-2.4825,-2.4646,-2.4429,-2.4198,-2.3842,-2.3607,-2.3612,-2.3712,-2.3743,-2.3732,-2.4187,-2.4102,-2.3183,-2.3052,-2.2633,-2.1731,-2.1696,-2.1696,-2.1696,-2.1696,-2.1696,-2.1696,-2.1696,-2.183,-2.2097,-2.2097,-2.2362,-2.2803,-2.2794,-2.2925,-2.3091,-2.3091,-2.3091,-2.3091,-2.3091,-2.3091,-2.3091,-2.3091,-2.3091,-2.3091,-2.3091,-2.3627,-2.4385,0.0,0.0,0.0,0.0,0.0,0.0,0.0,0.0,0.0,0.0,0.0,0.0,0.0,-2.0974,-2.0925,-2.0811,-2.0909,-2.0974,-2.0974,-1.9941,-1.9203,-1.8928,-1.7932,-1.7294,-1.7143,-1.7217,-1.7295,-1.7337,-1.7337,-1.7282,-1.713,-1.6725,-1.6413,-1.6249,-1.6762,-1.687,-1.6702,-1.7055,-1.7199,-1.7199,-1.7065,-1.7044,-1.7065,-1.6939,-1.6897,-1.6939,-1.6939,-1.7089,-1.7385,-1.7813,-1.8152,-1.8496,-1.9147,-1.9344,-1.932,-1.914,-1.9033,-1.8911,-1.8567,-1.887,-1.9459,-2.0225,-2.0856,-2.1579,-2.2672,-2.3125,-2.3541,-2.435,-2.464,-2.4903,-2.5252,-2.5182,-2.5016,-2.4825,-2.4646,-2.4418,-2.4236,-2.3638,-2.3324,-2.3618,-2.3242,-2.3395,-2.4566,-2.4314,-2.4083,-2.3986,-2.3444,-2.2668,-2.1731,-2.1696,-2.1696,-2.1696,-2.1696,-2.1696,-2.1696,-2.1696,-2.1741,-2.183,-2.2008,-2.2274,-2.253,-2.2706,-2.2925,-2.3091,-2.3091,-2.3091,-2.3091,-2.3091,-2.3091,-2.3091,-2.3091,-2.3091,-2.313,-2.3457,-2.3926,-2.4453,0.0,0.0,0.0,0.0,0.0,0.0,0.0,0.0,-2.099,-2.099,0.0,0.0,0.0,0.0,-2.0794,-2.0794,-2.0512,-2.0335,-2.0333,-1.9304,-1.8497,-1.808,-1.7203,-1.6632,-1.6505,-1.6579,-1.6659,-1.6708,-1.6708,-1.6606,-1.6405,-1.5985,-1.5694,-1.5541,-1.6066,-1.6336,-1.6428,-1.6963,-1.7178,-1.7115,-1.7002,-1.7076,-1.7222,-1.7114,-1.722,-1.7396,-1.7396,-1.7417,-1.7525,-1.7965,-1.829,-1.863,-1.9107,-1.9392,-1.9486,-1.9266,-1.9077,-1.8901,-1.8768,-1.8606,-1.8744,-1.9823,-2.0327,-2.085,-2.2058,-2.2566,-2.3019,-2.3821,-2.4278,-2.4592,-2.4975,-2.5063,-2.5052,-2.4921,-2.4682,-2.4454,-2.4309,-2.3787,-2.3408,-2.3454,-2.3131,-2.3278,-2.4215,-2.4315,-2.4345,-2.4314,-2.3839,-2.3149,-2.2201,-2.1865,-2.1696,-2.1696,-2.1696,-2.1696,-2.1696,-2.1696,-2.1696,-2.1696,-2.1874,-2.2132,-2.2397,-2.2574,-2.2838,-2.3091,-2.3091,-2.3091,-2.3091,-2.3091,-2.3091,-2.3091,-2.3091,-2.3091,-2.3149,-2.3633,-2.4053,-2.4482,0.0,0.0,0.0,0.0,0.0,0.0,0.0,0.0,-2.0794,-2.0778,0.0,0.0,0.0,0.0,0.0,-2.0794,-1.9962,-1.9429,-1.9433,-1.871,-1.7857,-1.6864,-1.6101,-1.5809,-1.6067,-1.5809,-1.5986,-1.6652,-1.6652,-1.6536,-1.6318,-1.553,-1.5086,-1.4975,-1.5336,-1.5813,-1.6402,-1.6963,-1.7115,-1.7002,-1.6944,-1.7234,-1.7677,-1.7491,-1.7819,-1.838,-1.838,-1.8403,-1.8403,-1.8484,-1.8902,-1.9272,-1.8759,-1.8964,-1.9363,-1.9203,-1.8811,-1.861,0.0,0.0,0.0,-2.0113,-2.0107,-1.9986,-2.1424,-2.2085,-2.2492,-2.2911,-2.3773,-2.4448,-2.446,-2.48,-2.5087,-2.5087,-2.4766,-2.449,-2.449,-2.4309,-2.3861,-2.3075,-2.3394,-2.336,-2.2606,-2.4132,-2.4802,-2.4002,-2.4303,-2.4082,-2.3139,-2.2201,-2.1696,-2.1696,-2.1696,-2.1696,-2.1696,-2.1696,-2.1696,-2.1696,-2.1696,-2.1954,-2.2397,-2.2397,-2.2662,-2.3101,-2.3101,-2.3091,-2.3091,-2.3091,-2.3091,-2.3091,-2.3091,-2.3091,-2.3149,-2.3643,-2.4062,-2.4482,0.0,0.0,0.0,0.0,0.0,-2.0794,-2.0794,-2.0678,-2.051,0.0,0.0,0.0,-2.0087,-2.0291,-2.0441,-2.0441,-2.0202,-2.0041,-2.0045,-1.8774,-1.7787,-1.7333,-1.6039,-1.5281,-1.5156,-1.5093,-1.5145,-1.5328,-1.5187,-1.504,-1.4875,-1.4499,-1.4253,-1.4164,-1.5092,-1.5534,-1.5679,-1.6651,-1.7044,-1.7007,-1.7233,-1.7422,-1.759,-1.7861,-1.8089,-1.8275,-1.8275,-1.8309,-1.8403,-1.8427,-1.8576,-1.8712,-1.8525,-1.8749,-1.9043,-1.8591,-1.8654,-1.8806,-1.8668,0.0,0.0,0.0,0.0,0.0,-2.0603,-2.1313,-2.1964,-2.2468,-2.3027,-2.352,-2.3905,-2.4364,-2.4677,-2.4677,-2.4555,-2.449,-2.449,-2.3824,-2.3261,-2.3038,-2.2601,-2.2613,-2.33,-2.3813,-2.4287,-2.4751,-2.4882,-2.4388,-2.3163,-2.2201,-2.1696,-2.1696,-2.1696,-2.1696,-2.1696,-2.1696,-2.1696,-2.1696,-2.1696,-2.1874,-2.2176,-2.2176,-2.2451,-2.2882,-2.2882,-2.2969,-2.3091,-2.3091,-2.3091,-2.3091,-2.3091,-2.3091,-2.3179,-2.3975,-2.4316,-2.4521,0.0,0.0,-2.0309,-2.0342,-2.0361,-2.0378,-2.0378,-2.0393,-2.0357,0.0,0.0,0.0,-1.9841,-1.98,-1.9797,-1.9797,-1.9566,-1.9357,-1.9218,-1.831,-1.7478,-1.6775,-1.5891,-1.5187,-1.47,-1.4671,-1.4639,-1.4604,-1.4465,-1.4324,-1.416,-1.4049,-1.3931,-1.3857,-1.4935,-1.5368,-1.5369,-1.6422,-1.7004,-1.7234,-1.7422,-1.7751,-1.8172,-1.8417,-1.8832,-1.9233,-1.9233,-1.9422,-1.9661,-1.9421,-1.9067,-1.8698,-1.8663,-1.8654,-1.8594,-1.8292,-1.8267,-1.8317,-1.8229,-1.8041,-1.799,-1.8519,0.0,0.0,-1.9836,-2.0352,-2.0929,-2.1795,-2.2344,-2.2811,-2.3372,-2.3857,-2.4206,-2.4206,-2.4317,-2.4484,-2.4707,-2.4116,-2.3482,-2.3165,-2.2644,-2.2439,-2.2857,-2.3367,-2.3919,-2.4486,-2.4872,-2.4679,-2.3727,-2.2799,-2.229,-2.229,-2.1909,-2.1696,-2.1696,-2.1696,-2.1696,-2.1696,-2.1696,-2.183,-2.2097,-2.2185,-2.2451,-2.2803,-2.2882,-2.3013,-2.3091,-2.3091,-2.3091,-2.3091,-2.3091,-2.3091,-2.3198,-2.4102,-2.4414,-2.4541,0.0,0.0,-1.9663,-1.9747,-1.9836,-1.9841,-1.9841,-2.0144,-2.036,0.0,-2.0255,-2.0134,-1.9804,-1.9395,-1.912,-1.9064,-1.8567,-1.8129,-1.7837,-1.7692,-1.7098,-1.5941,-1.5758,-1.5326,-1.458,-1.4511,-1.442,-1.43,-1.427,-1.4176,-1.4,-1.3983,-1.3914,-1.381,-1.4844,-1.5292,-1.5331,-1.629,-1.7039,-1.7584,-1.7584,-1.816,-1.902,-1.9146,-1.9811,-2.0704,-2.0767,-2.1094,-2.1446,-2.0943,-2.0024,-1.9096,-1.9096,-1.8707,-1.8279,-1.8154,-1.7815,-1.7586,-1.8003,-1.7702,-1.7438,-1.8053,-1.8154,0.0,-1.9092,-1.9334,-1.9758,-2.0955,-2.1638,-2.2161,-2.2587,-2.3131,-2.3481,-2.3415,-2.3803,-2.4328,-2.4921,-2.4743,-2.4261,-2.3559,-2.3324,-2.2916,-2.222,-2.3124,-2.3825,-2.3869,-2.4625,-2.4947,-2.4575,-2.3727,-2.3226,-2.3096,-2.229,-2.182,-2.1696,-2.1696,-2.1696,-2.1696,-2.1696,-2.183,-2.2052,-2.222,-2.2485,-2.2759,-2.2925,-2.3047,-2.3091,-2.3091,-2.3091,-2.3091,-2.3091,-2.3091,-2.3198,-2.4102,-2.4414,-2.4541,-1.9871,-1.9841,-1.9841,-2.0133,-2.0185,-2.0168,-2.0065,-2.0574,-2.0691,-1.9977,-1.99,-1.9827,-1.9661,-1.9457,-1.9203,-1.8798,-1.8664,-1.8584,-1.8513,-1.7987,-1.7495,-1.7088,-1.609,-1.536,-1.4999,-1.4566,-1.4319,-1.43,-1.4144,-1.4049,-1.4,-1.3894,-1.3775,-1.3696,-1.4795,-1.5216,-1.5133,-1.6236,-1.7235,-1.8052,-1.8052,-1.843,-1.9096,-2.0012,-2.0503,-2.0754,-2.1194,-2.1393,-2.1468,-2.1395,-2.0577,-1.9648,-1.9648,-1.9296,-1.8669,-1.7802,-1.7777,-1.7978,-1.7639,-1.7124,-1.6914,-1.7953,-1.7865,0.0,-1.8308,-1.902,-1.9638,-1.9894,-2.0535,-2.0964,-2.0564,-2.1125,-2.1454,-2.099,-2.208,-2.335,-2.4304,-2.4626,-2.4682,-2.4526,-2.4454,-2.4381,-2.4225,-2.4269,-2.4499,-2.4877,-2.5031,-2.5063,-2.4986,-2.4503,-2.3877,-2.3139,-2.2921,-2.2457,-2.1696,-2.1696,-2.1696,-2.1696,-2.1696,-2.1741,-2.1785,-2.182,-2.2087,-2.2485,-2.252,-2.274,-2.3091,-2.3091,-2.3091,-2.3091,-2.3091,-2.3091,-2.3198,-2.4102,-2.4414,-2.4541,-1.925,-1.9128,-1.9053,-1.9217,-1.9277,-1.9379,-1.9612,-2.0049,-2.0391,-2.0491,-2.0494,-2.0414,-2.0216,-1.9809,-1.9375,-1.8945,-1.869,-1.8425,-1.8127,-1.7916,-1.7605,-1.7169,-1.6546,-1.5819,-1.5014,-1.4732,-1.4416,-1.4056,-1.3944,-1.3911,-1.3911,-1.3762,-1.3817,-1.4076,-1.4818,-1.5241,-1.5473,-1.657,-1.7483,-1.8204,-1.8204,-1.8857,-1.9911,-2.0478,-2.1031,-2.1518,-2.1794,-2.1895,-2.1895,-2.1895,-2.1343,-2.0589,-2.0339,-1.9861,-1.9233,-1.8442,-1.8003,-1.7739,-1.7473,-1.7184,-1.7011,-1.7265,-1.7375,0.0,0.0,-1.787,-1.814,-1.8611,-1.9012,-1.9277,-1.9177,-1.9651,-1.9935,-1.9563,-2.0907,-2.2182,-2.2725,-2.3576,-2.4247,-2.4507,-2.4472,-2.4507,-2.4766,-2.461,-2.4663,-2.5027,-2.5,-2.5223,-2.5777,-2.5155,-2.4672,-2.4447,-2.3996,-2.3367,-2.2422,-2.2413,-2.2157,-2.1696,-2.1696,-2.1696,-2.1696,-2.183,-2.2052,-2.2264,-2.2485,-2.275,-2.2969,-2.3057,-2.3091,-2.3091,-2.3091,-2.3091,-2.3198,-2.4102,-2.4414,-2.4541,-1.8562,-1.8445,-1.8366,-1.8411,-1.8554,-1.8798,-1.9202,-1.9639,-2.0234,-2.1109,-2.1122,-2.0924,-2.0635,-2.0025,-1.9481,-1.9055,-1.8677,-1.8213,-1.7625,-1.7799,-1.7653,-1.6994,-1.6873,-1.6286,-1.5207,-1.4955,-1.4558,-1.3961,-1.381,-1.3758,-1.3758,-1.3644,-1.3891,-1.4467,-1.4834,-1.5284,-1.5838,-1.6942,-1.7689,-1.8169,-1.8382,-1.9359,-2.0717,-2.093,-2.1606,-2.2468,-2.2694,-2.2769,-2.2769,-2.2769,-2.2435,-2.1882,-2.1345,-2.0752,-2.0137,-1.9371,-1.8543,-1.7825,-1.7624,-1.7561,-1.74,-1.6823,-1.7036,-1.7305,0.0,0.0,0.0,-1.7314,-1.7511,-1.7603,-1.7829,-1.8249,-1.8467,-1.8154,-1.9638,-2.0751,0.0,-2.192,0.0,-2.4086,-2.4068,-2.4177,-2.4696,-2.4647,-2.4689,-2.4863,-2.4978,-2.5439,-2.6424,-2.5784,-2.5554,-2.5861,-2.5115,-2.4221,-2.3096,-2.3096,-2.2624,-2.1696,-2.1856,-2.1945,-2.1989,-2.2397,-2.253,-2.2441,-2.2838,-2.2925,-2.2882,-2.3047,-2.3091,-2.3091,-2.3091,-2.3091,-2.3198,-2.4102,-2.4414,-2.4541,-1.8736,-1.885,-1.8907,-1.9221,-1.967,-1.987,-1.9517,-2.0387,-2.1162,-2.1362,-2.0871,-2.0346,-1.9956,-1.963,-1.9261,-1.8796,-1.8705,-1.8449,-1.7887,-1.7983,-1.7786,-1.7182,-1.6697,-1.6382,-1.6232,-1.5184,-1.4594,-1.4507,-1.3912,-1.3615,-1.3615,-1.356,-1.377,-1.4256,-1.4765,-1.5257,-1.5789,-1.692,-1.7643,-1.8124,-1.907,-1.9945,0.0,-2.1757,-2.2481,-2.3145,-2.4148,-2.4512,-2.4512,-2.4512,-2.4167,-2.3615,-2.3007,-2.2443,-2.1719,-2.0162,-1.9623,-1.9321,-1.8367,-1.8116,-1.7978,-1.7413,-1.736,-1.716,-1.6183,0.0,-1.649,-1.6184,0.0,-1.6506,-1.6011,0.0,0.0,-1.5757,-1.7602,0.0,-1.7884,-1.959,-2.1662,-2.3628,-2.3824,-2.4028,-2.4498,-2.4837,-2.4969,-2.4836,-2.521,-2.5702,-2.6276,-2.6433,-2.6416,-2.6163,-2.583,-2.4851,-2.3139,-2.3096,-2.2624,-2.1687,-2.2545,-2.2921,-2.2974,-2.3844,-2.4016,-2.3627,-2.3671,-2.3464,-2.3057,-2.3101,-2.3091,-2.3091,-2.3091,-2.3091,-2.3198,-2.4102,-2.4414,-2.4541,-1.822,-1.8193,-1.8133,-1.8271,-1.8685,-1.9022,-1.9128,-2.0703,-2.1786,-2.1512,-2.1757,-2.1911,-2.1736,-2.127,-2.0749,-2.0208,-1.9794,-1.9192,-1.8305,-1.808,-1.787,-1.7622,-1.7118,-1.6715,-1.6402,-1.5821,-1.5367,-1.5011,-1.4338,-1.4182,-1.4534,-1.4098,-1.4345,-1.5139,-1.532,-1.5844,-1.6626,-1.7422,-1.8151,-1.8906,-1.9966,-2.0785,0.0,-2.2191,-2.2991,-2.3808,-2.4265,-2.4439,-2.4439,0.0,-2.4387,-2.4178,-2.3524,-2.3219,-2.2862,-2.1515,-2.0892,-2.0393,-1.9409,-1.8833,-1.8434,-1.7967,-1.7537,-1.7133,-1.6774,-1.615,-1.5616,-1.5424,0.0,0.0,0.0,0.0,0.0,0.0,-1.622,0.0,0.0,0.0,-2.0293,0.0,0.0,0.0,-2.4285,-2.4527,-2.4696,-2.4814,-2.4989,-2.5318,-2.5824,-2.6123,-2.6362,-2.6496,-2.6587,-2.5757,-2.392,-2.4425,-2.3651,-2.1741,-2.3193,-2.3617,-2.3096,-2.3487,-2.3574,-2.34,-2.3115,-2.2862,-2.2696,-2.3003,-2.3091,-2.3091,-2.3091,-2.3091,-2.3198,-2.4102,-2.4414,-2.4541,-1.7645,-1.7652,-1.7578,-1.7578,-1.8092,-1.8715,-1.93,-2.093,-2.1937,-2.1511,-2.226,-2.2804,-2.2778,-2.2307,-2.1794,-2.1375,-2.0746,-1.9965,-1.8996,-1.8524,-1.8164,-1.7854,-1.7506,-1.7081,-1.6543,-1.6281,-1.5937,-1.5486,-1.4832,-1.4718,-1.5127,-1.4631,-1.4891,-1.5774,-1.5673,-1.6227,-1.7221,-1.7742,-1.8474,-1.944,-2.0517,-2.1516,-2.2402,-2.2886,-2.3641,-2.4476,-2.4623,-2.4672,-2.4672,-2.4672,-2.4751,-2.4764,-2.4136,-2.4028,-2.3832,0.0,0.0,0.0,-2.0457,-1.9844,-1.928,-1.8598,-1.8018,-1.7486,-1.6981,-1.5993,-1.5112,-1.486,-1.4552,0.0,0.0,0.0,0.0,0.0,0.0,-1.6315,0.0,-1.785,0.0,0.0,0.0,0.0,0.0,-2.412,-2.4456,-2.472,-2.4838,-2.5146,-2.5642,-2.5831,-2.622,-2.6783,-2.6978,-2.6352,-2.4872,-2.5242,-2.4425,-2.2467,-2.3854,-2.4274,-2.3867,-2.4125,-2.3963,-2.3531,-2.3202,-2.2862,-2.253,-2.2882,-2.3047,-2.3091,-2.3091,-2.3091,-2.3198,-2.4102,-2.4414,-2.4541,-1.722,-1.7537,-1.7787,-1.7787,-1.8768,-1.9798,-2.0526,-2.1145,-2.1459,-2.1341,-2.178,-2.2074,-2.195,-2.1786,-2.1718,-2.1708,-2.1183,-2.0599,-2.0003,-1.9582,-1.8849,-1.7737,-1.7696,-1.7427,-1.6897,-1.6304,-1.6002,-1.5977,-1.5311,-1.4987,-1.4999,-1.4929,-1.516,-1.5693,-1.5562,-1.6154,-1.7233,-1.7636,-1.8338,-1.9293,-2.0362,-2.1989,-2.3755,0.0,-2.4595,-2.5148,-2.5664,0.0,0.0,-2.5861,-2.5849,-2.5763,-2.5222,0.0,0.0,0.0,0.0,0.0,-2.1407,-2.1154,-2.0798,-1.9337,-1.8965,-1.8374,-1.6243,-1.5716,-1.5422,-1.4522,0.0,0.0,0.0,0.0,0.0,0.0,0.0,0.0,0.0,0.0,0.0,0.0,0.0,0.0,0.0,-2.3628,-2.4496,0.0,-2.4988,-2.5505,-2.6033,-2.5922,-2.6198,-2.7042,-2.6869,-2.6399,-2.5777,-2.4956,-2.4498,-2.4413,-2.4456,-2.4914,-2.5735,-2.6663,-2.6196,-2.4744,-2.4744,-2.3983,-2.2803,-2.2803,-2.2925,-2.3091,-2.3091,-2.3091,-2.3198,-2.4102,-2.4414,-2.4541,-1.7094,-1.7178,-1.7303,-1.7393,-1.8358,-1.9574,-2.0887,-2.1549,-2.1974,-2.2251,-2.2763,-2.3093,-2.3036,-2.2919,-2.2667,-2.2341,-2.2024,-2.1587,-2.102,-2.056,-2.0004,-1.9254,-1.8982,-1.839,-1.7452,-1.7148,-1.6816,-1.646,-1.5795,-1.5646,-1.5986,-1.5613,-1.5685,-1.6161,-1.6131,-1.6621,-1.7482,-1.7605,-1.8625,-2.025,0.0,-2.2874,-2.3842,0.0,-2.4762,-2.5258,-2.5428,-2.5488,0.0,-2.5488,-2.5571,-2.5591,-2.4905,-2.5059,-2.5164,-2.3908,-2.3786,-2.3782,-2.2493,-2.207,-2.1753,-2.072,-1.978,-1.8897,-1.8034,-1.6956,-1.6092,-1.5817,0.0,0.0,0.0,0.0,0.0,0.0,0.0,0.0,0.0,0.0,0.0,0.0,0.0,0.0,0.0,0.0,0.0,0.0,-2.4687,0.0,-2.554,-2.5707,-2.5929,-2.621,-2.6523,-2.6308,-2.5535,-2.6041,-2.5695,-2.4498,-2.5695,-2.6102,-2.5819,-2.6133,-2.5966,-2.5411,-2.452,-2.3887,-2.342,-2.3135,-2.3057,-2.3091,-2.3091,-2.3091,-2.3169,-2.3789,-2.418,-2.4541,-1.702,-1.7127,-1.7278,-1.7363,-1.8319,-1.9566,-2.1004,-2.1673,-2.2185,-2.2636,-2.3182,-2.3586,-2.373,-2.3664,-2.3465,-2.3141,-2.2783,-2.2447,-2.2096,-2.1423,-2.081,-2.0254,-1.9788,-1.9013,-1.7895,-1.7609,-1.7298,-1.6957,-1.6313,-1.617,-1.6488,-1.6115,-1.6119,-1.6392,-1.6306,-1.6767,-1.7606,-1.7763,-1.8897,0.0,0.0,-2.3568,0.0,0.0,-2.5011,-2.5312,0.0,-2.5312,-2.5312,-2.5312,-2.5382,-2.5405,-2.4938,-2.5105,-2.5319,-2.4447,-2.4435,-2.4468,-2.3404,-2.3042,-2.2724,-2.1689,-2.0581,-1.9625,-1.9229,-1.8082,-1.7169,-1.7291,0.0,0.0,0.0,0.0,0.0,0.0,0.0,0.0,0.0,-1.6571,0.0,0.0,0.0,0.0,0.0,0.0,0.0,0.0,0.0,0.0,0.0,-2.5493,-2.5671,-2.58,-2.6365,-2.6452,-2.6,-2.6619,-2.6528,-2.5726,-2.6498,-2.6693,-2.6412,-2.634,-2.6133,-2.5735,-2.4648,-2.4016,-2.3757,-2.3222,-2.3057,-2.3091,-2.3091,-2.3091,-2.3149,-2.3633,-2.415,-2.4746,-1.7119,-1.7443,-1.7792,-1.7792,-1.8697,-1.9823,-2.095,-2.1577,-2.2071,-2.2512,-2.3069,-2.3596,-2.3979,-2.4042,-2.4042,-2.4042,-2.3509,-2.317,-2.3145,-2.2196,-2.1383,-2.0792,-2.0188,-1.9384,-1.8304,-1.7714,-1.7436,-1.741,-1.681,-1.65,-1.65,-1.6436,-1.6392,-1.6371,-1.6134,-1.6645,-1.7654,-1.8075,-1.9191,-2.0846,-2.2975,-2.4073,-2.4578,-2.5107,-2.5312,-2.5312,-2.5312,-2.5312,-2.5312,-2.5312,-2.5312,-2.5312,-2.5312,-2.5312,-2.5204,-2.4676,-2.452,-2.4446,-2.4129,-2.4016,-2.3696,-2.2254,-2.1371,-2.059,-1.9798,-1.9074,-1.863,-1.8828,0.0,0.0,0.0,0.0,0.0,0.0,0.0,0.0,0.0,0.0,0.0,0.0,0.0,0.0,0.0,0.0,0.0,0.0,0.0,0.0,0.0,-2.53,-2.5445,-2.5777,-2.6312,-2.6721,-2.707,-2.6713,-2.6976,-2.7893,-2.6787,-2.6693,-2.7482,-2.7301,-2.6704,-2.5819,-2.5126,-2.4445,-2.38,-2.3091,-2.2925,-2.3091,-2.3091,-2.3091,-2.3149,-2.3652,-2.4336,-2.5155,-1.8643,-1.8953,-1.9245,-1.9245,-1.9673,-2.0348,-2.1377,-2.2013,-2.2638,-2.3487,-2.3752,-2.4023,-2.4556,-2.4575,-2.4575,-2.4575,-2.4449,-2.4186,-2.3803,-2.3514,-2.2912,-2.1933,-2.1355,-2.0539,-1.9409,-1.848,-1.779,-1.741,-1.681,-1.65,-1.65,-1.6436,-1.6362,-1.6256,-1.6481,-1.7145,-1.8087,-1.8592,-1.9949,-2.1909,-2.3264,-2.4073,-2.4578,0.0,-2.5312,-2.5312,-2.5312,-2.5312,-2.5312,-2.5312,-2.5312,-2.5312,-2.5312,-2.5312,-2.5288,-2.5143,-2.5107,-2.4987,-2.4492,-2.436,-2.4225,-2.3594,-2.2923,-2.2215,-2.1381,-2.0275,-1.9464,-1.9703,0.0,0.0,0.0,0.0,0.0,0.0,0.0,0.0,0.0,0.0,0.0,0.0,0.0,0.0,0.0,0.0,0.0,0.0,0.0,0.0,0.0,0.0,-2.5336,-2.5445,-2.579,-2.6251,-2.6709,-2.6866,-2.7162,-2.7615,-2.7319,-2.7267,-2.7482,-2.7301,-2.7167,-2.701,-2.5684,-2.502,-2.4765,-2.3527,-2.3047,-2.3091,-2.3091,-2.3091,-2.3188,-2.3975,-2.4394,-2.4697,-1.8827,-1.9321,-1.9874,-2.0137,-2.0723,-2.1308,-2.1885,-2.2425,-2.3077,-2.3879,-2.4205,-2.4556,-2.5096,-2.5159,-2.5159,-2.5159,-2.5159,-2.5021,-2.472,-2.4481,-2.3966,-2.3088,-2.251,-2.1681,-2.0564,-1.9459,-1.8607,-1.802,-1.7207,-1.6651,-1.6383,-1.6262,-1.6175,-1.6125,-1.6537,-1.7279,-1.8301,-1.9768,-2.1386,-2.2955,-2.3773,-2.441,0.0,-2.5204,-2.5456,-2.5661,-2.5661,-2.5661,-2.5697,-2.5937,-2.5853,-2.5661,-2.5661,-2.5492,-2.5312,-2.5312,-2.5312,-2.524,-2.4939,-2.4611,-2.4306,-2.4251,-2.344,-2.2719,-2.2769,-2.192,-2.1202,-2.1417,-2.0526,-1.9895,0.0,0.0,0.0,0.0,0.0,0.0,0.0,0.0,0.0,0.0,0.0,0.0,0.0,0.0,0.0,0.0,0.0,0.0,0.0,0.0,-2.5071,-2.53,-2.5721,-2.6185,-2.6735,-2.7156,-2.7561,-2.7926,-2.7846,-2.7805,-2.7805,-2.7586,-2.7505,-2.7389,-2.5883,-2.5179,-2.5062,-2.357,-2.3013,-2.3091,-2.3091,-2.3091,-2.3179,-2.3896,-2.4258,-2.4512,-1.8844,-1.9497,-2.0313,-2.0918,-2.1782,-2.2472,-2.2594,-2.2957,-2.3446,-2.4098,-2.4568,-2.5056,-2.5582,-2.5645,-2.5645,-2.5645,-2.5678,-2.5653,-2.5578,-2.5139,-2.4682,-2.413,-2.3446,-2.2656,-2.1732,-2.0526,-1.9597,-1.8896,-1.7901,-1.7062,-1.6409,-1.6286,-1.6207,-1.6232,-1.664,-1.7435,-1.8686,-2.1223,-2.2891,-2.3842,-2.4314,-2.4831,-2.5312,-2.5312,-2.5636,-2.6105,-2.6178,-2.6202,-2.6286,-2.6729,-2.661,-2.619,-2.6117,-2.5781,-2.5396,-2.5336,-2.5312,-2.5312,-2.5312,-2.4791,-2.4304,-2.455,-2.3653,-2.2941,-2.3853,-2.3566,-2.311,-2.3268,-2.2912,-2.242,-2.1837,0.0,0.0,0.0,0.0,0.0,0.0,0.0,0.0,0.0,0.0,0.0,0.0,0.0,0.0,0.0,0.0,0.0,0.0,0.0,-2.4771,-2.5288,-2.5757,-2.6298,-2.6885,-2.7354,-2.7882,-2.8471,-2.8299,-2.8219,-2.8179,-2.8002,-2.7788,-2.7482,-2.6038,-2.5379,-2.5232,-2.3657,-2.3047,-2.3091,-2.3091,-2.3091,-2.314,-2.3564,-2.4004,-2.4482,-2.1606,-2.1744,-2.2017,-2.2581,-2.2832,-2.3283,-2.4211,-2.4079,-2.4142,-2.4979,-2.5157,-2.5351,-2.5805,-2.5867,-2.5867,-2.5867,-2.6017,-2.5887,-2.5381,-2.5411,-2.5222,-2.4662,-2.3659,-2.3007,-2.2819,-2.1305,-2.0185,-1.9467,-1.8834,-1.8165,-1.7528,-1.7385,-1.7326,-1.7351,-1.775,-1.877,-2.031,-2.2089,-2.3228,-2.3842,-2.4314,-2.4831,-2.5312,-2.5312,-2.5636,-2.6154,-2.6585,-2.6753,-2.6765,-2.6861,-2.6825,-2.6669,-2.6238,-2.6033,-2.5877,-2.5432,-2.5312,-2.5312,-2.5312,-2.5194,-2.5099,-2.5156,-2.4956,-2.4708,-2.4472,-2.3883,-2.3467,-2.3658,-2.3157,-2.2594,-2.2302,0.0,0.0,0.0,0.0,0.0,0.0,0.0,0.0,0.0,0.0,0.0,0.0,0.0,0.0,0.0,0.0,0.0,0.0,0.0,-2.4771,0.0,-2.5396,-2.5925,0.0,0.0,-2.7433,-2.8259,-2.8219,-2.8219,-2.8179,-2.8002,-2.7881,-2.7788,-2.6917,-2.6412,-2.6155,-2.4787,-2.3777,-2.3091,-2.3091,-2.3091,-2.311,-2.3179,-2.3695,-2.4482,-2.2259,-2.2506,-2.2895,-2.3489,-2.3797,-2.423,-2.4945,-2.4845,-2.4838,-2.5261,-2.5469,-2.5783,-2.6267,-2.6328,-2.6439,-2.6721,-2.6818,-2.6632,-2.6064,-2.6131,-2.5806,-2.4988,-2.4429,-2.3883,-2.3313,-2.2246,-2.1193,-2.0229,-1.9406,-1.8655,-1.7994,-1.7654,-1.7497,-1.7545,-1.8568,-1.9913,-2.1524,-2.2867,-2.3688,-2.4206,-2.4723,-2.5083,-2.5336,-2.5612,-2.6057,-2.6598,-2.7114,-2.7474,-2.7714,-2.7714,-2.7534,-2.7258,-2.7019,-2.655,-2.6045,-2.5793,-2.5218,-2.4779,-2.5194,-2.442,-2.3793,-2.5016,-2.4683,-2.4254,-2.48,-2.4671,-2.4284,-2.3708,-2.3625,-2.3558,-2.3297,-2.2299,0.0,0.0,0.0,0.0,0.0,0.0,0.0,0.0,0.0,0.0,0.0,0.0,0.0,0.0,0.0,0.0,0.0,0.0,-2.4494,0.0,0.0,0.0,-2.649,0.0,-2.7244,-2.7932,-2.8207,-2.8351,-2.8339,-2.8283,-2.8151,-2.799,-2.708,-2.6659,-2.6547,-2.5084,-2.395,-2.3091,-2.3091,-2.3091,-2.3091,-2.3091,-2.3637,-2.4443,-2.2689,-2.3097,-2.3573,-2.416,-2.4578,-2.5025,-2.5537,-2.5568,-2.5521,-2.5521,-2.58,-2.6173,-2.6687,-2.6736,-2.6907,-2.7335,-2.7409,-2.7262,-2.6833,-2.6735,-2.6328,-2.548,-2.5222,-2.4706,-2.3858,-2.3249,-2.2347,-2.1139,-2.0289,-1.9373,-1.8374,-1.8181,-1.8072,-1.8157,-1.9636,-2.0995,-2.227,-2.3469,-2.4157,-2.4532,-2.5095,-2.5312,-2.536,-2.5889,-2.6442,-2.697,-2.7498,-2.8026,-2.851,-2.851,-2.8234,-2.7834,-2.7753,-2.7128,-2.6418,-2.631,-2.532,-2.4426,-2.5027,-2.3652,-2.2537,-2.4528,-2.4131,-2.3537,-2.4755,-2.504,-2.4708,-2.3555,-2.3676,-2.3929,-2.3663,-2.2643,0.0,0.0,0.0,0.0,0.0,0.0,0.0,0.0,0.0,0.0,0.0,0.0,0.0,0.0,0.0,0.0,0.0,0.0,0.0,0.0,0.0,-2.5564,-2.6093,0.0,-2.7162,-2.769,-2.8258,-2.851,-2.851,-2.851,-2.8379,-2.8127,-2.7284,-2.6823,-2.6483,-2.5284,-2.4112,-2.3091,-2.3091,-2.3091,-2.3091,-2.3091,-2.3578,-2.4297,-2.4332,-2.4318,-2.4496,-2.492,-2.5034,-2.5404,-2.6402,-2.6406,-2.6298,-2.6298,-2.6335,-2.6506,-2.684,-2.69,-2.6913,-2.6961,-2.7099,-2.7224,-2.7175,-2.687,-2.6672,-2.6562,-2.5628,-2.505,-2.4952,-2.4366,-2.346,-2.2244,-2.2147,-2.1008,-1.8939,-1.9877,-2.0293,-2.0341,-2.1464,-2.2053,-2.2294,-2.3809,-2.447,-2.4532,-2.5095,-2.5312,-2.536,-2.5889,-2.6442,-2.697,-2.7498,-2.8026,-2.851,-2.851,-2.8474,-2.8354,-2.7834,-2.7618,-2.7438,-2.6958,-2.5873,-2.4834,-2.4909,-2.3947,-2.3095,-2.4,-2.4108,-2.4036,-2.4192,-2.4228,-2.4,-2.3187,-2.2724,-2.2405,-2.2361,-2.1883,-2.1692,0.0,0.0,0.0,0.0,0.0,0.0,0.0,0.0,0.0,0.0,0.0,0.0,0.0,0.0,0.0,0.0,0.0,0.0,-2.5288,-2.5312,-2.5564,-2.6093,-2.6609,-2.7162,-2.769,-2.8258,-2.851,-2.851,-2.851,-2.8379,-2.8219,-2.8299,-2.7377,-2.5861,-2.5735,-2.4648,-2.3091,-2.3091,-2.3091,-2.3091,-2.3091,-2.3437,-2.3906,-2.4805,-2.4867,-2.5117,-2.591,-2.607,-2.628,-2.6883,-2.6919,-2.6967,-2.7144,-2.6915,-2.689,-2.7344,-2.7366,-2.7498,-2.781,-2.7912,-2.7845,-2.7531,-2.7351,-2.7015,-2.636,-2.5923,-2.539,-2.4747,-2.4483,-2.4023,-2.3232,-2.2592,-2.1813,-2.0911,-2.1031,-2.1428,-2.2053,-2.2474,-2.3015,-2.3628,-2.4254,-2.4699,-2.5011,-2.5216,-2.5492,-2.5841,-2.6394,-2.6898,-2.7438,-2.8005,-2.833,-2.851,-2.851,-2.851,-2.8474,-2.8258,-2.7605,-2.6878,-2.6667,-2.5284,-2.3909,-2.4365,-2.3601,-2.2938,-2.4197,-2.4301,-2.4108,-2.4108,-2.4108,-2.3745,-2.2537,-2.1724,-2.1524,-2.249,-2.2108,-2.1638,-2.1675,0.0,0.0,0.0,0.0,0.0,0.0,0.0,0.0,0.0,0.0,0.0,0.0,0.0,0.0,0.0,0.0,0.0,-2.53,0.0,-2.5733,-2.5624,-2.6453,-2.7006,-2.7222,-2.8114,-2.851,-2.851,-2.851,-2.8379,-2.8219,-2.8431,-2.7701,-2.6359,-2.5986,-2.5073,-2.3864,-2.3309,-2.3091,-2.3091,-2.3091,-2.3418,-2.3857,-2.5656,-2.5707,-2.594,-2.6639,-2.6773,-2.6871,-2.7294,-2.7329,-2.7484,-2.7885,-2.7594,-2.7498,-2.787,-2.7957,-2.8102,-2.8474,-2.851,-2.8354,-2.7942,-2.7774,-2.7342,-2.661,-2.643,-2.5913,-2.4999,-2.4987,-2.465,-2.4023,-2.3244,-2.2642,-2.2185,-2.1813,-2.2197,-2.3252,-2.3364,-2.3833,-2.4496,-2.4687,-2.4963,-2.5312,-2.5312,-2.5624,-2.6154,-2.6681,-2.7222,-2.775,-2.8318,-2.851,-2.851,-2.851,-2.851,-2.851,-2.851,-2.781,-2.7016,-2.7016,-2.5443,-2.3826,-2.4338,-2.3597,-2.2972,-2.4347,-2.4494,-2.4265,-2.4033,-2.3895,-2.3342,-2.1756,-2.1021,-2.0944,-2.2096,-2.1832,-2.1435,-2.1321,0.0,0.0,0.0,-2.1039,0.0,0.0,-2.2032,-2.2298,-2.3661,0.0,0.0,0.0,0.0,0.0,0.0,0.0,0.0,0.0,0.0,0.0,-2.5312,-2.6357,-2.6898,-2.691,-2.8005,-2.851,-2.851,-2.851,-2.8379,-2.8219,-2.8431,-2.7713,-2.64,-2.5986,-2.5115,-2.4026,-2.3353,-2.3091,-2.3091,-2.3091,-2.3286,-2.3672,-2.7211,-2.7174,-2.7112,-2.6911,-2.6885,-2.7066,-2.7594,-2.7705,-2.7909,-2.8426,-2.8498,-2.8498,-2.8498,-2.8498,-2.8498,-2.851,-2.851,-2.851,-2.8498,-2.7978,-2.7678,-2.7666,-2.7162,-2.6621,-2.6093,-2.6081,-2.5564,-2.4472,-2.446,-2.3701,-2.2197,-2.2185,-2.2751,-2.3818,-2.4278,-2.4506,-2.452,-2.5083,-2.53,-2.5312,-2.5312,-2.5624,-2.6154,-2.6681,-2.7222,-2.775,-2.8318,-2.851,-2.851,-2.851,-2.851,-2.851,-2.851,-2.851,-2.8459,-2.8459,-2.6887,-2.5161,-2.5201,-2.4207,-2.3374,-2.4201,-2.4635,-2.4668,-2.3901,-2.336,-2.2547,-2.0944,-2.0605,-2.0605,-2.0644,-2.0605,-2.0857,-2.168,-2.1116,0.0,0.0,-2.1325,0.0,-2.2118,-2.2418,-2.2899,-2.3727,0.0,0.0,0.0,0.0,0.0,0.0,0.0,0.0,-2.5312,-2.5312,0.0,-2.5312,-2.6357,-2.6898,-2.691,-2.8005,-2.851,-2.851,-2.851,-2.8379,-2.8219,-2.8431,-2.7377,-2.5526,-2.5735,-2.4734,-2.3135,-2.3091,-2.3091,-2.3091,-2.3091,-2.3101,-2.3218,-2.6998,-2.6998,-2.7081,-2.7404,-2.7438,-2.7618,-2.8174,-2.8258,-2.8318,-2.8486,-2.851,-2.851,-2.851,-2.851,-2.851,-2.851,-2.851,-2.851,-2.851,-2.8354,-2.8102,-2.7702,-2.7522,-2.7186,-2.6683,-2.6298,-2.5925,-2.5588,-2.4879,-2.4266,-2.3785,-2.3785,-2.4157,-2.4819,-2.4987,-2.5059,-2.5071,-2.524,-2.5516,-2.5841,-2.5841,-2.6394,-2.7224,-2.7366,-2.7762,-2.8282,-2.845,-2.851,-2.851,-2.851,-2.851,-2.851,-2.851,-2.8099,-2.751,-2.6835,-2.5721,-2.4735,-2.4735,-2.4563,-2.4649,-2.5542,-2.6039,-2.5884,-2.452,-2.2916,-2.1547,-2.0781,-2.0605,-2.0605,-2.0605,-2.0605,-2.0673,-2.0944,-2.075,-2.0683,-2.0944,0.0,-2.103,-2.1838,-2.1526,-2.1987,0.0,-2.3554,0.0,0.0,0.0,0.0,0.0,0.0,0.0,0.0,-2.5841,0.0,-2.5312,-2.6357,-2.6898,-2.691,-2.8005,-2.851,-2.851,-2.8339,-2.8259,-2.8219,-2.8259,-2.758,-2.6359,-2.5944,-2.5115,-2.3983,-2.3353,-2.3091,-2.3091,-2.3091,-2.3091,-2.3218,-2.7486,-2.7486,-2.7594,-2.7957,-2.7978,-2.8086,-2.8462,-2.851,-2.851,-2.851,-2.851,-2.851,-2.851,-2.851,-2.851,-2.851,-2.851,-2.851,-2.851,-2.851,-2.8366,-2.8029,-2.7978,-2.7726,-2.7198,-2.6887,-2.661,-2.6406,-2.554,-2.5011,-2.4784,-2.4784,-2.4987,-2.5312,-2.5312,-2.542,-2.5612,-2.5612,-2.5913,-2.6406,-2.6406,-2.6935,-2.7678,-2.7678,-2.8014,-2.851,-2.851,-2.851,-2.851,-2.851,-2.851,-2.851,-2.851,-2.7886,-2.7092,-2.6505,-2.5704,-2.4999,-2.4999,-2.5154,-2.5546,-2.6462,-2.6702,-2.6233,-2.4335,-2.2655,-2.1348,-2.0908,-2.082,-2.0762,-2.0635,-2.0867,-2.0944,-2.0644,-2.1126,-2.1385,-2.1088,-2.1318,-2.1794,0.0,0.0,0.0,0.0,-2.412,-2.4276,0.0,0.0,0.0,0.0,0.0,-2.5793,-2.5793,-2.5793,-2.5733,-2.5612,-2.6453,-2.6994,-2.7198,-2.8102,-2.851,-2.851,-2.8391,-2.8219,-2.8111,-2.8259,-2.751,-2.6163,-2.5913,-2.5073,-2.3907,-2.3353,-2.3091,-2.3091,-2.3091,-2.3091,-2.3218,-2.851,-2.851,-2.851,-2.851,-2.851,-2.851,-2.851,-2.851,-2.851,-2.851,-2.851,-2.851,-2.851,-2.851,-2.851,-2.851,-2.851,-2.851,-2.851,-2.851,-2.851,-2.851,-2.851,-2.8282,-2.7789,-2.7702,-2.7426,-2.6898,-2.6406,-2.5901,-2.542,-2.542,-2.542,-2.542,-2.542,-2.5697,-2.6154,-2.6154,-2.6478,-2.6958,-2.6958,-2.727,-2.7777,-2.7777,-2.8089,-2.851,-2.851,-2.851,-2.851,-2.851,-2.851,-2.851,-2.851,-2.7926,-2.7267,-2.7226,-2.6547,-2.5819,-2.5872,-2.5913,-2.6121,-2.7051,-2.6829,-2.5779,-2.3622,-2.2532,-2.1807,-2.1327,-2.122,-2.1103,-2.0723,-2.1262,-2.1538,-2.0828,-2.1983,-2.2734,-2.1983,-2.2547,-2.3243,-2.3927,0.0,0.0,-2.5123,-2.5241,-2.5229,0.0,0.0,0.0,0.0,0.0,-2.5324,-2.536,-2.5324,-2.5564,-2.6093,-2.6609,-2.7186,-2.775,-2.827,-2.851,-2.851,-2.8471,-2.8271,-2.7921,-2.8231,-2.7185,-2.5242,-2.5579,-2.4691,-2.3091,-2.3091,-2.3091,-2.3091,-2.3091,-2.3101,-2.3218,-2.851,-2.851,-2.851,-2.851,-2.851,-2.851,-2.851,-2.851,-2.851,-2.851,-2.851,-2.851,-2.851,-2.851,-2.851,-2.851,-2.851,-2.851,-2.851,-2.851,-2.851,-2.851,-2.851,-2.845,-2.833,-2.7933,-2.7426,-2.6898,-2.6765,-2.6633,-2.6513,-2.6513,-2.6513,-2.6513,-2.6513,-2.6585,-2.6693,-2.6693,-2.7006,-2.7498,-2.7498,-2.7849,-2.8318,-2.8318,-2.8402,-2.851,-2.851,-2.851,-2.851,-2.851,-2.851,-2.851,-2.851,-2.8351,-2.8047,-2.7389,-2.6547,-2.5955,-2.667,-2.6887,-2.7092,-2.7966,-2.7041,-2.5535,-2.4001,-2.2964,-2.2246,-2.1816,-2.1465,-2.1161,-2.1094,-2.1474,-2.1728,-2.1538,-2.236,-2.2909,-2.2734,-2.2883,-2.3058,-2.3243,-2.3243,-2.3573,-2.4301,-2.4373,-2.4636,0.0,0.0,-2.536,-2.5492,-2.5384,-2.5492,-2.5901,-2.5516,-2.5564,-2.6093,-2.6609,-2.7366,-2.833,-2.845,-2.851,-2.851,-2.8339,-2.8151,-2.7881,-2.7418,-2.6423,-2.52,-2.4925,-2.4112,-2.3091,-2.3091,-2.3091,-2.3091,-2.3091,-2.3013,-2.3007,-2.851,-2.851,-2.851,-2.851,-2.851,-2.851,-2.851,-2.851,-2.851,-2.851,-2.851,-2.851,-2.851,-2.851,-2.851,-2.851,-2.851,-2.851,-2.851,-2.851,-2.851,-2.851,-2.851,-2.851,-2.851,-2.8222,-2.7786,-2.7258,-2.7258,-2.7138,-2.6898,-2.6898,-2.6898,-2.6898,-2.6898,-2.703,-2.7258,-2.7258,-2.7596,-2.8089,-2.8089,-2.8258,-2.851,-2.851,-2.851,-2.851,-2.851,-2.851,-2.851,-2.851,-2.851,-2.851,-2.851,-2.8219,-2.7886,-2.7805,-2.7133,-2.6547,-2.7051,-2.7185,-2.7226,-2.7255,-2.6535,-2.5377,-2.3839,-2.3127,-2.2676,-2.2256,-2.1982,-2.1658,-2.1268,-2.199,-2.2425,-2.1873,-2.2761,-2.339,-2.3069,-2.2995,-2.2995,-2.2995,-2.3316,-2.3647,-2.4047,-2.4409,-2.4826,-2.5276,-2.5312,0.0,-2.5312,-2.5312,-2.5444,-2.5733,-2.5697,-2.5925,-2.6478,-2.7222,-2.7906,-2.851,-2.851,-2.851,-2.851,-2.8299,-2.8111,-2.7881,-2.7592,-2.6588,-2.52,-2.5126,-2.4317,-2.3091,-2.3091,-2.3091,-2.3101,-2.3013,-2.2969,-2.3051,-2.851,-2.851,-2.851,-2.851,-2.851,-2.851,-2.851,-2.851,-2.851,-2.851,-2.851,-2.851,-2.851,-2.851,-2.851,-2.851,-2.851,-2.851,-2.851,-2.851,-2.851,-2.851,-2.851,-2.851,-2.851,-2.851,-2.8294,-2.7798,-2.7798,-2.757,-2.7138,-2.7138,-2.7138,-2.7138,-2.7138,-2.7378,-2.7798,-2.7798,-2.8102,-2.851,-2.851,-2.851,-2.851,-2.851,-2.851,-2.851,-2.851,-2.851,-2.851,-2.851,-2.851,-2.851,-2.851,-2.8007,-2.7551,-2.8259,-2.7966,-2.7389,-2.7389,-2.7307,-2.6969,-2.6038,-2.5704,-2.5158,-2.3474,-2.3091,-2.2994,-2.2643,-2.2559,-2.2295,-2.1522,-2.2575,-2.3206,-2.215,-2.3137,-2.3796,-2.3178,-2.3038,-2.2995,-2.2995,-2.3537,-2.3927,-2.3927,-2.4564,-2.4933,-2.4933,-2.4933,-2.4933,-2.4933,-2.5123,-2.5242,-2.5242,-2.5793,-2.6406,-2.7006,-2.7978,-2.851,-2.851,-2.851,-2.851,-2.851,-2.8299,-2.8111,-2.7893,-2.7805,-2.6805,-2.52,-2.5326,-2.4488,-2.3091,-2.3091,-2.3091,-2.3101,-2.2882,-2.2882,-2.3086,-2.851,-2.851,-2.851,-2.851,-2.851,-2.851,-2.851,-2.851,-2.851,-2.851,-2.851,-2.851,-2.851,-2.851,-2.851,-2.851,-2.851,-2.851,-2.851,-2.851,-2.851,-2.851,-2.851,-2.851,-2.851,-2.851,-2.8474,-2.839,-2.839,-2.8342,-2.827,-2.827,-2.827,-2.827,-2.827,-2.8318,-2.839,-2.839,-2.8426,-2.851,-2.851,-2.851,-2.851,-2.851,-2.851,-2.851,-2.851,-2.851,-2.851,-2.851,-2.851,-2.851,-2.851,-2.8431,-2.8299,-2.8471,-2.8391,-2.8299,-2.8299,-2.7765,-2.6969,-2.6038,-2.5242,-2.4402,-2.3343,-2.3091,-2.3081,-2.3013,-2.2754,-2.2471,-2.2334,-2.2787,-2.3109,-2.2916,-2.3349,-2.3656,-2.3504,-2.322,-2.2995,-2.2995,-2.3106,-2.318,-2.318,-2.3279,-2.3364,-2.3364,-2.3364,-2.3364,-2.3364,-2.4374,-2.4974,-2.4974,-2.5705,-2.6586,-2.7546,-2.821,-2.851,-2.851,-2.851,-2.851,-2.851,-2.8299,-2.8111,-2.7852,-2.6517,-2.5631,-2.5105,-2.3993,-2.3343,-2.3091,-2.3091,-2.3091,-2.3101,-2.2882,-2.2662,-2.2644,-2.851,-2.851,-2.851,-2.851,-2.851,-2.851,-2.851,-2.851,-2.851,-2.851,-2.851,-2.851,-2.851,-2.851,-2.851,-2.851,-2.851,-2.851,-2.851,-2.851,-2.851,-2.851,-2.851,-2.851,-2.851,-2.851,-2.851,-2.851,-2.851,-2.851,-2.851,-2.851,-2.851,-2.851,-2.851,-2.851,-2.851,-2.851,-2.851,-2.851,-2.851,-2.851,-2.851,-2.851,-2.851,-2.851,-2.851,-2.851,-2.851,-2.851,-2.851,-2.851,-2.851,-2.851,-2.851,-2.851,-2.851,-2.851,-2.851,-2.7846,-2.6969,-2.6038,-2.5158,-2.4241,-2.3309,-2.3091,-2.3091,-2.3091,-2.3358,-2.3373,-2.2634,-2.3412,-2.3911,-2.3194,-2.2997,-2.2967,-2.2967,-2.221,-2.1728,-2.1728,-2.2096,-2.236,-2.236,-2.2734,-2.2995,-2.2995,-2.2995,-2.3104,-2.3302,-2.4341,-2.5004,-2.5253,-2.6352,-2.7356,-2.8138,-2.839,-2.851,-2.851,-2.851,-2.8431,-2.8339,-2.8151,-2.8002,-2.7841,-2.6981,-2.6133,-2.5295,-2.4659,-2.3897,-2.3091,-2.3091,-2.3091,-2.3047,-2.2706,-2.2618,-2.2742,-2.851,-2.851,-2.851,-2.851,-2.851,-2.851,-2.851,-2.851,-2.851,-2.851,-2.851,-2.851,-2.851,-2.851,-2.851,-2.851,-2.851,-2.851,-2.851,-2.851,-2.851,-2.851,-2.851,-2.851,-2.851,-2.851,-2.851,-2.851,-2.851,-2.851,-2.851,-2.851,-2.851,-2.851,-2.851,-2.851,-2.851,-2.851,-2.851,-2.851,-2.851,-2.851,-2.851,-2.851,-2.851,-2.851,-2.851,-2.851,-2.851,-2.851,-2.851,-2.851,-2.851,-2.851,-2.851,-2.851,-2.851,-2.851,-2.851,-2.7713,-2.6712,-2.5986,-2.4988,-2.3983,-2.3266,-2.3091,-2.3091,-2.3091,-2.3691,-2.3839,-2.2843,-2.3677,-2.422,-2.3279,-2.2727,-2.2431,-2.2431,-2.1531,-2.0909,-2.0909,-2.1438,-2.1816,-2.1816,-2.2394,-2.2728,-2.2728,-2.2728,-2.2898,-2.3183,-2.4134,-2.4952,-2.565,-2.6968,-2.7852,-2.8167,-2.8391,-2.8391,-2.8179,-2.8391,-2.8379,-2.8179,-2.7817,-2.7574,-2.7464,-2.6887,-2.6038,-2.5105,-2.4946,-2.4188,-2.3091,-2.3091,-2.3091,-2.3047,-2.2564,-2.253,-2.2786,-2.851,-2.851,-2.851,-2.851,-2.851,-2.851,-2.851,-2.851,-2.851,-2.851,-2.851,-2.851,-2.851,-2.851,-2.851,-2.851,-2.851,-2.851,-2.851,-2.851,-2.851,-2.851,-2.851,-2.851,-2.851,-2.851,-2.851,-2.851,-2.851,-2.851,-2.851,-2.851,-2.851,-2.851,-2.851,-2.851,-2.851,-2.851,-2.851,-2.851,-2.851,-2.851,-2.851,-2.851,-2.851,-2.851,-2.851,-2.851,-2.851,-2.851,-2.851,-2.851,-2.851,-2.851,-2.851,-2.851,-2.851,-2.851,-2.851,-2.7255,-2.5902,-2.583,-2.4478,-2.3188,-2.3135,-2.3091,-2.3091,-2.3091,-2.3178,-2.3169,-2.3052,-2.3173,-2.3207,-2.3134,-2.2771,-2.2497,-2.2497,-2.2092,-2.1787,-2.1787,-2.1869,-2.191,-2.191,-2.1952,-2.1983,-2.1983,-2.1983,-2.2002,-2.2032,-2.3207,-2.449,-2.574,-2.7044,-2.7565,-2.7296,-2.8099,-2.8099,-2.7307,-2.8099,-2.8379,-2.8179,-2.7284,-2.667,-2.6227,-2.4734,-2.4006,-2.3877,-2.3266,-2.3057,-2.3091,-2.3091,-2.3091,-2.3047,-2.2564,-2.2388,-2.2555,-2.851,-2.851,-2.851,-2.851,-2.851,-2.851,-2.851,-2.851,-2.851,-2.851,-2.851,-2.851,-2.851,-2.851,-2.851,-2.851,-2.851,-2.851,-2.851,-2.851,-2.851,-2.851,-2.851,-2.851,-2.851,-2.851,-2.851,-2.851,-2.851,-2.851,-2.851,-2.851,-2.851,-2.851,-2.851,-2.851,-2.851,-2.851,-2.851,-2.851,-2.851,-2.851,-2.851,-2.851,-2.851,-2.851,-2.851,-2.851,-2.851,-2.851,-2.851,-2.851,-2.851,-2.851,-2.851,-2.851,-2.851,-2.851,-2.851,-2.7592,-2.667,-2.667,-2.5704,-2.4776,-2.4776,-2.4776,-2.4776,-2.4776,-2.4776,-2.4606,-2.4069,-2.3983,-2.3777,-2.3178,-2.274,-2.251,-2.251,-2.2148,-2.1885,-2.1885,-2.1885,-2.1885,-2.1885,-2.1885,-2.1885,-2.1885,-2.1885,-2.2002,-2.2266,-2.3539,-2.4724,-2.5777,-2.6274,-2.6479,-2.6329,-2.7255,-2.7255,-2.6329,-2.7255,-2.7214,-2.6329,-2.5986,-2.5652,-2.5316,-2.4691,-2.4274,-2.3963,-2.3777,-2.343,-2.3091,-2.3091,-2.3013,-2.2882,-2.253,-2.2309,-2.2342,-2.851,-2.851,-2.851,-2.851,-2.851,-2.851,-2.851,-2.851,-2.851,-2.851,-2.851,-2.851,-2.851,-2.851,-2.851,-2.851,-2.851,-2.851,-2.851,-2.851,-2.851,-2.851,-2.851,-2.851,-2.851,-2.851,-2.851,-2.851,-2.851,-2.851,-2.851,-2.851,-2.851,-2.851,-2.851,-2.851,-2.851,-2.851,-2.851,-2.851,-2.851,-2.851,-2.851,-2.851,-2.851,-2.851,-2.851,-2.851,-2.851,-2.851,-2.851,-2.851,-2.851,-2.851,-2.851,-2.851,-2.851,-2.851,-2.851,-2.8047,-2.7551,-2.7267,-2.6494,-2.5777,-2.5777,-2.5777,-2.5735,-2.5453,-2.5411,-2.5115,-2.4241,-2.4069,-2.3864,-2.3222,-2.2857,-2.2672,-2.2672,-2.2461,-2.2275,-2.2275,-2.2275,-2.2275,-2.2275,-2.2275,-2.2275,-2.2275,-2.2275,-2.2402,-2.2652,-2.3574,-2.4317,-2.4946,-2.4946,-2.4946,-2.4946,-2.6163,-2.6299,-2.5411,-2.6246,-2.6163,-2.52,-2.4893,-2.4595,-2.4276,-2.4092,-2.3844,-2.3584,-2.3734,-2.3484,-2.3091,-2.3091,-2.2969,-2.2759,-2.2485,-2.2264,-2.2253,-2.851,-2.851,-2.851,-2.851,-2.851,-2.851,-2.851,-2.851,-2.851,-2.851,-2.851,-2.851,-2.851,-2.851,-2.851,-2.851,-2.851,-2.851,-2.851,-2.851,-2.851,-2.851,-2.851,-2.851,-2.851,-2.851,-2.851,-2.851,-2.851,-2.851,-2.851,-2.851,-2.851,-2.851,-2.851,-2.851,-2.851,-2.851,-2.851,-2.851,-2.851,-2.851,-2.851,-2.851,-2.851,-2.851,-2.851,-2.851,-2.851,-2.851,-2.851,-2.851,-2.851,-2.851,-2.851,-2.851,-2.851,-2.851,-2.851,-2.851,-2.8299,-2.7429,-2.6505,-2.583,-2.583,-2.583,-2.5579,-2.4701,-2.4541,-2.4241,-2.3309,-2.3091,-2.3091,-2.3091,-2.3091,-2.3091,-2.3091,-2.3091,-2.3091,-2.3091,-2.3091,-2.3091,-2.3091,-2.3091,-2.3091,-2.3091,-2.3091,-2.3091,-2.3091,-2.3091,-2.3091,-2.3091,-2.3091,-2.3091,-2.3091,-2.4904,-2.5368,-2.4498,-2.5158,-2.5358,-2.5147,-2.4221,-2.3531,-2.3052,-2.2599,-2.2397,-2.2441,-2.2706,-2.2925,-2.3091,-2.3091,-2.2969,-2.2759,-2.2485,-2.2264,-2.2253,-2.851,-2.851,-2.851,-2.851,-2.851,-2.851,-2.851,-2.851,-2.851,-2.851,-2.851,-2.851,-2.851,-2.851,-2.851,-2.851,-2.851,-2.851,-2.851,-2.851,-2.851,-2.851,-2.851,-2.851,-2.851,-2.851,-2.851,-2.851,-2.851,-2.851,-2.851,-2.851,-2.851,-2.851,-2.851,-2.851,-2.851,-2.851,-2.851,-2.851,-2.851,-2.851,-2.851,-2.851,-2.851,-2.851,-2.851,-2.851,-2.851,-2.851,-2.851,-2.851,-2.851,-2.851,-2.851,-2.851,-2.851,-2.851,-2.851,-2.851,-2.8431,-2.8179,-2.7886,-2.7672,-2.7672,-2.7672,-2.7632,-2.7377,-2.6287,-2.5326,-2.5073,-2.3983,-2.3091,-2.3091,-2.3091,-2.3091,-2.3091,-2.3091,-2.3091,-2.3091,-2.3091,-2.3091,-2.3091,-2.3091,-2.3091,-2.3091,-2.3091,-2.3091,-2.3091,-2.3091,-2.3091,-2.3091,-2.3091,-2.3091,-2.3091,-2.4274,-2.4445,-2.3527,-2.4188,-2.4092,-2.3202,-2.2775,-2.2432,-2.2122,-2.2176,-2.2264,-2.2413,-2.2399,-2.2664,-2.3062,-2.2769,-2.2621,-2.253,-2.2441,-2.2132,-2.1985,-2.851,-2.851,-2.851,-2.851,-2.851,-2.851,-2.851,-2.851,-2.851,-2.851,-2.851,-2.851,-2.851,-2.851,-2.851,-2.851,-2.851,-2.851,-2.851,-2.851,-2.851,-2.851,-2.851,-2.851,-2.851,-2.851,-2.851,-2.851,-2.851,-2.851,-2.851,-2.851,-2.851,-2.851,-2.851,-2.851,-2.851,-2.851,-2.851,-2.851,-2.851,-2.851,-2.851,-2.851,-2.851,-2.851,-2.851,-2.851,-2.851,-2.851,-2.851,-2.851,-2.851,-2.851,-2.851,-2.851,-2.851,-2.851,-2.851,-2.851,-2.851,-2.851,-2.851,-2.851,-2.851,-2.851,-2.8299,-2.758,-2.6577,-2.5568,-2.4861,-2.3854,-2.3091,-2.3091,-2.3091,-2.3091,-2.3091,-2.3091,-2.3091,-2.3091,-2.3091,-2.3091,-2.3091,-2.3091,-2.3091,-2.3091,-2.3091,-2.3091,-2.3091,-2.3091,-2.3091,-2.3091,-2.3091,-2.3091,-2.3091,-2.356,-2.3517,-2.2969,-2.329,-2.3038,-2.2264,-2.2052,-2.1874,-2.1687,-2.1963,-2.2136,-2.2176,-2.2069,-2.2366,-2.2818,-2.2393,-2.2298,-2.2397,-2.2309,-2.2043,-2.1851,-2.851,-2.851,-2.851,-2.851,-2.851,-2.851,-2.851,-2.851,-2.851,-2.851,-2.851,-2.851,-2.851,-2.851,-2.851,-2.851,-2.851,-2.851,-2.851,-2.851,-2.851,-2.851,-2.851,-2.851,-2.851,-2.851,-2.851,-2.851,-2.851,-2.851,-2.851,-2.851,-2.851,-2.851,-2.851,-2.851,-2.851,-2.851,-2.851,-2.851,-2.851,-2.851,-2.851,-2.851,-2.851,-2.851,-2.851,-2.851,-2.851,-2.851,-2.851,-2.851,-2.851,-2.851,-2.851,-2.851,-2.851,-2.851,-2.851,-2.851,-2.851,-2.851,-2.851,-2.851,-2.851,-2.851,-2.8047,-2.637,-2.5902,-2.5284,-2.3647,-2.3266,-2.3178,-2.3091,-2.3178,-2.3178,-2.3091,-2.3091,-2.3091,-2.3091,-2.3091,-2.3091,-2.3091,-2.3091,-2.3091,-2.3091,-2.3091,-2.3091,-2.3091,-2.3091,-2.3091,-2.3091,-2.3091,-2.3101,-2.3057,-2.2882,-2.2803,-2.2803,-2.253,-2.2264,-2.2097,-2.183,-2.1696,-2.1687,-2.1917,-2.1914,-2.1783,-2.1707,-2.1973,-2.2425,-2.1959,-2.2,-2.2397,-2.2185,-2.1919,-2.1851,-2.851,-2.851,-2.851,-2.851,-2.851,-2.851,-2.851,-2.851,-2.851,-2.851,-2.851,-2.851,-2.851,-2.851,-2.851,-2.851,-2.851,-2.851,-2.851,-2.851,-2.851,-2.851,-2.851,-2.851,-2.851,-2.851,-2.851,-2.851,-2.851,-2.851,-2.851,-2.851,-2.851,-2.851,-2.851,-2.851,-2.851,-2.851,-2.851,-2.851,-2.851,-2.851,-2.851,-2.851,-2.851,-2.851,-2.851,-2.851,-2.851,-2.851,-2.851,-2.851,-2.851,-2.851,-2.851,-2.851,-2.851,-2.851,-2.851,-2.851,-2.851,-2.851,-2.851,-2.851,-2.851,-2.851,-2.8379,-2.8007,-2.6782,-2.5694,-2.5274,-2.4659,-2.395,-2.3222,-2.3734,-2.394,-2.3222,-2.3091,-2.3091,-2.3091,-2.3091,-2.3091,-2.3091,-2.3091,-2.3091,-2.3091,-2.3091,-2.3091,-2.3091,-2.3091,-2.3091,-2.3091,-2.3091,-2.3013,-2.2891,-2.2803,-2.2803,-2.2794,-2.2362,-2.2141,-2.2097,-2.183,-2.1696,-2.1678,-2.1427,-2.1417,-2.1502,-2.0815,-2.1239,-2.2192,-2.1583,-2.1779,-2.2397,-2.2185,-2.1919,-2.1895,-2.851,-2.851,-2.851,-2.851,-2.851,-2.851,-2.851,-2.851,-2.851,-2.851,-2.851,-2.851,-2.851,-2.851,-2.851,-2.851,-2.851,-2.851,-2.851,-2.851,-2.851,-2.851,-2.851,-2.851,-2.851,-2.851,-2.851,-2.851,-2.851,-2.851,-2.851,-2.851,-2.851,-2.851,-2.851,-2.851,-2.851,-2.851,-2.851,-2.851,-2.851,-2.851,-2.851,-2.851,-2.851,-2.851,-2.851,-2.851,-2.851,-2.851,-2.851,-2.851,-2.851,-2.851,-2.851,-2.851,-2.851,-2.851,-2.851,-2.851,-2.851,-2.851,-2.851,-2.851,-2.851,-2.851,-2.8379,-2.7966,-2.7133,-2.6329,-2.5872,-2.5073,-2.4327,-2.3864,-2.4155,-2.4155,-2.3222,-2.3474,-2.3604,-2.3135,-2.3091,-2.3091,-2.3091,-2.3091,-2.3091,-2.3091,-2.3091,-2.3091,-2.3091,-2.3091,-2.3057,-2.2969,-2.2969,-2.2838,-2.2618,-2.2495,-2.2451,-2.2451,-2.223,-2.2052,-2.1919,-2.1785,-2.1696,-2.1668,-2.1291,-2.1127,-2.1118,-2.0379,-2.0697,-2.1673,-2.1109,-2.1446,-2.222,-2.2008,-2.2078,-2.2419,-2.851,-2.851,-2.851,-2.851,-2.851,-2.851,-2.851,-2.851,-2.851,-2.851,-2.851,-2.851,-2.851,-2.851,-2.851,-2.851,-2.851,-2.851,-2.851,-2.851,-2.851,-2.851,-2.851,-2.851,-2.851,-2.851,-2.851,-2.851,-2.851,-2.851,-2.851,-2.851,-2.851,-2.851,-2.851,-2.851,-2.851,-2.851,-2.851,-2.851,-2.851,-2.851,-2.851,-2.851,-2.851,-2.851,-2.851,-2.851,-2.851,-2.851,-2.851,-2.851,-2.851,-2.851,-2.851,-2.851,-2.851,-2.851,-2.851,-2.851,-2.851,-2.851,-2.851,-2.851,-2.851,-2.851,-2.8299,-2.7551,-2.7307,-2.6969,-2.6163,-2.5463,-2.4914,-2.4744,-2.4701,-2.4445,-2.3681,-2.3983,-2.4026,-2.3396,-2.3178,-2.3091,-2.3091,-2.3091,-2.3091,-2.3091,-2.3091,-2.3091,-2.3091,-2.3057,-2.2969,-2.2803,-2.2759,-2.2618,-2.2353,-2.2176,-2.2097,-2.2052,-2.2052,-2.1919,-2.1696,-2.1696,-2.165,-2.1559,-2.119,-2.0863,-2.0583,-2.0021,-2.0337,-2.1182,-2.0722,-2.1241,-2.2097,-2.183,-2.2208,-2.2951,-2.851,-2.851,-2.851,-2.851,-2.851,-2.851,-2.851,-2.851,-2.851,-2.851,-2.851,-2.851,-2.851,-2.851,-2.851,-2.851,-2.851,-2.851,-2.851,-2.851,-2.851,-2.851,-2.851,-2.851,-2.851,-2.851,-2.851,-2.851,-2.851,-2.851,-2.851,-2.851,-2.851,-2.851,-2.851,-2.851,-2.851,-2.851,-2.851,-2.851,-2.851,-2.851,-2.851,-2.851,-2.851,-2.851,-2.851,-2.851,-2.851,-2.851,-2.851,-2.851,-2.851,-2.851,-2.851,-2.851,-2.851,-2.851,-2.851,-2.851,-2.851,-2.851,-2.851,-2.851,-2.851,-2.851,-2.8471,-2.8339,-2.7725,-2.7174,-2.701,-2.6928,-2.6588,-2.5746,-2.561,-2.5568,-2.5442,-2.4188,-2.356,-2.4241,-2.3604,-2.3091,-2.3091,-2.3091,-2.3091,-2.3091,-2.3091,-2.3091,-2.3091,-2.2925,-2.2847,-2.2803,-2.2574,-2.2353,-2.2141,-2.2097,-2.1963,-2.1731,-2.1731,-2.1741,-2.1696,-2.1696,-2.1495,-2.1172,-2.0769,-2.0374,-1.9971,-1.9558,-2.0118,-2.1182,-2.0941,-2.1446,-2.2309,-2.1865,-2.2208,-2.2951,-2.851,-2.851,-2.851,-2.851,-2.851,-2.851,-2.851,-2.851,-2.851,-2.851,-2.851,-2.851,-2.851,-2.851,-2.851,-2.851,-2.851,-2.851,-2.851,-2.851,-2.851,-2.851,-2.851,-2.851,-2.851,-2.851,-2.851,-2.851,-2.851,-2.851,-2.851,-2.851,-2.851,-2.851,-2.851,-2.851,-2.851,-2.851,-2.851,-2.851,-2.851,-2.851,-2.851,-2.851,-2.851,-2.851,-2.851,-2.851,-2.851,-2.851,-2.851,-2.851,-2.851,-2.851,-2.851,-2.851,-2.851,-2.851,-2.851,-2.851,-2.851,-2.851,-2.851,-2.851,-2.851,-2.851,-2.851,-2.851,-2.8179,-2.7926,-2.7926,-2.751,-2.7051,-2.667,-2.6588,-2.6412,-2.5861,-2.5579,-2.5158,-2.4584,-2.3691,-2.3091,-2.3091,-2.3091,-2.3047,-2.2925,-2.2925,-2.2882,-2.2706,-2.2618,-2.2539,-2.2407,-2.2264,-2.2141,-2.1874,-2.1874,-2.183,-2.1696,-2.1696,-2.1696,-2.1696,-2.1696,-2.1458,-2.1089,-2.0686,-2.025,-1.9857,-1.9476,-1.99,-2.0806,-2.0731,-2.1231,-2.1998,-2.1785,-2.2208,-2.2951]},{"header":{"parameterUnit":"m.s-1","parameterCategory":1,"la1":30.6,"la2":28.766,"lo1":-90.7593,"lo2":-88.6598,"dx":0.0162,"dy":0.0183,"nx":116,"ny":114,"refTime":"2022-11-28T18:00:00:Z","depth":0,"parameterNumber":3,"parameterNumberName":"V-component_of_WINDS"},"data":[0.0,0.0,0.0,0.0,0.0,0.0,0.0,0.0,0.0,0.0,0.0,0.0,0.0,0.0,0.0,0.0,0.0,0.0,0.0,0.0,0.0,0.0,0.0,0.0,0.0,0.0,0.0,0.0,0.0,0.0,0.0,0.0,0.0,0.0,0.0,0.0,0.0,0.0,0.0,0.0,0.0,0.0,0.0,0.0,0.0,0.0,0.0,0.0,0.0,0.0,0.0,0.0,0.0,0.0,0.0,0.0,0.0,0.0,0.0,0.0,0.0,0.0,0.0,0.0,0.0,0.0,0.0,0.0,0.0,0.0,0.0,0.0,0.0,0.0,0.0,0.0,0.0,0.0,0.0,0.0,0.0,0.0,0.0,0.0,0.0,0.0,0.0,0.0,0.0,0.0,0.0,0.0,0.0,0.0,0.0,0.0,0.0,0.0,0.0,0.0,0.0,0.0,0.0,0.0,0.0,0.0,0.0,0.0,0.0,0.0,0.0,0.0,0.0,0.0,0.0,0.0,0.0,0.0,0.0,0.0,0.0,0.0,0.0,0.0,0.0,0.0,0.0,0.0,0.0,0.0,0.0,0.0,0.0,0.0,0.0,0.0,0.0,0.0,0.0,0.0,0.0,0.0,0.0,0.0,0.0,0.0,0.0,0.0,0.0,0.0,0.0,0.0,0.0,0.0,0.0,0.0,0.0,0.0,0.0,0.0,0.0,0.0,0.0,0.0,0.0,0.0,0.0,0.0,0.0,0.0,0.0,0.0,0.0,0.0,0.0,0.0,0.0,0.0,0.0,0.0,0.0,0.0,0.0,0.0,0.0,0.0,0.0,0.0,0.0,0.0,0.0,0.0,0.0,0.0,0.0,0.0,0.0,0.0,0.0,0.0,0.0,0.0,0.0,0.0,0.0,0.0,0.0,0.0,0.0,0.0,0.0,0.0,0.0,0.0,0.0,0.0,0.0,0.0,0.0,0.0,0.0,0.0,0.0,0.0,0.0,0.0,0.0,0.0,0.0,0.0,0.0,0.0,0.0,0.0,0.0,0.0,0.0,0.0,0.0,0.0,0.0,0.0,0.0,0.0,0.0,0.0,0.0,0.0,0.0,0.0,0.0,0.0,0.0,0.0,0.0,0.0,0.0,0.0,0.0,0.0,0.0,0.0,0.0,0.0,0.0,0.0,0.0,0.0,0.0,0.0,0.0,0.0,0.0,0.0,0.0,0.0,0.0,0.0,0.0,0.0,0.0,0.0,0.0,0.0,0.0,0.0,0.0,0.0,0.0,0.0,0.0,0.0,0.0,0.0,0.0,0.0,0.0,0.0,0.0,0.0,0.0,0.0,0.0,0.0,0.0,0.0,0.0,0.0,0.0,0.0,0.0,0.0,0.0,0.0,0.0,0.0,0.0,0.0,0.0,0.0,0.0,0.0,0.0,0.0,0.0,0.0,0.0,0.0,0.0,0.0,0.0,0.0,0.0,0.0,0.0,0.0,0.0,0.0,0.0,0.0,0.0,0.0,0.0,0.0,0.0,0.0,0.0,0.0,0.0,0.0,0.0,0.0,0.0,0.0,0.0,0.0,0.0,0.0,0.0,0.0,0.0,0.0,0.0,0.0,0.0,0.0,0.0,0.0,0.0,0.0,0.0,0.0,0.0,0.0,0.0,0.0,0.0,0.0,0.0,0.0,0.0,0.0,0.0,0.0,0.0,0.0,0.0,0.0,0.0,0.0,0.0,0.0,0.0,0.0,0.0,0.0,0.0,0.0,0.0,0.0,0.0,0.0,0.0,0.0,0.0,0.0,0.0,0.0,0.0,0.0,0.0,0.0,0.0,0.0,0.0,0.0,0.0,0.0,0.0,0.0,0.0,0.0,0.0,0.0,0.0,0.0,0.0,0.0,0.0,0.0,0.0,0.0,0.0,0.0,0.0,0.0,0.0,0.0,0.0,0.0,0.0,0.0,0.0,0.0,0.0,0.0,0.0,0.0,0.0,0.0,0.0,0.0,0.0,0.0,0.0,0.0,0.0,0.0,0.0,0.0,0.0,0.0,0.0,0.0,0.0,0.0,0.0,0.0,0.0,0.0,0.0,0.0,0.0,0.0,0.0,0.0,0.0,0.0,0.0,0.0,0.0,0.0,0.0,0.0,0.0,0.0,0.0,0.0,0.0,0.0,0.0,0.0,0.0,0.0,0.0,0.0,0.0,0.0,0.0,0.0,0.0,0.0,0.0,0.0,0.0,0.0,0.0,0.0,0.0,0.0,0.0,0.0,0.0,0.0,0.0,0.0,0.0,0.0,0.0,0.0,0.0,0.0,0.0,0.0,0.0,0.0,0.0,0.0,0.0,0.0,0.0,0.0,0.0,0.0,0.0,0.0,0.0,0.0,0.0,0.0,0.0,0.0,0.0,0.0,0.0,0.0,0.0,0.0,0.0,0.0,0.0,0.0,0.0,0.0,0.0,0.0,0.0,0.0,0.0,0.0,0.0,0.0,0.0,0.0,0.0,0.0,0.0,0.0,0.0,0.0,0.0,0.0,0.0,0.0,0.0,0.0,0.0,0.0,0.0,0.0,0.0,0.0,0.0,0.0,0.0,0.0,0.0,0.0,0.0,0.0,0.0,0.0,0.0,0.0,0.0,0.0,0.0,0.0,0.0,0.0,0.0,0.0,0.0,0.0,0.0,0.0,0.0,0.0,0.0,0.0,0.0,0.0,0.0,0.0,0.0,0.0,0.0,0.0,0.0,0.0,0.0,0.0,0.0,0.0,0.0,0.0,0.0,0.0,0.0,0.0,0.0,0.0,0.0,0.0,0.0,0.0,0.0,0.0,0.0,0.0,0.0,0.0,0.0,0.0,0.0,0.0,0.0,0.0,0.0,0.0,0.0,0.0,0.0,0.0,0.0,0.0,0.0,0.0,0.0,0.0,0.0,0.0,0.0,0.0,0.0,0.0,0.0,0.0,0.0,0.0,0.0,0.0,0.0,0.0,0.0,0.0,0.0,0.0,0.0,0.0,0.0,0.0,0.0,0.0,0.0,0.0,0.0,0.0,0.0,0.0,0.0,0.0,0.0,0.0,0.0,0.0,0.0,0.0,0.0,0.0,0.0,0.0,0.0,0.0,0.0,0.0,0.0,0.0,0.0,0.0,0.0,0.0,0.0,0.0,0.0,0.0,0.0,0.0,0.0,0.0,0.0,0.0,0.0,0.0,0.0,0.0,0.0,0.0,0.0,0.0,0.0,0.0,0.0,0.0,0.0,0.0,0.0,0.0,0.0,0.0,0.0,0.0,0.0,0.0,0.0,0.0,0.0,0.0,0.0,0.0,0.0,0.0,0.0,0.0,0.0,0.0,0.0,0.0,0.0,0.0,0.0,0.0,0.0,0.0,0.0,0.0,0.0,0.0,0.0,0.0,0.0,0.0,0.0,0.0,0.0,0.0,0.0,0.0,0.0,0.0,0.0,0.0,0.0,0.0,0.0,0.0,0.0,0.0,0.0,0.0,0.0,0.0,0.0,0.0,0.0,0.0,0.0,0.0,0.0,0.0,0.0,0.0,0.0,0.0,0.0,0.0,0.0,0.0,0.0,0.0,0.0,0.0,0.0,0.0,0.0,0.0,0.0,0.0,0.0,0.0,0.0,0.0,0.0,0.0,0.0,0.0,0.0,0.0,0.0,0.0,0.0,0.0,0.0,0.0,0.0,0.0,0.0,0.0,0.0,0.0,0.0,0.0,0.0,0.0,0.0,0.0,0.0,0.0,0.0,0.0,0.0,0.0,0.0,0.0,0.0,0.0,0.0,0.0,0.0,0.0,0.0,0.0,0.0,0.0,0.0,0.0,0.0,0.0,0.0,0.0,0.0,0.0,0.0,0.0,0.0,0.0,0.0,0.0,0.0,0.0,0.0,0.0,0.0,0.0,0.0,0.0,0.0,0.0,0.0,0.0,0.0,0.0,0.0,0.0,0.0,0.0,0.0,0.0,0.0,0.0,0.0,0.0,0.0,0.0,0.0,0.0,0.0,0.0,0.0,0.0,0.0,0.0,0.0,0.0,0.0,0.0,0.0,0.0,0.0,0.0,0.0,0.0,0.0,0.0,0.0,0.0,0.0,0.0,0.0,0.0,0.0,0.0,0.0,0.0,0.0,0.0,0.0,0.0,0.0,0.0,0.0,0.0,0.0,0.0,0.0,0.0,0.0,0.0,0.0,0.0,0.0,0.0,0.0,0.0,0.0,0.0,0.0,0.0,0.0,0.0,0.0,0.0,0.0,0.0,0.0,0.0,0.0,0.0,0.0,0.0,0.0,0.0,0.0,0.0,0.0,0.0,0.0,0.0,0.0,0.0,0.0,0.0,0.0,0.0,0.0,0.0,0.0,0.0,0.0,0.0,0.0,0.0,0.0,0.0,0.0,0.0,0.0,0.0,0.0,0.0,0.0,0.0,0.0,0.0,0.0,0.0,0.0,0.0,0.0,0.0,0.0,0.0,0.0,0.0,0.0,0.0,0.0,0.0,0.0,0.0,0.0,0.0,0.0,0.0,0.0,0.0,0.0,0.0,0.0,0.0,0.0,0.0,0.0,0.0,0.0,0.0,0.0,0.0,0.0,0.0,0.0,0.0,0.0,0.0,0.0,0.0,0.0,0.0,0.0,0.0,0.0,0.0,0.0,0.0,0.0,0.0,0.0,0.0,0.0,0.0,0.0,0.0,0.0,0.0,0.0,0.0,0.0,0.0,0.0,0.0,0.0,0.0,0.0,0.0,0.0,0.0,0.0,0.0,0.0,0.0,0.0,0.0,0.0,0.0,0.0,0.0,0.0,0.0,0.0,0.0,0.0,0.0,0.0,0.0,0.0,0.0,0.0,0.0,0.0,0.0,0.0,0.0,0.0,0.0,0.0,0.0,0.0,0.0,0.0,0.0,0.0,0.0,0.0,0.0,0.0,0.0,0.0,0.0,0.0,0.0,0.0,0.0,0.0,0.0,0.0,0.0,0.0,0.0,0.0,0.0,0.0,0.0,0.0,0.0,0.0,0.0,0.0,0.0,0.0,0.0,0.0,0.0,0.0,0.0,0.0,0.0,0.0,0.0,0.0,0.0,0.0,0.0,0.0,0.0,0.0,0.0,0.0,0.0,0.0,0.0,0.0,0.0,0.0,0.0,0.0,0.0,0.0,0.0,0.0,0.0,0.0,0.0,0.0,0.0,0.0,0.0,0.0,0.0,0.0,0.0,0.0,0.0,0.0,0.0,0.0,0.0,0.0,0.0,0.0,0.0,0.0,0.0,0.0,0.0,0.0,0.0,0.0,0.0,0.0,0.0,0.0,0.0,0.0,0.0,0.0,0.0,0.0,0.0,0.0,0.0,0.0,0.0,0.0,0.0,0.0,0.0,0.0,0.0,0.0,0.0,0.0,0.0,0.0,0.0,0.0,0.0,0.0,0.0,0.0,0.0,0.0,0.0,0.0,0.0,0.0,0.0,0.0,0.0,0.0,0.0,0.0,0.0,0.0,0.0,0.0,0.0,0.0,0.0,0.0,0.0,0.0,0.0,0.0,0.0,0.0,0.0,0.0,0.0,0.0,0.0,0.0,0.0,0.0,0.0,0.0,0.0,0.0,0.0,0.0,0.0,0.0,0.0,0.0,0.0,0.0,0.0,0.0,0.0,0.0,0.0,0.0,0.0,0.0,0.0,0.0,0.0,0.0,0.0,0.0,0.0,0.0,0.0,0.0,0.0,0.0,0.0,0.0,0.0,0.0,0.0,0.0,0.0,0.0,0.0,0.0,0.0,0.0,0.0,0.0,0.0,0.0,0.0,0.0,0.0,0.0,0.0,0.0,0.0,0.0,0.0,0.0,0.0,0.0,0.0,0.0,0.0,0.0,0.0,0.0,0.0,0.0,0.0,0.0,0.0,0.0,0.0,0.0,0.0,0.0,0.0,0.0,0.0,0.0,0.0,0.0,0.0,0.0,0.0,0.0,0.0,0.0,0.0,0.0,0.0,0.0,0.0,0.0,0.0,0.0,0.0,0.0,0.0,0.0,0.0,0.0,0.0,0.0,0.0,0.0,0.0,0.0,0.0,0.0,0.0,0.0,0.0,0.0,0.0,0.0,0.0,2.2237,2.2296,0.0,0.0,0.0,0.0,0.0,0.0,0.0,0.0,0.0,0.0,0.0,0.0,0.0,0.0,0.0,0.0,0.0,0.0,0.0,0.0,0.0,0.0,0.0,0.8767,0.8922,0.9245,0.9267,0.0,0.0,0.0,0.0,0.0,0.0,0.0,0.0,0.0,1.0382,1.0195,1.1115,1.1825,1.2324,1.293,1.2313,1.0698,0.0,0.0,0.0,0.0,0.0,0.0,0.0,0.0,0.0,0.0,0.0,0.0,0.0,0.0,0.0,0.0,0.0,0.0,0.0,0.0,0.0,0.0,0.0,0.0,0.0,0.0,0.0,0.0,0.0,0.0,0.0,0.0,0.0,0.0,0.0,0.0,0.0,0.0,0.0,0.0,0.0,0.0,0.0,0.0,0.0,0.0,0.0,0.0,0.0,0.0,0.0,0.0,0.0,0.0,0.0,0.0,0.0,0.0,0.0,0.0,0.0,0.0,0.0,0.0,0.0,0.0,0.0,0.0,0.0,0.0,2.2465,2.2402,0.0,0.0,0.0,0.0,0.0,0.0,0.0,0.0,0.0,0.0,0.0,0.0,0.0,0.0,0.0,0.0,0.0,0.0,0.0,0.0,0.0,0.8676,0.9282,0.934,0.9575,1.0118,1.0151,1.0167,1.0189,1.071,0.0,0.0,0.0,0.0,1.1301,1.129,1.1234,1.1106,1.2447,1.3662,1.4762,1.5158,1.3756,1.0973,1.163,0.0,0.0,0.0,0.0,0.0,0.0,0.0,0.0,0.0,0.0,0.0,0.0,0.0,0.0,0.0,0.0,0.0,0.0,0.0,0.0,0.0,0.0,0.0,0.0,0.0,0.0,0.0,0.0,0.0,0.0,0.0,0.0,0.0,0.0,0.0,0.0,0.0,0.0,0.0,0.0,0.0,0.0,0.0,0.0,0.0,0.0,0.0,0.0,0.0,0.0,0.0,0.0,0.0,0.0,0.0,0.0,0.0,0.0,0.0,0.0,0.0,0.0,0.0,2.2649,2.2673,2.2673,2.2673,2.2916,2.3374,2.2869,2.2592,2.254,2.2731,0.0,0.0,0.0,0.0,0.0,0.0,0.0,0.0,0.0,0.0,0.0,0.0,0.0,0.0,0.0,0.0,0.0,0.0,0.0,0.9288,0.9831,0.9939,1.0074,1.0334,1.0361,1.0398,1.053,1.0631,0.0,0.0,0.0,1.1164,1.2051,1.2062,1.2671,1.396,1.445,1.479,1.4961,1.5029,1.4805,1.4375,1.47,1.4481,1.3804,0.0,0.0,0.0,0.0,0.0,0.0,0.0,0.0,0.0,0.0,0.0,0.0,0.0,0.0,0.0,0.0,0.0,0.0,0.0,0.0,0.0,0.0,0.0,0.0,0.0,0.0,0.0,0.0,0.0,0.0,0.0,0.0,0.0,0.0,0.0,0.0,0.0,0.0,0.0,0.0,0.0,1.8449,1.8504,0.0,0.0,0.0,0.0,0.0,0.0,0.0,0.0,0.0,0.0,0.0,0.0,0.0,2.2461,2.2971,2.3226,2.3606,2.4201,2.4422,2.4534,2.4534,2.4466,2.4501,2.4573,2.4476,0.0,2.3732,2.3443,0.0,0.0,0.0,0.0,0.0,0.0,0.0,0.0,0.0,0.0,0.0,0.0,0.0,0.0,0.0,0.0,0.0,0.0,0.0,0.0,0.0,1.0643,1.0855,1.1314,1.1628,1.1835,1.1895,1.2268,0.0,0.0,1.2504,1.2726,1.3201,1.3514,1.4311,1.562,1.577,1.6094,1.656,1.6569,1.6697,1.6977,1.7082,1.6258,1.4738,1.4069,0.0,0.0,0.0,0.0,0.0,0.0,0.0,0.0,0.0,0.0,0.0,0.0,0.0,0.0,0.0,0.0,0.0,0.0,0.0,0.0,0.0,0.0,0.0,0.0,0.0,0.0,0.0,0.0,0.0,0.0,0.0,0.0,0.0,0.0,0.0,0.0,0.0,0.0,0.0,1.9012,1.926,1.9946,2.0662,2.1211,0.0,0.0,0.0,0.0,0.0,0.0,0.0,0.0,0.0,2.3645,2.366,2.3789,2.4061,2.4211,2.4418,2.4677,2.479,2.4863,2.4917,2.5062,2.5143,2.5143,2.5381,2.5333,2.5097,2.4694,2.4566,2.4642,0.0,0.0,0.0,0.0,2.5989,2.6243,0.0,0.0,0.0,0.0,0.0,0.0,0.0,0.0,0.0,0.0,0.0,0.0,1.122,1.1441,1.1793,1.2366,1.2907,1.3248,1.3337,1.382,1.4093,1.4093,1.4093,1.4164,1.4303,1.5005,1.5879,1.6974,1.6863,1.7222,1.7968,1.7848,1.8042,1.8503,1.8459,1.749,1.5866,1.5511,1.5107,1.471,0.0,0.0,0.0,0.0,0.0,0.0,0.0,0.0,0.0,0.0,0.0,0.0,0.0,0.0,0.0,0.0,0.0,0.0,0.0,0.0,0.0,0.0,0.0,0.0,0.0,0.0,0.0,0.0,0.0,0.0,0.0,0.0,0.0,0.0,0.0,0.0,0.0,1.9782,2.0366,2.1358,2.1614,2.1897,0.0,0.0,0.0,0.0,0.0,0.0,2.3822,2.3885,2.4197,2.4859,2.4907,2.5068,2.5427,2.5456,2.5641,2.5908,2.5908,2.5923,2.5977,2.6218,2.6352,2.6362,2.6669,2.679,2.6729,2.6066,2.5787,2.5841,2.6563,2.6842,2.6869,2.7174,2.7385,2.7478,0.0,0.0,0.0,0.0,0.0,0.0,0.0,0.0,0.0,0.0,0.0,1.1231,1.1703,1.2396,1.2923,1.3208,1.3721,1.4181,1.4482,1.4435,1.4376,1.4376,1.4329,1.4538,1.5129,1.6291,1.7328,1.8224,1.7887,1.7981,1.8461,1.8008,1.8048,1.8495,1.8307,1.826,1.826,1.7438,1.6959,1.6713,1.6042,0.0,0.0,0.0,0.0,0.0,0.0,0.0,0.0,0.0,0.0,0.0,0.0,0.0,0.0,0.0,0.0,0.0,0.0,0.0,0.0,0.0,0.0,0.0,0.0,0.0,0.0,0.0,0.0,0.0,0.0,0.0,0.0,0.0,0.0,0.0,0.0,0.0,0.0,2.1932,2.2482,0.0,0.0,0.0,0.0,2.3809,2.4351,2.4728,2.4834,2.4966,2.5038,2.5091,2.5202,2.5864,2.7063,2.7078,2.7697,2.8878,2.8878,2.8878,2.8878,2.8906,2.8906,2.8933,2.8933,2.8933,2.8835,2.7411,2.6826,2.6891,2.7499,2.7721,2.7741,2.7757,2.7762,2.7778,0.0,0.0,0.0,0.813,0.8479,0.8794,0.9028,0.9665,1.0324,1.0879,1.1337,1.1907,1.2689,1.3085,1.3524,1.4104,1.4635,1.4992,1.5106,1.5384,1.5568,1.5568,1.5538,1.5928,1.6798,1.7186,1.774,1.8422,1.8305,1.8344,1.85,1.8324,1.8481,1.8879,1.8817,1.8817,1.8855,1.8284,1.7993,1.7888,1.7421,1.655,0.0,0.0,0.0,0.0,0.0,0.0,0.0,0.0,0.0,0.0,0.0,0.0,0.0,0.0,0.0,0.0,0.0,0.0,0.0,0.0,0.0,0.0,0.0,0.0,0.0,0.0,0.0,0.0,0.0,0.0,0.0,0.0,0.0,0.0,0.0,0.0,0.0,2.3122,2.3412,0.0,2.4099,2.4465,2.4683,2.4683,2.4936,2.5306,2.5707,2.6193,2.6655,2.7067,2.752,2.7948,2.8419,2.8419,2.8641,2.9098,2.9098,2.9098,2.9098,2.9384,2.9478,2.9505,2.9761,2.9853,2.9845,2.9494,2.9309,2.9333,2.9908,3.0274,3.0502,3.0502,3.0613,3.0734,0.0,0.0,0.0,0.8379,0.8738,0.9119,0.9515,1.0269,1.0937,1.1292,1.1936,1.2612,1.3226,1.3807,1.4357,1.4903,1.5422,1.5743,1.5764,1.6077,1.6275,1.6275,1.6392,1.685,1.7646,1.7673,1.8034,1.8765,1.8843,1.8947,1.9137,1.9332,1.955,1.9798,1.9759,1.9624,1.9416,1.9141,1.8896,1.8678,1.8397,1.7808,1.7088,0.0,0.0,0.0,0.0,0.0,0.0,0.0,0.0,0.0,0.0,0.0,0.0,0.0,0.0,0.0,0.0,0.0,0.0,0.0,0.0,0.0,0.0,0.0,0.0,0.0,0.0,0.0,0.0,0.0,0.0,0.0,0.0,0.0,0.0,2.2409,2.3035,2.4094,2.4296,2.4456,2.4878,2.5463,2.58,2.58,2.6272,2.6764,2.7167,2.7646,2.8142,2.8598,2.9028,2.9381,2.9561,2.9561,2.9679,2.9902,2.9902,2.9902,2.993,3.0193,3.0316,3.0316,3.0603,3.0711,3.0738,3.1111,3.1358,3.1461,3.1302,3.1421,3.1686,3.19,3.208,3.2236,0.0,0.0,0.8152,0.8803,0.8979,0.9372,1.0354,1.0817,1.1222,1.1759,1.2705,1.3336,1.3366,1.4578,1.5472,1.5628,1.6115,1.6436,1.65,1.6436,1.6392,1.6414,1.6795,1.7188,1.7605,1.7767,1.8333,1.9332,1.9559,1.9935,2.045,2.0969,2.1208,2.1187,2.1064,2.0669,2.0132,2.0132,1.9754,1.914,1.8893,1.83,1.7553,0.0,0.0,0.0,0.0,0.0,0.0,0.0,0.0,0.0,0.0,0.0,0.0,0.0,0.0,0.0,0.0,0.0,0.0,0.0,0.0,0.0,0.0,0.0,0.0,0.0,0.0,0.0,0.0,0.0,0.0,0.0,0.0,0.0,2.2917,2.3514,2.419,2.4859,2.5068,2.5165,2.5179,2.6463,2.7266,2.7266,2.8432,2.9125,2.9125,2.9334,2.9431,2.9431,2.9585,2.9968,3.0567,3.0582,3.0926,3.157,3.157,3.157,3.157,3.157,3.157,3.157,3.157,3.157,3.1628,3.2181,3.273,3.3066,3.1669,3.1092,3.1191,3.1782,3.2004,3.2099,0.9524,0.9194,0.9008,0.9287,0.9753,1.0178,1.046,1.1288,1.2044,1.2533,1.3252,1.4006,1.4724,1.5294,1.5794,1.6216,1.6391,1.6479,1.65,1.6479,1.6513,1.6611,1.7094,1.7551,1.7947,1.8755,1.948,2.0102,2.0636,2.0964,2.1133,2.1291,2.1344,2.1344,2.1187,2.1059,2.0898,2.0796,2.064,2.0393,1.9407,1.8797,1.8446,0.0,0.0,0.0,0.0,0.0,0.0,0.0,0.0,0.0,0.0,0.0,0.0,0.0,0.0,0.0,0.0,0.0,0.0,0.0,0.0,0.0,0.0,0.0,0.0,0.0,0.0,0.0,0.0,0.0,0.0,0.0,2.3495,2.3852,2.3653,2.4276,2.499,2.5623,2.6256,2.6802,2.7299,2.8228,2.8812,2.8812,2.9208,2.9456,2.9456,2.9943,3.0197,3.0197,3.1167,3.1794,3.1958,3.2437,3.2766,3.2961,3.2961,3.2961,3.2961,3.2961,3.2961,3.2961,3.2961,3.2961,3.2946,3.3126,3.329,3.3403,3.3293,3.3485,3.385,3.401,3.4403,3.4806,0.9854,0.9584,0.9393,0.9733,1.019,1.0566,1.0758,1.1673,1.2466,1.285,1.3731,1.4583,1.5311,1.5753,1.6128,1.6475,1.65,1.65,1.65,1.6543,1.6641,1.6782,1.7413,1.7983,1.8513,1.9478,2.0279,2.0863,2.1534,2.188,2.1956,2.2162,2.2295,2.226,2.2134,2.1924,2.1612,2.1549,2.1326,2.093,2.019,1.9662,1.9305,1.8941,1.8611,1.8302,1.8063,1.7861,1.7614,1.7165,0.0,0.0,0.0,0.0,0.0,0.0,0.0,0.0,0.0,0.0,0.0,0.0,0.0,0.0,0.0,0.0,0.0,0.0,0.0,0.0,0.0,0.0,0.0,0.0,2.4684,2.5143,2.5248,2.5688,2.6207,2.6869,2.762,2.8272,2.8643,2.9416,2.9871,2.9871,3.0195,3.0522,3.0791,3.115,3.148,3.1749,3.2512,3.2931,3.2931,3.3305,3.3499,3.3499,3.3499,3.3499,3.3499,3.3499,3.3499,3.3499,3.3591,3.3774,3.4014,3.4044,3.4368,3.4766,0.0,0.0,0.0,0.0,3.5885,3.6406,0.9934,0.9695,0.9633,1.0182,1.0434,1.0715,1.114,1.1959,1.2634,1.295,1.4123,1.5087,1.5454,1.6021,1.6436,1.65,1.65,1.65,1.6522,1.6654,1.6782,1.6897,1.7767,1.8539,1.9114,2.015,2.0986,2.1639,2.2298,2.2688,2.2808,2.3284,2.3509,2.3509,2.3385,2.2966,2.2358,2.2321,2.1885,2.1227,2.1154,2.0733,2.001,1.9243,1.8893,1.8803,1.862,1.8576,1.8523,1.822,0.0,0.0,0.0,0.0,0.0,0.0,0.0,0.0,0.0,0.0,0.0,0.0,0.0,0.0,0.0,0.0,0.0,0.0,0.0,0.0,0.0,0.0,0.0,0.0,2.6017,2.6627,2.7377,2.7539,2.7776,2.8278,2.905,2.9533,2.9533,3.0257,3.0731,3.0731,3.1331,3.1989,3.2587,3.2617,0.0,0.0,0.0,3.3604,3.3604,3.3679,3.3724,3.374,3.3724,3.3724,3.374,3.374,3.374,3.3755,3.3954,3.4348,3.4864,3.4978,3.5685,3.6543,3.4692,3.4266,3.4873,3.5927,3.6727,3.7243,1.0433,1.04,1.0436,1.0718,1.0889,1.1033,1.1174,1.2075,1.2935,1.3478,1.4534,1.5428,1.5997,1.6256,1.6436,1.65,1.65,1.6556,1.6654,1.6782,1.6897,1.6981,1.8371,1.9207,1.9348,2.1246,2.2332,2.2467,2.3095,2.3394,2.343,2.3528,2.3588,2.3588,2.3494,2.337,2.3244,2.3142,2.2952,2.2637,2.2169,2.1216,2.0088,1.9918,1.9508,1.9045,1.8988,1.8969,1.8969,1.8912,1.8931,1.895,1.8726,1.85,0.0,0.0,0.0,0.0,0.0,0.0,0.0,0.0,0.0,0.0,0.0,0.0,0.0,0.0,0.0,0.0,0.0,0.0,0.0,2.6927,2.7255,2.7763,2.8973,2.9543,2.9694,2.9226,2.9829,3.03,3.03,3.1391,3.2123,3.2123,3.2736,3.317,3.3305,3.3305,3.3365,3.3499,3.4008,3.4324,3.4324,3.4831,3.5164,3.5279,3.5164,0.0,3.5279,3.5279,3.5279,3.5279,3.5499,3.5641,3.5766,3.5782,3.6213,3.6848,3.6771,3.679,3.6934,3.7036,3.7552,3.8051,1.0563,1.0602,1.0669,1.0862,1.1006,1.112,1.1185,1.2121,1.2963,1.344,1.4379,1.5233,1.5824,1.5957,1.6076,1.6328,1.6414,1.6513,1.6675,1.6825,1.6918,1.7002,1.8542,1.9549,1.9901,2.1739,2.2853,2.3152,2.3445,2.3595,2.3595,2.3595,2.3595,2.3595,2.3566,2.3538,2.3509,2.3444,2.3334,2.3172,2.2798,2.2052,2.1099,2.0689,2.0146,1.9595,1.9595,1.9391,1.9101,1.9101,1.9101,1.9082,1.8988,1.8841,1.8688,0.0,0.0,0.0,0.0,0.0,0.0,0.0,0.0,0.0,0.0,0.0,0.0,0.0,0.0,2.4616,2.5401,0.0,2.6867,2.7934,2.8393,2.8948,2.9909,3.0313,3.036,2.999,3.0883,3.1509,3.1509,3.2422,3.3006,3.3006,3.3305,3.3649,3.3963,3.3978,3.4143,3.4487,3.4816,3.5045,3.511,3.5424,3.5686,3.5863,3.5797,3.5797,3.5863,3.5863,3.5863,3.5863,3.6022,3.6258,3.6585,3.6981,3.734,3.7613,3.7818,3.7982,3.8122,3.8403,3.873,3.8989,1.0694,1.0662,1.0669,1.0862,1.0987,1.1082,1.1176,1.2081,1.29,1.3232,1.4105,1.4903,1.5491,1.5568,1.5746,1.6166,1.6318,1.647,1.6654,1.6782,1.6897,1.6981,1.8439,1.9607,2.0373,2.1817,2.2903,2.3595,2.3595,2.3595,2.3595,2.3595,2.3595,2.3595,2.3595,2.3566,2.3516,2.3516,2.3451,2.3319,2.3179,2.2842,2.2308,2.1625,2.0915,2.0262,2.0146,1.9754,1.9275,1.9145,1.9101,1.9101,1.9101,1.912,1.9168,1.9261,1.929,0.0,0.0,0.0,0.0,0.0,0.0,0.0,0.0,2.2733,2.3622,2.3866,2.4819,2.5869,2.6662,2.7345,2.8064,2.8846,2.9415,2.9983,3.0612,3.0806,3.0896,3.0896,3.1854,3.2557,3.2691,3.3305,3.3679,3.3679,3.3799,3.4113,3.4683,3.4698,3.4953,3.5507,3.5554,3.5604,3.5752,3.5752,3.5863,3.6037,3.6005,3.6005,3.6037,3.6037,3.6037,3.6068,3.6179,3.6523,3.7041,3.7677,3.8039,3.8124,3.8124,3.8334,3.8679,3.9206,3.9478,3.9556,1.1095,1.0844,1.0669,1.0862,1.09,1.0968,1.1082,1.1969,1.2764,1.316,1.4094,1.4869,1.5289,1.5491,1.5746,1.6166,1.6318,1.6436,1.6522,1.6654,1.6782,1.6897,1.8118,1.925,2.0288,2.1463,2.259,2.3595,2.3595,2.3595,2.3595,2.3595,2.3595,2.3595,2.3595,2.361,2.3588,2.3588,2.356,2.3466,2.3319,2.3157,2.298,2.2781,2.1939,2.0828,2.0291,2.0059,1.9899,1.9304,1.9101,1.9101,1.9101,1.9176,1.9382,1.9851,2.0031,2.0191,2.068,2.0945,2.114,2.141,2.193,2.2551,0.0,2.3925,2.4642,2.5247,2.595,2.6677,2.736,2.8049,2.8876,3.0088,3.0357,3.0642,3.1286,3.1899,3.2287,3.2287,3.2422,3.2736,3.332,3.3978,3.4399,3.4399,3.4936,3.531,3.5385,3.5385,3.5464,3.5655,3.5688,3.5767,3.5973,3.5973,3.6022,3.6179,3.6068,3.6068,3.6179,3.6179,3.6179,3.6179,3.6383,3.6507,3.6569,3.6662,3.7013,3.749,3.749,3.7854,3.8334,3.8298,3.8634,3.9071,1.1215,1.1055,1.0943,1.0913,1.091,1.0949,1.1092,1.1919,1.2648,1.2921,1.3817,1.4558,1.4914,1.5311,1.5625,1.5824,1.6122,1.634,1.6436,1.6599,1.6718,1.6782,1.7927,1.8789,1.9248,2.094,2.2084,2.2621,2.3236,2.3545,2.3595,2.3595,2.3595,2.3595,2.3545,2.3538,2.3538,2.3458,2.3407,2.3363,2.3246,2.3135,2.3082,2.2947,2.2555,2.2026,2.1423,2.0944,0.0,2.0291,2.0204,2.0224,2.0298,2.0318,2.0342,2.0639,2.0766,2.0938,2.1665,2.1966,2.2263,2.3099,2.3508,2.3918,2.459,2.5285,2.5839,2.6123,2.7021,2.7844,2.8113,2.9011,2.9879,3.0417,3.0836,3.1316,3.1989,3.2303,3.2796,3.3559,3.3649,3.3769,3.4038,3.4681,3.507,3.507,3.534,3.5504,3.5504,3.5572,3.5638,3.5688,3.5831,3.5958,3.6116,3.6116,3.6211,3.6383,3.632,3.632,3.6383,3.6383,3.6383,3.6383,3.646,3.6492,3.6492,3.6492,3.6631,3.6877,3.6877,3.7222,3.7854,3.8507,3.8892,3.9152,1.1563,1.1466,1.1358,1.1244,1.1252,1.1229,1.1067,1.1763,1.2351,1.2497,1.3355,1.4139,1.4628,1.504,1.5334,1.5457,1.5802,1.6078,1.6175,1.6448,1.6611,1.6611,1.7505,1.8137,1.8433,2.0009,2.1054,2.1585,2.252,2.3082,2.3255,2.3434,2.3545,2.3566,2.3326,2.3319,2.3487,2.3194,2.315,2.3297,2.3135,2.3105,2.3082,2.2947,2.2888,2.2815,2.2222,2.1685,2.1249,2.1061,2.1003,2.1023,2.1105,2.1105,2.1108,2.1386,2.1735,2.2224,2.3066,2.3367,2.3693,2.4634,2.4874,2.5053,2.5734,2.6243,2.6692,2.7066,2.7919,2.8712,2.9056,2.9879,3.0567,3.0761,3.1331,3.1944,3.2422,3.2826,3.341,3.4399,3.4668,3.4788,3.4788,3.522,3.5537,3.5554,3.5554,3.5587,3.5619,3.575,3.5784,3.5847,3.599,3.6116,3.6274,3.6274,3.6352,3.6492,3.6492,3.6492,3.6492,3.6492,3.6492,3.6492,3.6492,3.6492,3.6492,3.6492,3.6492,3.6523,3.6693,3.7013,3.7549,3.8756,3.9206,3.9259,1.2335,1.2103,1.1923,1.2042,1.217,1.1954,1.1045,1.1431,1.1824,1.1824,1.2701,1.3645,1.4502,1.4685,1.4834,1.5085,1.5412,1.5613,1.5613,1.6132,1.6414,1.6414,1.6624,1.7252,1.8286,1.8503,1.9292,2.0731,2.1413,2.1953,2.2346,2.3002,2.3385,2.3473,2.2822,2.2889,2.3466,2.2799,2.2822,2.3297,2.3135,2.3105,2.3082,2.2947,2.2888,2.2815,2.2222,2.1989,2.1859,2.122,2.1003,2.1003,2.1003,2.1079,2.1322,2.1992,2.315,2.4382,2.5097,2.5307,2.536,2.5523,2.5561,2.5749,2.6408,2.6572,2.6961,2.8263,2.8577,2.8981,3.0208,3.0477,3.0717,3.1361,3.2019,3.2497,3.2512,3.3619,3.4459,3.4503,3.507,3.5474,3.5474,3.5489,3.5539,3.5688,3.5688,3.5799,3.5973,3.6005,3.6053,3.6164,3.6196,3.6274,3.6492,3.6492,3.6492,3.6492,3.6492,3.6492,3.6492,3.6492,3.6492,3.6492,3.6492,3.6492,3.6492,3.6492,3.6492,3.6554,3.7148,3.7387,3.7549,3.8756,3.9206,3.9206,1.2434,1.2393,1.2317,1.2134,1.2212,1.2182,1.1882,1.2006,1.2163,1.2246,1.2881,0.0,0.0,0.0,0.0,0.0,1.5165,1.5446,1.5591,1.5846,1.6078,1.6253,1.6426,1.6674,1.7033,1.7813,1.8521,1.9117,2.0358,2.1054,2.1236,2.1792,2.2055,2.2076,2.1789,2.1768,2.1951,2.1627,2.1605,2.1768,2.1705,2.1719,2.1698,2.1656,2.1463,2.1254,0.0,2.1679,2.2039,2.1457,2.1501,2.1823,2.1964,2.2214,2.2615,2.3474,2.4363,2.5082,2.5446,2.5529,2.5657,2.6153,2.6258,2.6437,2.7121,2.7615,2.8053,2.8502,2.928,2.9998,3.0417,3.0853,3.1241,3.1466,3.2049,3.2662,3.3095,3.3918,3.4683,3.51,3.537,3.5504,3.5504,3.5504,3.5554,3.5688,3.5688,3.5799,3.6005,3.6085,3.6148,3.6196,3.6352,3.6414,3.6492,3.6492,3.6492,3.6492,3.6492,3.6492,3.6492,3.6492,3.6492,3.6492,3.6492,3.6492,3.6492,3.6492,3.6492,3.6554,3.7148,3.7621,3.8096,3.8892,3.9444,3.9799,1.2685,1.2742,1.2758,1.2591,1.2674,0.0,0.0,0.0,0.0,0.0,0.0,0.0,0.0,0.0,0.0,0.0,0.0,1.5097,1.5232,1.5468,1.5726,1.5957,1.611,1.6231,1.634,1.7044,1.7558,1.7845,1.9072,1.9788,2.0034,2.0721,2.1058,2.1099,2.0955,2.1003,2.1167,2.0878,2.1119,2.1634,2.1026,2.1034,2.1371,2.0748,2.0358,0.0,2.0194,2.0579,2.1079,2.1272,2.1574,2.1944,2.2303,2.2973,2.3768,2.4578,2.531,2.5908,2.6219,2.6303,2.6408,2.6866,2.6971,2.7076,2.7495,2.8113,2.8667,2.8906,2.9774,3.0582,3.0821,3.1212,3.1511,3.1511,3.2243,3.3021,3.344,3.431,3.5076,3.5527,3.5636,3.5683,3.5683,3.5683,3.5701,3.5799,3.5847,3.5958,3.6163,3.6258,3.6305,3.6305,3.6414,3.6492,3.6492,3.6492,3.6492,3.6492,3.6492,3.6492,3.6492,3.6492,3.6492,3.6492,3.6492,3.6492,3.6492,3.6492,3.6492,3.6554,3.7148,3.7637,3.8067,3.8892,3.9444,3.9799,1.3085,1.3176,1.3266,0.0,0.0,0.0,0.0,0.0,0.0,0.0,0.0,0.0,0.0,0.0,0.0,0.0,0.0,0.0,1.4604,1.5017,1.5368,1.5568,1.5691,1.5881,1.6156,1.6178,1.6436,1.693,1.7605,1.8191,1.8725,1.9774,2.0323,2.0415,2.0245,2.0464,2.0962,2.0415,2.11,2.2474,2.0882,2.0932,2.177,2.0125,1.9532,1.9488,1.892,1.8796,1.9116,2.0619,2.1229,2.1482,2.213,2.3368,2.4677,2.5233,2.5998,2.6806,2.742,2.7625,2.7625,2.76,2.7625,2.7625,2.76,2.8113,2.8786,2.9472,3.0073,3.0717,3.1376,3.1511,3.1511,3.1511,3.2602,3.3485,3.353,3.4766,3.5674,3.572,3.5863,3.6005,3.6005,3.6005,3.6005,3.6005,3.6116,3.6274,3.6492,3.6492,3.6492,3.6492,3.6492,3.6492,3.6492,3.6492,3.6492,3.6492,3.6492,3.6492,3.6492,3.6492,3.6492,3.6492,3.6492,3.6523,3.6554,3.6554,3.6554,3.6662,3.7268,3.749,3.7637,3.881,3.9259,3.9339,0.0,0.0,0.0,0.0,0.0,0.0,0.0,0.0,0.0,0.0,0.0,0.0,0.0,0.0,0.0,0.0,0.0,0.0,1.4581,1.4719,1.4914,1.5221,1.5368,1.5458,1.5537,1.577,1.5969,1.611,1.6777,1.7183,1.7318,1.7946,1.8262,1.8282,1.8241,1.8289,1.8433,1.8282,1.8478,1.8835,1.8397,1.8428,1.865,1.8194,1.7824,1.7561,1.7761,1.7497,1.7393,1.9473,2.1052,2.2298,2.2868,2.4102,2.5359,2.5508,2.6398,2.739,2.754,2.7675,2.774,2.7625,2.7675,2.7715,2.7625,2.8113,2.8786,2.9472,3.0073,3.0717,3.1376,3.1511,3.1539,3.1698,3.2404,3.3126,3.3789,3.4637,3.5349,3.5866,3.5973,3.6005,3.6005,3.6085,3.6148,3.6148,3.6179,3.6274,3.6492,3.6492,3.6492,3.6492,3.6492,3.6492,3.6492,3.6492,3.6492,3.6492,3.6492,3.6492,3.6492,3.6492,3.6492,3.6492,3.6492,3.6754,3.7178,3.7178,3.7431,3.7895,3.8507,3.8728,3.8838,3.9575,3.9867,3.9876,0.0,0.0,0.0,0.0,0.0,0.0,0.0,0.0,0.0,0.0,0.0,0.0,0.0,0.0,0.0,0.0,0.0,0.0,0.0,1.4454,1.4639,1.4903,1.5006,1.5097,1.521,1.539,1.5558,1.5714,1.6086,1.6367,1.6552,1.6993,1.7188,1.7188,1.7415,1.7504,1.7504,1.7504,1.7811,0.0,0.0,1.7518,1.7939,1.7136,1.6803,1.6752,1.6824,1.7252,1.803,1.9543,2.1162,2.2581,2.3127,2.4357,2.5615,2.5615,2.6542,2.76,2.76,2.77,2.7765,2.7625,2.77,2.7765,2.7625,2.8113,2.8712,2.9071,2.9654,3.0298,3.0928,3.1147,3.1338,3.1739,3.2385,3.3123,3.3894,3.4623,3.5338,3.6009,3.6163,3.6241,3.6241,3.6289,3.6352,3.6352,3.6352,3.6383,3.6492,3.6492,3.6492,3.6492,3.6492,3.6492,3.6492,3.6492,3.6492,3.6492,3.6492,3.6492,3.6492,3.6492,3.6492,3.6523,3.6785,3.7104,3.7417,3.7695,3.7982,3.8334,3.8684,3.881,3.8892,3.947,3.9722,3.9747,0.0,0.0,0.0,0.0,0.0,0.0,0.0,0.0,0.0,1.3597,1.3597,1.3597,1.3597,1.3597,0.0,0.0,0.0,0.0,0.0,0.0,1.4454,1.4651,1.4662,1.4766,1.4994,1.504,1.5198,1.5479,1.5524,1.5702,1.6057,1.6423,1.6582,1.6603,1.6988,1.7175,1.7175,1.7216,1.7834,1.8673,1.7229,1.733,1.8154,0.0,1.6272,1.6552,1.6228,1.7586,1.9649,2.0201,2.1366,2.2663,2.315,2.4357,2.5591,2.5591,2.6542,2.76,2.76,2.77,2.7765,2.7625,2.77,2.7765,2.7625,2.8064,2.8487,2.8577,2.9056,2.9639,3.0268,3.0526,3.0878,3.1571,3.2275,3.3012,3.3802,3.4592,3.5355,3.6028,3.6321,3.6492,3.6492,3.6492,3.6492,3.6492,3.6492,3.6492,3.6492,3.6492,3.6492,3.6492,3.6492,3.6492,3.6492,3.6492,3.6492,3.6492,3.6492,3.6492,3.6492,3.6492,3.6492,3.6523,3.7043,3.7387,3.7549,3.8096,3.839,3.853,3.853,3.853,3.8585,3.9135,3.9312,3.9391,0.0,0.0,0.0,0.0,0.0,0.0,0.0,0.0,0.0,0.0,1.3597,1.3597,0.0,0.0,0.0,0.0,0.0,0.0,0.0,0.0,0.0,1.4443,1.4454,1.4466,1.4512,1.4674,1.48,1.4857,1.5085,1.5221,1.5289,1.5367,1.539,1.5412,1.549,1.5512,1.5534,1.5756,1.5969,1.6152,1.6021,1.6104,1.6312,1.6262,0.0,0.0,1.6488,1.7861,1.9516,2.0179,2.1548,2.3023,2.3231,2.4274,2.5458,2.5553,2.6542,2.76,2.76,2.77,2.7765,2.7625,2.77,2.7765,2.7625,2.769,2.7944,2.8487,2.8682,2.8966,2.9624,2.9771,3.0105,3.0988,3.1268,3.1838,3.3299,3.4169,3.4861,3.5538,3.6153,3.6492,3.6492,3.6492,3.6492,3.6492,3.6492,3.6492,3.6492,3.6492,3.6492,3.6492,3.6492,3.6492,3.6492,3.6492,3.6492,3.6492,3.6492,3.6492,3.6492,3.6492,3.6492,3.6523,3.66,3.7222,3.8153,3.8266,3.8903,3.9799,3.9799,3.9799,3.9799,3.9918,3.9927,3.9969,0.0,0.0,0.0,0.0,0.0,0.0,0.0,1.3597,1.3597,1.3597,1.3597,1.3597,1.3597,1.3597,1.3597,0.0,0.0,0.0,0.0,0.0,0.0,1.4384,1.4396,1.4396,1.4396,1.4489,1.4593,1.4708,0.0,1.4971,1.5108,1.5108,1.5108,1.5108,1.5108,1.5108,1.5108,1.5244,1.5289,1.5311,1.5558,1.5647,1.5669,1.5944,0.0,0.0,1.6921,1.8198,1.9516,2.0287,2.1635,2.3037,2.3246,2.4266,2.5435,2.5553,2.6542,2.76,2.76,2.77,2.7765,2.7625,2.7765,2.784,2.765,2.765,2.778,2.8019,2.8094,2.8263,2.8951,2.915,2.9572,3.0719,3.1007,3.1616,3.3087,3.4,3.4751,3.5429,3.6076,3.6492,3.6492,3.6492,3.6492,3.6492,3.6492,3.6492,3.6492,3.6492,3.6492,3.6492,3.6492,3.6492,3.6492,3.6492,3.6492,3.6492,3.6492,3.6492,3.6492,3.6492,3.6492,3.6523,3.6831,3.7474,3.8306,3.8629,3.9295,4.0096,4.0096,4.0096,4.0096,4.0096,4.0096,4.0096,0.0,0.0,0.0,0.0,0.0,0.0,0.0,1.3597,1.3597,1.3597,1.3597,1.3597,1.3597,1.3597,1.3597,0.0,0.0,0.0,0.0,0.0,0.0,0.0,0.0,0.0,1.4396,0.0,0.0,1.4639,1.4639,0.0,0.0,0.0,0.0,0.0,1.4949,1.4949,1.4949,1.4994,1.504,0.0,0.0,1.5536,1.558,0.0,0.0,0.0,0.0,1.8254,1.9274,2.033,2.1585,2.2714,2.3135,2.4117,2.5263,2.5687,2.6557,2.742,2.7555,2.7675,2.774,2.7625,2.779,2.7875,2.747,2.749,2.751,2.7235,2.718,2.739,2.8053,2.8261,2.8785,3.0138,3.0688,3.1369,3.2604,3.3758,3.4705,3.5229,3.5984,3.6492,3.6492,3.6492,3.6492,3.6492,3.6492,3.6492,3.6492,3.6492,3.6492,3.6492,3.6492,3.6492,3.6492,3.6492,3.6492,3.6492,3.6492,3.6492,3.6492,3.6492,3.6585,3.6723,3.7178,3.7825,3.8546,3.9001,3.9566,4.0096,4.0096,4.0096,4.0096,4.0096,4.0096,4.0096,0.0,0.0,0.0,0.0,0.0,0.0,0.0,1.3597,1.3597,1.3597,1.3597,1.3597,1.3597,1.3597,1.3597,0.0,0.0,0.0,0.0,0.0,0.0,0.0,0.0,0.0,0.0,0.0,0.0,1.4419,1.4419,0.0,0.0,0.0,0.0,0.0,0.0,1.4466,1.4477,1.4651,0.0,0.0,0.0,0.0,0.0,0.0,0.0,0.0,0.0,1.7663,1.8472,2.0147,2.1198,2.1945,2.2826,2.3715,2.4672,2.6081,2.6587,2.6811,2.7435,2.7625,2.7625,2.76,2.77,2.7625,2.6861,2.6789,2.6672,2.5937,2.5794,2.5989,2.6662,2.6791,2.7275,2.874,2.9607,3.0418,3.1274,3.3159,3.452,3.4582,3.5707,3.6492,3.6492,3.6492,3.6492,3.6492,3.6492,3.6492,3.6492,3.6492,3.6492,3.6492,3.6492,3.6492,3.6492,3.6492,3.6492,3.6492,3.6492,3.6492,3.6492,3.6492,3.6816,3.7328,3.7387,3.8055,3.9109,3.9179,3.9566,4.0096,4.0096,4.0096,4.0096,4.0096,4.0096,4.0096,0.0,0.0,0.0,0.0,0.0,0.0,1.3597,1.3597,1.3597,1.3597,1.3597,1.3597,1.3597,1.3597,1.3597,1.3597,0.0,0.0,0.0,0.0,0.0,0.0,0.0,0.0,0.0,0.0,1.4396,1.4396,1.4396,0.0,0.0,0.0,0.0,0.0,0.0,1.4396,1.4396,1.4616,0.0,0.0,0.0,0.0,0.0,0.0,0.0,0.0,0.0,0.0,1.8521,2.0013,2.1134,2.2098,2.3322,2.3647,2.3811,2.498,2.621,2.718,2.7046,2.7285,2.76,2.76,2.7415,2.7103,2.6696,2.6393,2.6079,2.5683,2.5615,2.5689,2.5959,2.6318,2.6911,2.7931,2.9161,3.0243,3.097,3.3041,3.4505,3.4505,3.566,3.6492,3.6492,3.6492,3.6492,3.6492,3.6492,3.6492,3.6492,3.6492,3.6492,3.6492,3.6492,3.6492,3.6492,3.6492,3.6492,3.6492,3.6492,3.6492,3.6492,3.6492,3.6631,3.6861,3.7238,3.7883,3.8684,3.9055,3.9566,4.0096,4.0096,4.0096,4.0096,4.0096,4.0096,4.0096,0.0,0.0,0.0,0.0,0.0,1.3597,1.3597,1.3597,1.3597,1.3597,1.3597,1.3597,1.3597,1.3597,1.3597,1.3597,1.3763,0.0,0.0,0.0,0.0,0.0,0.0,0.0,0.0,0.0,1.4396,1.4396,1.4396,1.4396,0.0,0.0,1.4396,1.4396,0.0,0.0,0.0,0.0,0.0,0.0,0.0,0.0,0.0,0.0,0.0,0.0,0.0,0.0,0.0,0.0,0.0,2.1838,2.3081,2.3455,2.3596,2.4496,2.5685,2.6623,2.6378,2.6632,2.7016,2.7016,2.6744,2.6425,2.6072,2.5761,2.5401,2.5069,2.5016,2.5076,2.5262,2.5854,2.6512,2.721,2.8832,3.0156,3.0642,3.289,3.4505,3.4505,3.566,3.6492,3.6492,3.6492,3.6492,3.6492,3.6492,3.6492,3.6492,3.6492,3.6492,3.6492,3.6492,3.6492,3.6492,3.6492,3.6492,3.6492,3.6492,3.6492,3.6492,3.6492,3.6616,3.6816,3.7401,3.801,3.8601,3.9216,3.9722,4.0096,4.0096,4.0096,4.0096,4.0096,4.0096,4.0096,0.0,0.0,0.0,0.0,0.0,0.0,1.3597,1.3597,1.3597,1.3597,1.3597,1.3597,1.3597,1.3597,1.3597,1.3597,1.3844,0.0,0.0,0.0,0.0,0.0,0.0,0.0,0.0,0.0,1.4396,1.4396,1.4396,1.4396,1.4396,1.4396,1.4396,1.4396,0.0,0.0,0.0,0.0,0.0,0.0,0.0,0.0,0.0,0.0,0.0,0.0,0.0,0.0,0.0,0.0,0.0,0.0,0.0,2.2965,2.4265,2.5133,2.498,2.47,2.5403,2.563,2.563,2.563,2.5731,2.5605,2.4792,2.4717,2.4573,2.3781,2.3625,2.3819,2.4485,2.5158,2.5839,2.6497,2.853,3.0,3.0015,3.2596,3.4505,3.4505,3.566,3.6492,3.6492,3.6492,3.6492,3.6492,3.6492,3.6492,3.6492,3.6492,3.6492,3.6492,3.6492,3.6492,3.6492,3.6492,3.6492,3.6492,3.6492,3.6492,3.6492,3.6492,3.6846,3.7401,3.8039,3.8629,3.9232,3.9825,4.0096,4.0096,4.0096,4.0096,4.0096,4.0096,4.0096,4.0096,0.0,0.0,0.0,0.0,0.0,0.0,0.0,1.3597,1.3597,1.3597,1.3597,1.3597,1.3597,1.3597,1.3597,1.3597,1.3763,0.0,0.0,0.0,0.0,0.0,0.0,0.0,0.0,1.4396,1.4396,1.4396,1.4396,1.4396,1.4396,1.4396,1.4396,1.4396,1.4396,1.4454,0.0,0.0,0.0,0.0,0.0,0.0,0.0,0.0,0.0,0.0,0.0,0.0,0.0,0.0,0.0,0.0,0.0,0.0,0.0,2.315,2.414,2.5078,2.4955,2.5247,2.5615,2.5615,2.5294,2.4927,2.4649,2.4275,2.3914,2.364,2.3595,2.367,2.3879,2.4852,2.5674,2.5884,2.8203,3.0,3.0,3.2139,3.3921,3.4443,3.566,3.6492,3.6492,3.6492,3.6492,3.6492,3.6492,3.6492,3.6492,3.6492,3.6492,3.6492,3.6492,3.6492,3.6492,3.6492,3.6492,3.6492,3.6492,3.6492,3.6492,3.6492,3.66,3.6831,3.7867,3.839,3.8657,3.9679,4.0096,4.0096,4.0096,4.0096,4.0096,4.0096,4.0096,4.0096,0.0,0.0,0.0,0.0,0.0,0.0,0.0,1.3597,1.3597,1.3597,1.3597,1.3597,1.3597,1.3597,1.3597,1.3597,1.3692,0.0,0.0,0.0,0.0,0.0,0.0,0.0,1.4396,1.4396,1.4396,1.4396,1.4396,1.4396,1.4396,1.4396,1.4396,1.4396,1.4477,1.4558,0.0,0.0,0.0,0.0,0.0,0.0,1.843,0.0,0.0,0.0,0.0,0.0,0.0,0.0,0.0,0.0,0.0,0.0,0.0,0.0,2.3024,2.4245,2.4216,2.4537,2.4852,2.4852,2.4515,2.4216,2.4216,2.3909,2.3595,2.3595,2.3595,2.3595,2.3595,2.4702,2.5615,2.5661,2.8117,3.0015,3.0068,3.1983,3.3767,3.4767,3.583,3.6492,3.6492,3.6492,3.6492,3.6492,3.6492,3.6492,3.6492,3.6492,3.6492,3.6492,3.6492,3.6492,3.6492,3.6492,3.6492,3.6492,3.6492,3.6492,3.6492,3.6492,3.6492,3.6585,3.778,3.8306,0.0,3.9348,3.9876,4.0087,3.985,3.9918,4.0096,4.0096,4.0096,4.0096,0.0,0.0,0.0,0.0,0.0,0.0,0.0,1.3597,1.3597,1.3597,1.3597,1.3597,1.3597,1.3597,1.3597,1.361,0.0,0.0,0.0,0.0,0.0,0.0,0.0,0.0,1.4396,1.4396,1.4396,1.4396,1.4396,1.4396,1.4396,1.4419,1.4443,1.4466,1.4685,1.4903,1.5244,0.0,0.0,0.0,1.8061,1.8473,0.0,0.0,0.0,0.0,0.0,0.0,0.0,0.0,0.0,0.0,0.0,0.0,0.0,0.0,0.0,0.0,0.0,2.3535,2.3595,2.3595,2.3595,2.3595,2.3595,2.3595,0.0,2.3595,2.3595,2.361,2.3655,2.4732,2.5676,2.5853,2.8213,3.0068,3.0188,3.21,3.3952,3.5275,3.6045,3.6492,3.6492,3.6492,3.6492,3.6492,3.6492,3.6492,3.6492,3.6492,3.6492,3.6492,3.6492,3.6492,3.6492,3.6492,3.6492,3.6492,3.6492,3.6523,3.6554,3.6554,3.6585,3.6693,3.7867,3.8334,3.8351,3.9001,3.9566,3.9995,3.9487,3.9618,4.0096,4.0096,4.0096,4.0096,0.0,0.0,0.0,0.0,0.0,0.0,0.0,0.0,0.0,0.0,1.3597,1.3597,1.3597,1.3597,1.3644,0.0,0.0,0.0,0.0,0.0,0.0,0.0,0.0,0.0,1.4396,1.4396,1.4396,1.4396,1.4396,1.4396,1.4396,1.4766,1.4983,1.5085,1.5244,1.5491,1.5802,1.6144,0.0,0.0,1.8056,1.8219,0.0,0.0,0.0,0.0,1.7488,1.7835,0.0,0.0,0.0,0.0,0.0,0.0,0.0,0.0,2.1093,2.168,2.2038,0.0,2.3595,2.3595,2.3595,2.3595,0.0,2.3595,2.3595,2.3595,2.3595,2.3803,2.4401,2.5191,2.596,2.6606,2.8652,3.0162,3.0188,3.2514,3.4366,3.4705,3.5799,3.6492,3.6492,3.6492,3.6492,3.6492,3.6492,3.6492,3.6492,3.6492,3.6492,3.6492,3.6492,3.6492,3.6492,3.6492,3.6492,3.6492,3.6492,3.6754,3.7178,3.7178,3.7431,3.7924,3.8657,3.8739,3.8362,3.9454,3.9696,3.9444,3.9773,3.9969,4.0096,4.0096,4.0096,4.0096,0.0,0.0,0.0,0.0,0.0,0.0,0.0,0.0,0.0,0.0,0.0,1.3597,1.3597,1.3597,0.0,0.0,0.0,0.0,0.0,0.0,0.0,0.0,0.0,1.4396,1.4396,1.4396,1.4396,1.4396,1.4396,1.4396,1.4396,1.4743,1.4971,1.5028,1.5356,1.5746,1.6175,1.6598,1.7191,1.7843,1.8345,0.0,0.0,0.0,0.0,0.0,1.7693,1.7996,0.0,1.8498,1.8774,1.9101,0.0,0.0,0.0,0.0,2.0415,2.0991,2.1187,2.2188,2.3197,2.3197,2.3385,2.3595,2.3595,2.3595,2.3595,2.3595,2.3893,2.4273,2.4716,2.5886,2.6964,2.7479,2.9307,3.0888,3.1581,3.3308,3.4613,3.4936,3.5861,3.6492,3.6492,3.6492,3.6492,3.6492,3.6492,3.6492,3.6492,3.6492,3.6492,3.6492,3.6492,3.6492,3.6492,3.6492,3.6492,3.6492,3.6492,3.6816,3.7417,3.7417,3.7738,3.8334,3.8947,3.9001,3.8767,3.9418,3.967,3.9618,3.967,3.9867,4.0096,4.0096,3.9901,3.9696,0.0,0.0,0.0,0.0,0.0,0.0,0.0,0.0,0.0,0.0,0.0,0.0,0.0,0.0,0.0,0.0,0.0,0.0,0.0,0.0,0.0,0.0,1.4396,1.4396,1.4396,1.4473,1.4517,1.4517,1.4629,1.4653,1.4576,1.4855,1.4959,1.4949,1.5434,1.5932,1.6457,1.7293,1.7874,1.8259,1.8557,0.0,0.0,0.0,0.0,0.0,0.0,0.0,0.0,1.8644,1.8917,1.9261,1.9261,0.0,0.0,0.0,0.0,0.0,2.0501,2.1515,2.2568,2.2673,2.3092,2.349,2.358,2.3616,2.3646,2.3773,2.4341,2.4903,2.5115,2.6745,2.8103,2.8348,2.9996,3.1738,3.3185,3.4014,3.4751,3.5429,3.6076,3.6492,3.6492,3.6492,3.6492,3.6492,3.6492,3.6492,3.6492,3.6492,3.6492,3.6492,3.6585,3.6631,3.6631,3.6631,3.6631,3.6631,3.6723,3.7088,3.7666,3.7666,3.7998,3.8585,3.9109,3.9286,3.9206,3.9286,3.9575,3.9918,3.9497,3.9644,4.0096,4.0096,3.9722,3.9206,0.0,0.0,0.0,0.0,0.0,0.0,0.0,0.0,0.0,0.0,0.0,0.0,0.0,0.0,0.0,0.0,0.0,0.0,0.0,0.0,0.0,1.4396,1.4396,1.4396,1.4396,1.4777,1.4996,1.4996,1.5661,1.5773,1.5346,1.601,1.6201,1.5969,1.6238,1.6518,1.6833,1.7256,1.7642,1.7977,1.8018,0.0,0.0,0.0,0.0,0.0,0.0,0.0,0.0,1.9248,1.9578,1.9943,1.9943,0.0,0.0,0.0,0.0,0.0,1.98,2.0827,2.1999,2.2568,2.2763,2.2972,2.3475,2.3696,2.3926,2.4505,2.4805,2.534,2.6611,2.7566,2.8394,2.9116,3.0432,3.1832,3.3213,3.4014,3.4751,3.5429,3.6076,3.6492,3.6492,3.6492,3.6492,3.6492,3.6492,3.6492,3.6492,3.6492,3.6492,3.6492,3.7013,3.7268,3.7268,3.7268,3.7268,3.7268,3.778,3.8351,3.892,3.892,3.9242,3.9825,3.9901,3.967,3.9232,3.9747,3.9722,3.9391,3.9799,4.002,4.0096,4.0096,3.9722,3.9206,0.0,0.0,0.0,0.0,0.0,0.0,0.0,0.0,0.0,0.0,0.0,0.0,0.0,0.0,0.0,0.0,0.0,0.0,0.0,0.0,1.4396,1.4396,1.4396,1.4527,1.4766,1.4996,1.5372,1.5948,1.602,1.6084,1.6145,1.6159,1.6192,1.625,1.6355,1.6676,1.7178,1.7344,1.7591,1.7902,0.0,0.0,0.0,0.0,0.0,0.0,0.0,0.0,0.0,0.0,2.0206,2.0524,2.0204,0.0,0.0,0.0,0.0,0.0,1.9654,2.0408,2.1321,2.1999,2.2729,2.3462,2.4093,2.4346,2.463,2.5319,2.5849,2.6504,2.7544,2.8658,2.9751,3.0859,3.1536,3.2413,3.3783,3.4289,3.489,3.5937,3.6307,3.6492,3.6492,3.6492,3.6492,3.6492,3.6492,3.6631,3.6983,3.6983,3.7148,3.7474,3.7722,3.7883,3.7883,3.8226,3.8226,3.7883,3.8181,3.8629,3.9206,3.9206,3.9523,4.0096,4.0096,3.9927,3.9722,3.9995,3.9944,3.9722,3.9995,4.0096,4.0045,3.9722,3.9444,3.9206,0.0,0.0,0.0,0.0,0.0,0.0,0.0,0.0,0.0,0.0,0.0,0.0,0.0,0.0,0.0,0.0,0.0,0.0,0.0,1.4396,1.4396,1.4396,1.4512,1.4735,1.5088,1.5344,1.5865,1.665,1.6497,1.6548,1.6749,1.6275,1.6135,1.629,1.642,1.6816,1.7406,1.7475,1.7666,1.7902,0.0,0.0,0.0,0.0,0.0,0.0,0.0,0.0,0.0,0.0,0.0,0.0,0.0,0.0,0.0,1.9545,1.9395,1.9479,1.9829,2.0423,2.1111,2.1754,2.277,2.3767,2.4618,2.4925,2.5278,2.6115,2.6925,2.7708,2.8357,2.9659,3.1028,3.2198,3.2398,3.2875,3.4305,3.4505,3.5013,3.6322,3.6492,3.6554,3.6693,3.6569,3.6554,3.6693,3.6569,3.6754,3.7358,3.7417,3.7695,3.8278,3.8435,3.8518,3.8518,3.9109,3.9109,3.8518,3.864,3.8957,3.9418,3.9418,3.967,4.0096,4.0096,4.0096,4.0096,4.0096,4.0096,4.0096,4.0096,4.0096,4.002,3.9418,3.9286,3.9391,0.0,0.0,0.0,0.0,0.0,0.0,0.0,0.0,0.0,0.0,0.0,0.0,0.0,0.0,0.0,0.0,0.0,0.0,0.0,1.4396,1.4396,1.4396,1.4811,1.5085,1.5097,1.6084,1.6566,1.6514,1.7714,1.7859,1.6984,1.6811,1.6555,1.6312,1.6761,1.711,1.7413,1.7727,1.7882,1.7902,1.7902,0.0,0.0,0.0,0.0,0.0,0.0,0.0,0.0,0.0,0.0,0.0,0.0,0.0,2.0011,1.9545,1.9395,1.9583,2.0393,2.1126,2.1784,2.2463,2.2735,2.3209,2.4512,2.5006,2.5542,2.6841,2.7747,2.851,2.9187,3.0428,3.1551,3.2275,3.2398,3.2875,3.4305,3.4505,3.5013,3.6322,3.6492,3.6723,3.7268,3.6846,3.6723,3.7298,3.6816,3.6754,3.7358,3.7417,3.7695,3.8278,3.8821,3.9152,3.9152,3.9722,3.9722,3.9135,3.9696,3.9995,4.0045,4.0045,4.0045,4.0096,4.0096,4.0096,4.0096,4.0096,4.0096,4.0096,4.0096,4.0096,4.002,3.9418,3.9549,3.9969,0.0,0.0,0.0,0.0,0.0,0.0,0.0,0.0,0.0,0.0,0.0,0.0,0.0,0.0,0.0,0.0,0.0,0.0,0.0,1.4396,1.4535,1.4811,1.5017,1.5232,1.5534,1.622,1.6881,1.7492,1.8472,1.8564,1.7881,1.7688,1.7584,1.7549,1.7342,1.7413,1.7727,1.7862,1.7902,1.7902,1.7902,1.8119,0.0,0.0,0.0,0.0,0.0,0.0,0.0,0.0,2.1794,2.1815,2.077,2.0538,2.0491,1.9648,1.9395,1.9598,2.0452,2.1201,2.1949,2.2996,2.3715,2.4409,2.5334,2.6016,2.6857,2.8268,2.8793,2.9366,3.0443,3.1397,3.209,3.2351,3.2398,3.2875,3.4305,3.4505,3.5013,3.6322,3.6492,3.6723,3.7358,3.7178,3.7312,3.7895,3.7474,3.7576,3.8479,3.8238,3.849,3.9401,3.9627,3.9747,3.9747,3.9995,3.9995,3.9747,3.9995,4.0096,4.0096,4.0096,4.0096,4.0096,4.0096,4.0096,4.0096,4.0096,4.0096,4.0096,4.0096,4.0096,4.007,3.9825,3.9901,4.007,0.0,0.0,0.0,0.0,0.0,0.0,0.0,0.0,0.0,0.0,0.0,0.0,0.0,0.0,0.0,0.0,0.0,0.0,1.4396,1.4396,1.4605,1.5085,1.5232,1.5467,1.5788,1.6589,1.7311,1.7942,1.8911,1.9113,1.8597,1.844,1.8358,1.8279,1.7775,1.7686,1.7902,1.7902,1.7902,1.7902,1.7902,1.8255,0.0,0.0,0.0,0.0,0.0,0.0,0.0,0.0,2.1686,2.1772,2.0494,2.0509,2.0796,1.9706,1.9395,1.9642,2.0725,2.15,2.2323,2.361,2.4739,2.5766,2.648,2.7115,2.7931,2.9156,2.975,3.0381,3.1516,3.2074,3.2398,3.2398,3.2567,3.3121,3.4335,3.469,3.5244,3.6353,3.6492,3.68,3.7608,3.7533,3.778,3.8585,3.8051,3.8165,3.9269,3.8849,3.9038,4.0138,4.0163,4.0138,4.0096,4.0096,4.0096,4.0096,4.0096,4.0096,4.0096,4.0096,4.0096,4.0096,4.0096,4.0096,4.0096,4.0096,4.0096,4.0096,4.0096,4.0096,4.0096,4.0096,4.0096,4.0096,0.0,0.0,0.0,0.0,0.0,0.0,0.0,0.0,0.0,0.0,0.0,0.0,0.0,0.0,0.0,0.0,0.0,0.0,1.4396,1.4396,1.4605,1.5085,1.5557,1.581,1.581,1.7317,1.7958,1.7617,1.9083,1.9522,1.9019,1.9009,1.8767,1.8301,1.803,1.7902,1.7902,1.7902,1.7902,1.7902,1.7902,1.8255,1.8874,0.0,0.0,0.0,0.0,0.0,0.0,0.0,2.1423,2.1757,2.0494,2.0509,2.0782,1.9721,1.9409,1.9745,2.1277,2.2194,2.3017,2.4291,2.5723,2.701,2.7822,2.8226,2.8611,2.9289,3.0474,3.1597,3.2275,3.2398,3.2398,3.2398,3.2952,3.366,3.4397,3.509,3.5737,3.6415,3.6492,3.6967,3.821,3.7879,3.8121,3.9315,3.843,3.8346,3.9542,3.9022,3.9199,4.028,4.0305,4.0255,4.0096,4.0096,4.0096,4.0096,4.0096,4.0096,4.0096,4.0096,4.0096,4.0096,4.0096,4.0096,4.0096,4.0096,4.0096,4.0096,4.0096,4.0096,4.0096,4.0096,4.0096,4.0096,0.0,0.0,0.0,0.0,0.0,0.0,0.0,0.0,0.0,0.0,0.0,0.0,0.0,0.0,0.0,0.0,0.0,0.0,1.4396,1.4396,1.4605,1.5085,1.5232,1.5467,1.5788,1.7548,1.8624,1.901,1.9835,2.0024,1.9614,1.9545,1.9194,1.8644,1.8119,1.7902,1.7902,1.7902,1.7902,1.7902,1.8043,1.848,1.9044,0.0,0.0,0.0,0.0,0.0,0.0,0.0,0.0,0.0,2.0219,2.0219,2.0331,2.0151,2.0091,2.034,2.1396,2.2194,2.3122,2.4881,2.5763,2.6676,2.8323,2.8854,2.9311,3.054,3.149,3.2151,3.2351,3.2398,3.2398,3.2398,3.2952,3.3673,3.4527,3.5223,3.5934,3.6769,3.6847,3.7314,3.8474,3.8446,3.887,4.0087,3.9568,3.9516,4.0204,3.974,3.9765,4.0412,4.0337,4.028,4.0238,4.0163,4.0096,4.0096,4.0096,4.0096,4.0096,4.0096,4.0096,4.0096,4.0096,4.0096,4.0096,4.0096,4.0096,4.0096,4.0096,4.0096,4.0096,4.0096,4.0096,4.0096,0.0,0.0,0.0,0.0,0.0,0.0,0.0,0.0,0.0,0.0,1.428,1.4326,0.0,0.0,0.0,0.0,0.0,0.0,1.4396,1.4396,1.4605,1.5085,1.5277,1.5808,1.6745,1.7779,1.8728,1.9574,2.0151,2.0329,2.0127,1.9588,1.9152,1.8779,1.8174,1.7902,1.7902,1.7983,1.8023,1.8043,1.8242,1.8683,1.9225,0.0,0.0,0.0,0.0,0.0,0.0,0.0,0.0,0.0,2.0103,2.0103,2.0142,2.0328,2.0405,2.0592,2.1456,2.2353,2.3482,2.5181,2.5982,2.6944,2.9073,2.9817,3.0411,3.1567,3.2105,3.2398,3.2398,3.2398,3.2398,3.2398,3.3254,3.4112,3.4632,3.5574,3.6395,3.6938,3.7015,3.7449,3.8601,3.875,3.9289,4.0485,4.0137,4.0112,4.0631,4.0162,4.0087,4.0558,4.0502,4.0404,4.0305,4.0213,4.0163,4.0096,4.0096,4.0096,4.0096,4.0096,4.0096,4.0096,4.0096,4.0096,4.0096,4.0096,4.0096,4.0096,4.0096,4.0096,4.0096,4.0096,4.0096,4.0146,0.0,0.0,0.0,0.0,0.0,0.0,0.0,0.0,0.0,1.4396,1.4396,1.4396,0.0,0.0,0.0,1.4396,1.4396,1.4396,1.4396,1.4396,1.4581,1.5017,1.5534,1.6526,1.8065,1.8018,1.8451,1.9445,2.0093,2.041,2.0328,1.9288,1.8779,1.8697,1.8133,1.7902,1.7942,1.8123,1.8222,1.8228,1.8459,1.8874,1.9346,1.9367,0.0,0.0,0.0,0.0,0.0,0.0,0.0,0.0,2.0074,2.0059,2.0055,2.0333,2.0405,2.0592,2.1456,2.2592,2.3849,2.5255,2.6443,2.7814,2.992,3.0966,3.1643,3.2259,3.2398,3.2398,3.2398,3.2398,3.2398,3.2398,3.3648,3.4645,3.4707,3.6034,3.7042,3.7105,3.7121,3.7551,3.8657,3.8859,3.9404,4.0558,4.0286,4.0336,4.0871,4.0385,4.0286,4.0697,4.0697,4.0576,4.0355,4.0313,4.0238,4.0138,4.0138,4.0096,4.0096,4.0096,4.0096,4.0096,4.0096,4.0096,4.0096,4.0096,4.0096,4.0096,4.0096,4.0096,4.0096,4.0096,4.0096,4.0214,0.0,0.0,0.0,0.0,0.0,0.0,0.0,0.0,1.428,1.4384,1.4396,1.4396,1.4396,1.4396,0.0,1.4396,1.4396,1.4396,1.4396,1.4396,1.4454,1.4535,1.5445,1.6386,1.7237,1.8041,1.8604,1.8954,1.9578,1.9632,1.9165,1.8907,1.8541,1.8092,1.7957,1.7983,1.8143,1.8183,1.8301,1.8459,1.8644,1.8812,1.8959,1.9094,1.9277,0.0,0.0,0.0,0.0,0.0,0.0,0.0,1.9928,1.974,1.9459,2.02,2.0405,2.0592,2.1456,2.2278,2.3332,2.5151,2.7484,2.9535,3.0242,3.1336,3.2213,3.2367,3.2398,3.2398,3.2398,3.2398,3.2398,3.2398,3.3246,3.4131,3.4774,3.6099,3.7242,3.7933,3.8026,3.8294,3.9028,3.9109,3.9428,4.0095,4.05,4.0758,4.0894,4.0776,4.0752,4.0847,4.0745,4.0673,4.0624,4.051,4.0387,4.0263,4.0263,4.0188,4.0096,4.0096,4.0096,4.0096,4.0096,4.0096,4.0096,4.0096,4.0096,4.0096,4.0096,4.0096,4.0096,4.0096,4.0096,4.0214,0.0,0.0,0.0,0.0,0.0,0.0,0.0,0.0,1.4588,1.4429,1.4396,1.4396,1.4396,1.4396,0.0,0.0,1.4396,1.4396,1.4396,1.4396,1.4628,1.5142,1.5954,1.6667,1.731,1.794,1.8302,1.8364,1.869,1.8826,1.8793,1.8486,1.8201,1.7902,1.8003,1.8103,1.8222,1.8406,1.8548,1.8644,1.8874,1.9137,1.943,1.9542,1.9754,2.0001,2.0001,0.0,0.0,0.0,0.0,0.0,0.0,0.0,1.9677,2.0167,2.0568,2.0986,2.1471,2.2133,2.3188,2.5198,2.7875,3.0042,3.0256,3.139,3.2398,3.2398,3.2398,3.2398,3.2398,3.2398,3.2425,3.2496,3.3234,3.417,3.5261,3.6433,3.7528,3.8603,3.849,3.864,3.9489,3.9348,3.9532,4.036,4.071,4.0912,4.0912,4.0912,4.0912,4.0912,4.084,4.0769,4.0697,4.0648,4.0534,4.0387,4.033,4.0213,4.0096,4.0096,4.0096,4.0096,4.0096,4.0096,4.0096,4.0096,4.0096,4.0096,4.0096,4.0096,4.0096,4.0096,4.0096,4.0265,0.0,0.0,0.0,0.0,0.0,0.0,0.0,0.0,0.0,1.4451,1.4396,1.4396,1.4396,1.4396,1.4396,0.0,0.0,0.0,1.4396,1.4477,1.496,1.5954,1.6518,1.7081,1.772,1.7842,1.7902,1.7902,1.7902,1.816,1.8622,1.8133,1.7922,1.7963,1.8123,1.8242,1.8327,1.8649,1.8822,1.886,1.9026,1.9435,1.9928,1.9928,2.0233,2.0669,2.0669,2.0422,2.0103,2.0103,0.0,0.0,0.0,0.0,2.0093,2.0045,2.0617,2.1261,2.145,2.233,2.3608,2.5364,2.7834,2.9879,3.0132,3.1255,3.2259,3.2367,3.2398,3.2398,3.2398,3.2398,3.2425,3.2578,3.3224,3.4176,3.5481,3.6583,3.7692,3.8854,3.8767,3.8951,3.9902,3.961,3.9714,4.0662,4.0847,4.0912,4.0912,4.0912,4.0912,4.0912,4.0912,4.084,4.0745,4.0721,4.0673,4.0534,4.0379,4.0213,4.0096,4.0096,4.0096,4.0096,4.0096,4.0096,4.0096,4.0096,4.0096,4.0096,4.0096,4.0096,4.0096,4.0096,4.018,4.0485,0.0,0.0,0.0,0.0,0.0,0.0,0.0,0.0,0.0,0.0,1.4396,1.4396,1.4396,1.4396,1.4396,1.4396,1.4396,1.4396,1.4396,0.0,0.0,1.6049,1.6548,1.7144,1.7862,1.7882,1.7902,1.7902,1.7902,1.7943,1.8024,1.7943,1.7983,1.8163,1.8183,1.8392,1.8726,1.8784,1.8898,1.9064,1.9082,1.9159,1.9232,1.9232,1.9275,1.9348,1.9348,1.9682,2.0103,2.0103,2.0045,0.0,0.0,0.0,2.0006,1.9558,1.9946,2.0656,2.1317,2.3329,2.5309,2.5694,2.7482,2.9331,3.004,3.0902,3.169,3.2275,3.2398,3.2398,3.2398,3.2398,3.2425,3.2578,3.2851,3.3337,3.4227,3.5944,3.7408,3.8155,3.9166,3.9834,3.9978,3.9927,3.9952,4.012,4.0597,4.0912,4.0912,4.0912,4.0912,4.0912,4.0912,4.0888,4.0871,4.0871,4.0817,4.0673,4.0429,4.0213,4.0096,4.0096,4.0096,4.0096,4.0096,4.0096,4.0096,4.0096,4.0096,4.0096,4.0096,4.0096,4.0096,4.0096,4.0493,4.117,0.0,0.0,0.0,0.0,0.0,0.0,0.0,0.0,0.0,0.0,0.0,1.4396,1.4396,1.4396,1.4396,1.4396,1.4396,1.4396,1.4396,1.5096,1.5678,1.6092,1.6612,1.722,1.7882,1.7727,1.7706,1.7902,1.7902,1.7902,1.7902,1.8023,1.8123,1.8202,1.8321,1.8542,1.8803,1.8917,1.9026,1.9101,1.9101,1.9333,1.9653,1.9653,1.987,2.0161,2.0161,2.0132,2.0146,2.0494,2.0378,2.0161,2.0494,0.0,0.0,0.0,2.0563,2.101,2.1486,2.3014,2.4672,2.5505,2.707,2.8713,2.984,3.0773,3.1609,3.2259,3.2398,3.2398,3.2398,3.2398,3.248,3.2746,3.2843,3.3332,3.4542,3.5474,3.6542,3.7956,3.8335,3.8778,3.9482,3.9542,3.9688,3.9978,4.0549,4.0912,4.0912,4.0912,4.0912,4.0912,4.0912,4.0912,4.0912,4.0912,4.084,4.0697,4.051,4.0337,4.0213,4.0121,4.0096,4.0096,4.0096,4.0096,4.0096,4.0096,4.0096,4.0096,4.0096,4.0096,4.0096,4.0096,4.0561,4.1322,0.0,0.0,0.0,0.0,0.0,0.0,0.0,0.0,0.0,0.0,0.0,1.4396,1.4396,0.0,0.0,0.0,1.4466,1.4396,1.4396,1.5311,1.5838,1.5755,1.6536,1.7154,1.7571,1.7397,1.7498,1.7902,1.7902,1.7902,1.7902,1.7938,1.7973,1.8046,1.8414,1.8697,1.8879,1.9045,1.9101,1.9101,1.9139,1.9425,1.9841,1.99,2.0191,2.0564,2.0564,2.0375,2.018,2.0631,2.0567,2.0407,2.0857,2.1336,0.0,0.0,0.0,2.1409,2.1829,2.2757,2.3924,2.527,2.6684,2.809,2.9427,3.0475,3.1336,3.1997,3.2275,3.2398,3.2398,3.2425,3.2551,3.2843,3.2924,3.3349,3.4539,3.4998,3.5743,3.7178,3.7445,3.7861,3.8831,3.909,3.9428,3.9952,4.041,4.0734,4.0894,4.0912,4.0912,4.0912,4.0912,4.0912,4.0912,4.0912,4.084,4.0697,4.0583,4.0461,4.0305,4.0188,4.0121,4.0096,4.0096,4.0096,4.0096,4.0096,4.0096,4.0096,4.0096,4.0096,4.0096,4.0096,4.0705,4.1559,0.0,0.0,0.0,0.0,0.0,0.0,0.0,0.0,0.0,0.0,0.0,1.4396,1.4396,1.4396,1.4581,1.5017,1.4651,1.4396,1.4396,1.5412,1.5659,1.4905,1.6117,0.0,1.6671,1.6892,1.7312,1.7902,1.7902,1.7902,1.7889,1.7446,1.7361,1.7576,1.8399,1.8912,1.9082,1.9101,1.9101,1.9101,1.9246,1.9224,1.9178,1.9346,1.9413,1.9386,1.9386,1.9733,2.0191,2.0171,2.0509,2.0959,2.0988,2.1017,2.1046,0.0,0.0,0.0,2.2416,2.3122,2.3924,2.527,2.6337,2.7406,2.8748,2.9776,3.0632,3.1305,3.1951,3.2398,3.2398,3.2496,3.2648,3.287,3.3005,3.3165,3.3382,3.4448,3.5247,3.5337,3.6953,3.8089,3.8164,3.8801,3.9428,3.9952,4.0028,4.0311,4.0871,4.0912,4.0912,4.0912,4.0912,4.0912,4.0912,4.0912,4.084,4.0697,4.0697,4.0551,4.0305,4.0288,4.0213,4.0096,4.0096,4.0096,4.0096,4.0096,4.0096,4.0096,4.0096,4.0096,4.0096,4.0096,4.1027,4.2236,0.0,0.0,0.0,0.0,0.0,0.0,0.0,0.0,0.0,0.0,0.0,0.0,0.0,1.4857,1.4926,1.5085,1.4949,1.4857,1.4857,1.5336,1.5515,1.5327,1.5691,1.6021,1.6268,1.6161,1.6305,1.6742,1.6742,1.6799,1.6871,1.6835,1.6922,1.716,1.7858,1.829,1.855,1.8941,1.9101,1.9101,1.9246,1.9265,1.9246,1.9358,1.9395,1.9358,1.9358,1.9486,1.9694,2.0045,2.0293,2.0587,2.1499,2.1768,2.1789,2.1921,2.204,2.2093,2.2078,2.2538,2.3242,2.4103,2.5357,2.6708,2.806,2.9073,3.0063,3.1166,3.1609,3.1874,3.2321,3.2523,3.2676,3.287,3.3005,3.315,3.3282,3.3995,3.466,3.5098,3.6047,3.69,3.7469,3.8074,3.8728,3.943,3.98,4.0269,4.0871,4.0912,4.0912,4.0912,4.0912,4.0912,4.0912,4.0912,4.0888,4.084,4.0745,4.06,4.0436,4.0337,4.0213,4.0096,4.0096,4.0096,4.0096,4.0096,4.0096,4.0096,4.0096,4.0096,4.0163,4.0629,4.1441,4.2354,0.0,0.0,0.0,0.0,0.0,0.0,0.0,0.0,1.4834,1.4834,0.0,0.0,0.0,0.0,1.5108,1.5108,1.5457,1.5463,1.5011,1.5389,1.5452,1.5037,1.522,1.5442,1.5663,1.5528,1.5671,1.61,1.61,1.6177,1.6298,1.6302,1.6394,1.6593,1.7305,1.7827,1.8245,1.884,1.912,1.9176,1.9302,1.9471,1.9681,1.9775,1.9941,2.01,2.01,2.0081,2.0116,2.0485,2.0719,2.0965,2.1691,2.2064,2.2268,2.2458,2.2337,2.2179,2.2317,2.2173,2.2338,2.3625,2.4603,2.569,2.73,2.8369,2.9331,3.0489,3.1074,3.1547,3.1967,3.2369,3.2648,3.2773,3.2978,3.3123,3.3229,3.3581,3.406,3.469,3.5281,3.5931,3.6672,3.7353,3.8031,3.8722,3.9382,3.9995,4.0573,4.0799,4.0912,4.0912,4.0912,4.0912,4.0912,4.0912,4.0912,4.0912,4.0817,4.0655,4.051,4.0412,4.0263,4.0096,4.0096,4.0096,4.0096,4.0096,4.0096,4.0096,4.0096,4.0096,4.0197,4.0933,4.166,4.2405,0.0,0.0,0.0,0.0,0.0,0.0,0.0,0.0,1.5108,1.5131,0.0,0.0,0.0,0.0,0.0,1.5108,1.6129,1.6194,1.4811,1.5561,1.5421,1.3994,1.4721,1.5035,1.4787,1.5035,1.5471,1.6046,1.6046,1.6109,1.6247,1.5873,1.5759,1.5919,1.6809,1.7563,1.8216,1.884,1.9176,1.9302,1.9406,1.9826,2.0425,2.0661,2.1048,2.152,2.152,2.15,2.15,2.1405,2.1792,2.217,2.158,2.1816,2.2323,2.2435,2.2025,2.1837,0.0,0.0,0.0,2.3917,2.4176,2.4353,2.6456,2.7579,2.8403,2.9193,3.0428,3.1362,3.1378,3.2029,3.2547,3.2547,3.2866,3.3096,3.3096,3.3229,3.3529,3.405,3.4683,3.5293,3.5828,3.6633,3.7384,3.7949,3.8705,3.9394,3.9978,4.0573,4.0912,4.0912,4.0912,4.0912,4.0912,4.0912,4.0912,4.0912,4.0912,4.0752,4.051,4.051,4.0362,4.0113,4.0113,4.0096,4.0096,4.0096,4.0096,4.0096,4.0096,4.0096,4.0197,4.095,4.1677,4.2405,0.0,0.0,0.0,0.0,0.0,1.5108,1.5108,1.5266,1.5491,0.0,0.0,0.0,1.5942,1.5746,1.5614,1.5614,1.5891,1.5906,1.5521,1.5237,1.4991,1.4771,1.4441,1.4313,1.4445,1.4511,1.4626,1.4802,1.4891,1.504,1.5203,1.5213,1.5284,1.5525,1.6688,1.7367,1.7683,1.8779,1.9265,1.935,1.9956,2.0309,2.055,2.1192,2.151,2.1635,2.1635,2.158,2.15,2.148,2.1558,2.1621,2.1499,2.2001,2.2494,2.2058,2.2133,2.2362,2.2248,0.0,0.0,0.0,0.0,0.0,2.516,2.6496,2.7675,2.8373,2.9275,3.0104,3.0597,3.1255,3.1728,3.1728,3.2511,3.3096,3.3096,3.3555,3.3924,3.4075,3.4554,3.4988,3.5286,3.5555,3.6178,3.7394,3.7682,3.8467,3.9919,4.0573,4.0912,4.0912,4.0912,4.0912,4.0912,4.0912,4.0912,4.0912,4.0912,4.0817,4.0631,4.0631,4.0502,4.0238,4.0238,4.0188,4.0096,4.0096,4.0096,4.0096,4.0096,4.0096,4.0248,4.1525,4.2117,4.2472,0.0,0.0,1.569,1.568,1.5623,1.5601,1.5601,1.5613,1.5691,0.0,0.0,0.0,1.6247,1.6358,1.6392,1.6392,1.6637,1.6642,1.6233,1.5882,1.5497,1.517,1.469,1.4412,1.4383,1.4385,1.4417,1.4509,1.4592,1.4704,1.4889,1.4967,1.5103,1.5356,1.6697,1.7332,1.7487,1.885,1.956,1.9826,2.0309,2.0876,2.1466,2.1949,2.2443,2.2921,2.2921,2.3044,2.3174,2.2891,2.2423,2.1941,2.1997,2.2133,2.2209,2.1799,2.1769,2.1829,2.1724,2.15,2.144,2.2119,0.0,0.0,2.4223,2.5188,2.6253,2.7585,2.847,2.9196,2.9848,3.0535,3.0982,3.0982,3.1834,3.2565,3.2861,3.3346,3.3771,3.3942,3.4292,3.4636,3.4946,3.5054,3.5461,3.6303,3.6961,3.8002,3.9586,4.0195,4.0524,4.0524,4.0776,4.0912,4.0912,4.0912,4.0912,4.0912,4.0912,4.084,4.0697,4.0648,4.0502,4.0305,4.0238,4.0163,4.0096,4.0096,4.0096,4.0096,4.0096,4.0096,4.0282,4.1745,4.2286,4.2506,0.0,0.0,1.6463,1.6423,1.6315,1.6247,1.6247,1.6059,1.5943,0.0,1.6076,1.6196,1.6507,1.6897,1.7178,1.724,1.7774,1.7777,1.6926,1.6937,1.6512,1.5461,1.5284,1.5028,1.4644,1.4574,1.461,1.4808,1.481,1.4873,1.5013,1.5028,1.5118,1.5371,1.6778,1.7399,1.752,1.8989,1.9994,2.0633,2.0633,2.1451,2.2718,2.2868,2.361,2.4619,2.4694,2.5083,2.5501,2.4903,2.3864,2.2808,2.2808,2.2343,2.1784,2.1635,2.1231,2.0912,2.1455,2.1096,2.0782,2.1515,2.1635,0.0,2.3419,2.3876,2.4563,2.6581,2.7634,2.8365,2.8975,2.9739,3.0258,3.031,3.1021,3.1776,3.2404,3.2834,3.324,3.3646,3.3857,3.4134,3.4545,3.4771,3.491,3.4975,3.6422,3.778,3.895,3.9586,3.9927,4.0003,4.0524,4.0823,4.0912,4.0912,4.0912,4.0912,4.0912,4.084,4.0721,4.0607,4.0461,4.033,4.0213,4.0121,4.0096,4.0096,4.0096,4.0096,4.0096,4.0096,4.0282,4.1745,4.2286,4.2506,1.6272,1.6247,1.6247,1.5979,1.5913,1.5935,1.6032,1.6365,1.6905,1.7713,1.78,1.7852,1.7977,1.7328,1.7026,1.7415,1.7558,1.7558,1.7377,1.6995,1.6748,1.6719,1.5811,1.5327,1.5464,1.4985,1.4763,1.4808,1.4904,1.4967,1.5013,1.5163,1.5298,1.5447,1.6796,1.7466,1.764,1.901,2.0314,2.1465,2.1465,2.1964,2.2808,2.3849,2.438,2.4679,2.5202,2.5495,2.5585,2.5442,2.4522,2.3415,2.3415,2.2996,2.2298,2.1216,2.1186,2.1425,2.1021,2.0408,2.0202,2.1395,2.1291,0.0,2.1964,2.3022,2.3982,2.4403,2.5643,2.6773,2.7228,2.8419,2.9461,2.977,3.06,3.134,3.1745,3.2458,3.2978,3.3069,3.3123,3.3176,3.3266,3.3403,3.3719,3.4241,3.6167,3.7421,3.766,3.8741,3.9542,3.9978,4.0103,4.041,4.0912,4.0912,4.0912,4.0912,4.0912,4.0888,4.0864,4.0823,4.068,4.0461,4.0419,4.0296,4.0096,4.0096,4.0096,4.0096,4.0096,4.0096,4.0282,4.1745,4.2286,4.2506,1.7031,1.711,1.7193,1.7039,1.6942,1.7033,1.7389,1.7543,1.7804,1.8369,1.8453,1.8543,1.8729,1.8593,1.8427,1.8255,1.8487,1.8505,1.8167,1.7799,1.7529,1.7357,1.6764,1.6274,1.5856,1.5558,1.5291,1.504,1.5118,1.5148,1.5148,1.5284,1.5549,1.5945,1.7009,1.7728,1.8197,1.9573,2.0744,2.1695,2.1695,2.2473,2.3729,2.435,2.5008,2.5644,2.5974,2.6093,2.6093,2.6093,2.5435,2.4537,2.4186,2.367,2.2972,2.1979,2.1455,2.1141,2.0778,2.0434,2.0273,2.0621,2.0707,0.0,0.0,2.197,2.2806,2.3555,2.4777,2.5874,2.6456,2.7487,2.8339,2.8597,2.9446,3.0115,3.0295,3.1145,3.1887,3.2229,3.2329,3.2522,3.2866,3.3032,3.3406,3.4132,3.5211,3.6105,3.6814,3.7736,3.8541,3.9123,3.9447,3.9868,4.0451,4.0434,4.0597,4.0912,4.0912,4.0912,4.0912,4.084,4.0721,4.0583,4.0461,4.0313,4.0188,4.0138,4.0096,4.0096,4.0096,4.0096,4.0282,4.1745,4.2286,4.2506,1.7808,1.7929,1.8009,1.7935,1.7957,1.8153,1.8747,1.88,1.891,1.9258,1.9186,1.9258,1.9624,2.0025,2.0041,1.9475,1.9811,1.9789,1.9109,1.8921,1.8521,1.7908,1.778,1.7313,1.6451,1.6178,1.5853,1.5472,1.5371,1.5313,1.5313,1.5388,1.577,1.646,1.7254,1.7974,1.8708,2.0102,2.1081,2.1749,2.2004,2.3122,2.4634,2.4889,2.5749,2.6836,2.7106,2.7195,2.7195,2.7195,2.6737,2.6078,2.5382,2.4732,2.3999,2.3137,2.2099,2.1196,2.0957,2.0882,2.0737,2.0049,2.0303,2.0715,0.0,0.0,0.0,2.2976,2.4046,2.4965,2.5641,2.6491,2.7122,2.7169,2.8046,2.8693,0.0,2.9288,0.0,3.1248,3.1508,3.1866,3.2551,3.2857,3.3289,3.3986,3.4144,3.4774,3.6038,3.6738,3.7443,3.825,3.8767,3.9332,4.0003,4.0003,4.0294,4.0912,4.0782,4.0734,4.071,4.051,4.0436,4.0485,4.0263,4.0213,4.0238,4.0121,4.0096,4.0096,4.0096,4.0096,4.0282,4.1745,4.2286,4.2506,1.751,1.7387,1.7325,1.7005,1.7441,1.8009,1.8561,1.9516,2.057,2.1643,2.1332,2.1161,2.1635,2.1005,2.0655,2.0921,2.1003,2.0761,2.0084,1.9972,1.9624,1.8958,1.8422,1.8075,1.7948,1.6789,1.6137,1.6111,1.5621,1.5389,1.5389,1.5463,1.5876,1.6618,1.7287,1.8022,1.8775,2.012,2.112,2.1888,2.3083,2.3981,0.0,2.5929,2.6851,2.7645,2.8843,2.9277,2.9277,2.9277,2.8801,2.8143,2.748,2.6806,2.5884,2.4029,2.3385,2.3026,2.1889,2.159,2.1425,2.0752,2.0643,2.0633,2.0345,0.0,2.1345,2.1821,0.0,2.3301,2.3738,0.0,0.0,2.5712,2.6784,0.0,2.7277,2.7025,2.7789,3.0243,3.0561,3.0823,3.1497,3.2222,3.2761,3.3033,3.3607,3.4263,3.5029,3.5886,3.6864,3.8067,3.8294,3.8914,3.9978,4.0003,4.0294,4.0894,4.036,4.0103,4.0095,3.9584,3.948,3.9714,3.9688,3.9833,4.0138,4.0113,4.0096,4.0096,4.0096,4.0096,4.0282,4.1745,4.2286,4.2506,1.8101,1.8074,1.8133,1.7994,1.8604,1.9315,1.9894,2.1114,2.2267,2.3069,2.3027,2.2989,2.3207,2.3213,2.2843,2.1908,2.2178,2.198,2.0965,2.0435,2.0021,1.9744,1.9095,1.8564,1.8216,1.7687,1.7255,1.6892,1.6313,1.6242,1.6609,1.6289,1.6721,1.7764,1.8097,1.8882,2.0035,2.0948,2.2018,2.3192,2.4546,2.544,0.0,2.704,2.8077,2.9074,2.9633,2.9845,2.9845,0.0,2.9584,2.92,2.86,2.8167,2.755,2.5927,2.5175,2.4574,2.3182,2.2594,2.2164,2.146,2.1512,2.1685,2.147,2.1676,2.1944,2.2079,0.0,0.0,0.0,0.0,0.0,0.0,2.5399,0.0,0.0,0.0,2.6747,0.0,0.0,0.0,3.1365,3.182,3.2257,3.2854,3.3162,3.3599,3.4269,3.5143,3.6035,3.6975,3.7533,3.8367,3.9516,3.9183,3.9655,4.0888,3.9969,3.9697,4.0003,3.9774,3.9723,3.9825,4.0037,4.0204,4.032,4.0146,4.0096,4.0096,4.0096,4.0096,4.0282,4.1745,4.2286,4.2506,1.8716,1.8683,1.8726,1.8726,1.9529,2.0468,2.1388,2.2543,2.3474,2.3891,2.4187,2.4401,2.4426,2.4883,2.4634,2.3276,2.3449,2.3171,2.2046,2.1215,2.0621,2.027,1.9743,1.918,1.8535,1.8402,1.8132,1.7697,1.71,1.7044,1.7517,1.7093,1.7513,1.8634,1.8719,1.9554,2.0937,2.1571,2.2712,2.4167,2.5507,2.6808,2.7975,2.8388,2.926,3.0293,3.0475,3.0536,3.0536,3.0536,3.0497,3.031,2.9739,2.9474,2.9104,0.0,0.0,0.0,2.4597,2.3913,2.3441,2.2611,2.2703,2.2944,2.2689,2.2682,2.2671,2.2557,2.2733,0.0,0.0,0.0,0.0,0.0,0.0,2.4075,0.0,2.4233,0.0,0.0,0.0,0.0,0.0,3.1221,3.18,3.2435,3.2664,3.3068,3.3721,3.4435,3.5193,3.6113,3.6794,3.7722,3.8947,3.8684,3.9183,4.0427,3.9601,3.9322,3.9525,3.9368,3.9489,3.9749,3.9986,4.0204,4.0436,4.0238,4.0121,4.0096,4.0096,4.0096,4.0282,4.1745,4.2286,4.2506,1.9082,1.8765,1.85,1.85,1.9562,2.0954,2.2597,2.3432,2.3938,2.4069,2.4672,2.5116,2.525,2.534,2.5373,2.5304,2.4802,2.4171,2.3473,2.2676,2.1683,2.045,2.0356,2.0047,1.9395,1.8797,1.849,1.846,1.7848,1.7586,1.7601,1.7635,1.8027,1.8702,1.8837,1.964,2.0952,2.1682,2.2848,2.4309,2.5656,2.783,3.0268,0.0,3.0372,3.1055,3.1693,0.0,0.0,3.1936,3.1921,3.1814,3.1146,0.0,0.0,0.0,0.0,0.0,2.6143,2.5719,2.5455,2.4474,2.422,2.4109,2.3579,2.3465,2.3356,2.2961,0.0,0.0,0.0,0.0,0.0,0.0,0.0,0.0,0.0,0.0,0.0,0.0,0.0,0.0,0.0,3.0243,3.1424,0.0,3.2056,3.2718,3.3396,3.363,3.4452,3.5968,3.6146,3.6924,3.8306,3.8892,3.9206,3.9259,3.9232,3.892,3.8334,3.7815,3.8116,3.9028,3.9028,3.9523,4.0305,4.0305,4.0213,4.0096,4.0096,4.0096,4.0282,4.1745,4.2286,4.2506,1.9195,1.912,1.9007,1.8898,1.9947,2.1455,2.3402,2.425,2.4892,2.5428,2.607,2.6508,2.6558,2.6658,2.654,2.61,2.5959,2.5612,2.494,2.4179,2.337,2.2494,2.1981,2.1202,2.0076,1.9901,1.9645,1.923,1.8616,1.8563,1.8967,1.8565,1.8734,1.9431,1.9481,2.0343,2.1782,2.2034,2.3468,2.5744,0.0,2.9147,3.0448,0.0,3.134,3.1968,3.2182,3.2259,0.0,3.2259,3.2219,3.2028,3.145,3.1503,3.1494,2.9922,2.977,2.9698,2.7777,2.7315,2.7044,2.5644,2.5837,2.6129,2.5282,2.5197,2.5018,2.4125,0.0,0.0,0.0,0.0,0.0,0.0,0.0,0.0,0.0,0.0,0.0,0.0,0.0,0.0,0.0,0.0,0.0,0.0,3.1597,0.0,3.269,3.3352,3.3945,3.4467,3.56,3.6629,3.7503,3.789,3.8455,3.9206,3.8455,3.8157,3.8278,3.8112,3.8226,3.8574,3.9146,3.9558,3.9859,4.007,4.0138,4.0096,4.0096,4.0096,4.0231,4.1204,4.188,4.2506,1.9365,1.953,1.9658,1.9583,2.0615,2.2067,2.3898,2.4714,2.5408,2.6155,2.6845,2.7373,2.7661,2.7769,2.7656,2.7214,2.7031,2.6752,2.6333,2.5418,2.4581,2.3925,2.322,2.2212,2.0906,2.0663,2.0389,1.9987,1.9355,1.9271,1.9693,1.9291,1.9339,1.9797,1.9869,2.0752,2.2233,2.2482,2.4025,0.0,0.0,3.0166,0.0,0.0,3.2013,3.2398,0.0,3.2398,3.2398,3.2398,3.2342,3.2226,3.1847,3.1989,3.2045,3.0941,3.0926,3.0899,2.9225,2.8839,2.8568,2.7145,2.7436,2.7769,2.6588,2.6557,2.6438,2.5277,0.0,0.0,0.0,0.0,0.0,0.0,0.0,0.0,0.0,2.0282,0.0,0.0,0.0,0.0,0.0,0.0,0.0,0.0,0.0,0.0,0.0,3.2925,3.338,3.3699,3.4987,3.5993,3.6704,3.7319,3.7886,3.8411,3.7931,3.777,3.7895,3.7969,3.8112,3.8334,3.9065,3.948,3.9636,4.002,4.0138,4.0096,4.0096,4.0096,4.0197,4.0933,4.183,4.2861,1.9693,2.011,2.0557,2.0557,2.1556,2.2803,2.4153,2.4876,2.5558,2.6416,2.707,2.775,2.8577,2.8652,2.8652,2.8652,2.8079,2.7675,2.7645,2.6452,2.5427,2.4724,2.4059,2.3101,2.1814,2.1111,2.0733,2.0703,2.0034,1.9708,1.9708,1.9762,1.9797,1.9815,2.0058,2.0926,2.2294,2.3031,2.4564,2.6741,2.9341,3.0812,3.1459,3.2136,3.2398,3.2398,3.2398,3.2398,3.2398,3.2398,3.2398,3.2398,3.2398,3.2398,3.2259,3.1655,3.1455,3.1289,3.047,3.0261,2.9991,2.8936,2.9014,2.9,2.7502,2.7559,2.7555,2.6275,0.0,0.0,0.0,0.0,0.0,0.0,0.0,0.0,0.0,0.0,0.0,0.0,0.0,0.0,0.0,0.0,0.0,0.0,0.0,0.0,0.0,3.2382,3.2789,3.3593,3.4291,3.506,3.5923,3.7107,3.7472,3.7015,3.7727,3.777,3.7224,3.7405,3.7786,3.8278,3.8783,3.9216,3.961,4.0096,4.0213,4.0096,4.0096,4.0096,4.0197,4.0967,4.2151,4.346,2.1732,2.2289,2.2784,2.2784,2.2933,2.3511,2.4919,2.566,2.6565,2.7867,2.8181,2.8566,2.9265,2.9352,2.9352,2.9352,2.9202,2.8888,2.8368,2.8023,2.7305,2.6138,2.545,2.4477,2.3131,2.2024,2.1201,2.0703,2.0034,1.9708,1.9708,1.9762,1.9848,1.9985,2.0581,2.1651,2.3047,2.3743,2.5533,2.8042,2.971,3.0812,3.1459,0.0,3.2398,3.2398,3.2398,3.2398,3.2398,3.2398,3.2398,3.2398,3.2398,3.2398,3.2367,3.2182,3.2136,3.1982,3.1278,3.1109,3.0867,2.9997,3.0145,3.009,2.8568,2.8888,2.8924,2.6871,0.0,0.0,0.0,0.0,0.0,0.0,0.0,0.0,0.0,0.0,0.0,0.0,0.0,0.0,0.0,0.0,0.0,0.0,0.0,0.0,0.0,0.0,3.2502,3.2715,3.3534,3.4288,3.5045,3.5978,3.6707,3.715,3.7344,3.7358,3.7224,3.7405,3.7478,3.7519,3.8439,3.8898,3.9061,3.9841,4.0121,4.0096,4.0096,4.0096,4.0265,4.1525,4.2252,4.2777,2.2191,2.2924,2.3684,2.3999,2.4425,2.5004,2.5795,2.6489,2.732,2.8457,2.8846,2.9265,2.9909,2.9983,2.9983,2.9983,2.9983,2.9819,2.946,2.9175,2.8562,2.7515,2.6826,2.5839,2.4507,2.3191,2.2224,2.1619,2.0644,2.0065,1.983,1.9904,1.9975,2.0091,2.0837,2.1968,2.3425,2.5302,2.7311,2.9381,3.0428,3.1243,0.0,3.2259,3.2582,3.2844,3.2844,3.2844,3.289,3.3198,3.309,3.2844,3.2844,3.2628,3.2398,3.2398,3.2398,3.2305,3.1921,3.2002,3.1964,3.0971,3.1248,3.1343,2.9673,2.9895,2.9931,2.8101,2.755,2.6948,0.0,0.0,0.0,0.0,0.0,0.0,0.0,0.0,0.0,0.0,0.0,0.0,0.0,0.0,0.0,0.0,0.0,0.0,0.0,0.0,3.209,3.2382,3.3144,3.3895,3.4606,3.5391,3.6163,3.6892,3.6952,3.6983,3.6983,3.7195,3.7255,3.7268,3.8282,3.8772,3.8871,3.9816,4.0163,4.0096,4.0096,4.0096,4.0248,4.139,4.2016,4.2455,2.2458,2.3236,2.4208,2.4874,2.5959,2.6782,2.6986,2.742,2.8004,2.8783,2.9409,2.9993,3.0623,3.0698,3.0698,3.0698,3.067,3.064,3.055,3.0026,2.9415,2.8757,2.8004,2.7061,2.5899,2.4462,2.3458,2.2923,2.1667,2.079,2.0263,2.0337,2.0375,2.0406,2.1203,2.2366,2.3917,2.7165,2.9233,3.0448,3.112,3.1782,3.2398,3.2398,3.2813,3.3413,3.3506,3.3537,3.3644,3.4289,3.406,3.3521,3.3429,3.2998,3.2505,3.2428,3.2398,3.2398,3.2398,3.2749,3.2845,3.1778,3.2185,3.2385,3.0737,3.0711,3.0738,2.9582,2.8868,2.8186,2.7452,0.0,0.0,0.0,0.0,0.0,0.0,0.0,0.0,0.0,0.0,0.0,0.0,0.0,0.0,0.0,0.0,0.0,0.0,0.0,3.1705,3.2367,3.2967,3.366,3.4489,3.509,3.5768,3.6523,3.6631,3.6693,3.6723,3.6908,3.7044,3.7224,3.8153,3.8618,3.8761,3.9764,4.0121,4.0096,4.0096,4.0096,4.018,4.0815,4.1576,4.2405,2.5749,2.5914,2.6297,2.6971,2.727,2.7809,2.8918,2.8697,2.8899,3.0235,3.0518,3.089,3.1654,3.173,3.173,3.173,3.1632,3.1334,3.079,3.0486,3.0058,2.9457,2.8259,2.748,2.7255,2.539,2.4162,2.3616,2.2847,2.2183,2.1645,2.1759,2.1831,2.1862,2.2617,2.4025,2.5995,2.8273,2.9664,3.0448,3.112,3.1782,3.2398,3.2398,3.2813,3.3475,3.4104,3.432,3.4335,3.4459,3.4412,3.4212,3.3583,3.3321,3.3121,3.2552,3.2398,3.2398,3.2398,3.2465,3.2489,3.2271,3.2377,3.2272,3.1393,3.155,3.1569,3.0418,3.0384,3.0051,2.8354,0.0,0.0,0.0,0.0,0.0,0.0,0.0,0.0,0.0,0.0,0.0,0.0,0.0,0.0,0.0,0.0,0.0,0.0,0.0,3.1705,0.0,3.2505,3.3183,0.0,0.0,3.535,3.6662,3.6693,3.6693,3.6723,3.6908,3.6999,3.7044,3.7562,3.7895,3.8144,3.9001,3.967,4.0096,4.0096,4.0096,4.013,4.0248,4.1145,4.2405,2.6527,2.6881,2.7345,2.7993,2.8423,2.9004,3.006,2.994,2.9997,3.0712,3.1172,3.1697,3.2437,3.2513,3.2649,3.2998,3.297,3.2668,3.1972,3.1841,3.1375,3.038,2.9701,2.9037,2.8343,2.7046,2.5939,2.5036,2.4019,2.3244,2.2672,2.2394,2.2244,2.2306,2.3712,2.5487,2.755,2.9202,3.032,3.0982,3.1643,3.2105,3.2428,3.2782,3.3352,3.4044,3.4782,3.5244,3.5552,3.5552,3.5321,3.4967,3.4583,3.3983,3.3336,3.3013,3.2865,3.2734,3.2465,3.3002,3.3433,3.2602,3.283,3.3003,3.2102,3.2079,3.208,3.1462,3.128,3.084,2.9485,2.8605,0.0,0.0,0.0,0.0,0.0,0.0,0.0,0.0,0.0,0.0,0.0,0.0,0.0,0.0,0.0,0.0,0.0,0.0,3.1351,0.0,0.0,0.0,3.3906,0.0,3.5027,3.6075,3.643,3.6616,3.66,3.6693,3.677,3.6892,3.7445,3.7722,3.7825,3.881,3.9566,4.0096,4.0096,4.0096,4.0096,4.0096,4.1044,4.2337,2.716,2.771,2.828,2.8985,2.9552,3.0223,3.1117,3.1293,3.1306,3.1306,3.186,3.2538,3.3252,3.3313,3.3526,3.4059,3.4075,3.3817,3.3285,3.3088,3.2513,3.1465,3.1146,3.0509,2.9462,2.8774,2.7844,2.6635,2.5564,2.452,2.3517,2.3271,2.3183,2.324,2.5133,2.6872,2.8504,2.9971,3.092,3.147,3.2121,3.2398,3.2459,3.3136,3.3844,3.4597,3.5275,3.5953,3.6492,3.6492,3.6138,3.5706,3.5522,3.4722,3.3814,3.3675,3.3524,3.3313,3.2913,3.37,3.4292,3.2922,3.3214,3.3614,3.2776,3.2559,3.2567,3.257,3.2143,3.154,3.0908,3.06,0.0,0.0,0.0,0.0,0.0,0.0,0.0,0.0,0.0,0.0,0.0,0.0,0.0,0.0,0.0,0.0,0.0,0.0,0.0,0.0,0.0,3.2721,3.3398,0.0,3.4844,3.5521,3.6168,3.6492,3.6492,3.6492,3.6569,3.6739,3.7296,3.7605,3.7822,3.8657,3.9444,4.0096,4.0096,4.0096,4.0096,4.0096,4.0942,4.2083,2.9452,2.9565,2.9848,3.0637,3.0846,3.1301,3.2604,3.2901,3.2988,3.2988,3.3033,3.3397,3.4277,3.4354,3.4369,3.4431,3.4297,3.4148,3.4087,3.3405,3.2938,3.2801,3.1647,3.0934,3.0813,3.0156,2.923,2.8027,2.7905,2.6589,2.4241,2.5441,2.6033,2.6094,2.7473,2.8227,2.8535,3.0474,3.132,3.147,3.2121,3.2398,3.2459,3.3136,3.3844,3.4597,3.5275,3.5953,3.6492,3.6492,3.6445,3.6292,3.5706,3.5429,3.5198,3.4582,3.4257,3.4103,3.4049,3.4042,3.3919,3.3261,3.3182,3.3235,3.3145,3.3119,3.3261,3.3738,3.3297,3.2829,3.2765,3.2216,3.1637,0.0,0.0,0.0,0.0,0.0,0.0,0.0,0.0,0.0,0.0,0.0,0.0,0.0,0.0,0.0,0.0,0.0,0.0,3.2367,3.2398,3.2721,3.3398,3.4135,3.4844,3.5521,3.6168,3.6492,3.6492,3.6492,3.6569,3.6693,3.6631,3.7252,3.825,3.8334,3.9065,4.0096,4.0096,4.0096,4.0096,4.0096,4.0595,4.1407,3.0428,3.0504,3.0879,3.1996,3.2194,3.2526,3.357,3.3766,3.3978,3.451,3.4218,3.4263,3.4999,3.5106,3.5275,3.5675,3.5645,3.54,3.5001,3.4695,3.4115,3.3288,3.2737,3.2063,3.1251,3.0987,3.0405,2.9536,2.8722,2.7794,2.6765,2.6919,2.7426,2.8227,2.8765,2.9458,3.0243,3.1043,3.1613,3.2013,3.2275,3.2628,3.3075,3.3783,3.4505,3.5198,3.5845,3.6261,3.6492,3.6492,3.6492,3.6445,3.6168,3.6056,3.5994,3.5712,3.5776,3.5867,3.5535,3.5321,3.4987,3.408,3.3525,3.3182,3.3182,3.3182,3.3443,3.4292,3.4513,3.4362,3.3738,3.364,3.3479,3.2825,0.0,0.0,0.0,0.0,0.0,0.0,0.0,0.0,0.0,0.0,0.0,0.0,0.0,0.0,0.0,0.0,0.0,3.2382,0.0,3.2936,3.2798,3.3935,3.4643,3.4921,3.5984,3.6492,3.6492,3.6492,3.6569,3.6693,3.6554,3.7012,3.7908,3.8165,3.8794,3.9618,3.9969,4.0096,4.0096,4.0096,4.0561,4.1322,3.1825,3.1959,3.2249,3.3265,3.3433,3.3705,3.4467,3.4588,3.4864,3.5691,3.5398,3.5275,3.5752,3.5784,3.5968,3.6445,3.6492,3.6292,3.5845,3.5629,3.5075,3.406,3.3829,3.3167,3.1997,3.1982,3.1551,3.0678,2.975,2.8981,2.8396,2.7919,2.8411,2.9694,2.9904,3.0505,3.1424,3.1597,3.1951,3.2398,3.2398,3.2798,3.3475,3.4227,3.4921,3.5598,3.6245,3.6492,3.6492,3.6492,3.6492,3.6492,3.6492,3.6489,3.6427,3.6427,3.6761,3.7042,3.6684,3.6423,3.6058,3.5096,3.4181,3.3551,3.3693,3.3576,3.3726,3.4816,3.5333,3.5379,3.4601,3.4769,3.4808,3.4121,0.0,0.0,0.0,3.2866,0.0,0.0,3.1759,3.1405,3.049,0.0,0.0,0.0,0.0,0.0,0.0,0.0,0.0,0.0,0.0,0.0,3.2398,3.3812,3.4505,3.452,3.5845,3.6492,3.6492,3.6492,3.6569,3.6693,3.6554,3.7028,3.7879,3.8165,3.8767,3.9497,3.9944,4.0096,4.0096,4.0096,4.0434,4.1001,3.4133,3.4163,3.4237,3.4445,3.4489,3.472,3.5398,3.546,3.5722,3.6384,3.6476,3.6476,3.6476,3.6476,3.6476,3.6492,3.6492,3.6492,3.6476,3.5891,3.5506,3.5491,3.4844,3.415,3.3398,3.3383,3.2721,3.1393,3.1378,3.0335,2.8411,2.8396,2.9119,3.0417,3.1074,3.1366,3.1455,3.2105,3.2382,3.2398,3.2398,3.2798,3.3475,3.4227,3.4921,3.5598,3.6245,3.6492,3.6492,3.6492,3.6492,3.6492,3.6492,3.6492,3.6507,3.6507,3.6837,3.7214,3.7187,3.7098,3.6867,3.6306,3.5182,3.4344,3.4858,3.4471,3.4309,3.5379,3.56,3.56,3.5577,3.56,3.5407,3.4864,3.523,0.0,0.0,3.421,0.0,3.3023,3.1942,3.1017,3.0438,0.0,0.0,0.0,0.0,0.0,0.0,0.0,0.0,3.2398,3.2398,0.0,3.2398,3.3812,3.4505,3.452,3.5845,3.6492,3.6492,3.6492,3.6569,3.6693,3.6554,3.7252,3.8474,3.8334,3.9011,4.007,4.0096,4.0096,4.0096,4.0096,4.0113,4.0316,3.4401,3.4401,3.4584,3.5076,3.5198,3.5429,3.6061,3.6168,3.6245,3.6461,3.6492,3.6492,3.6492,3.6492,3.6492,3.6492,3.6492,3.6492,3.6492,3.6292,3.5968,3.5537,3.5306,3.4874,3.4152,3.366,3.3183,3.2752,3.1844,3.1059,3.0443,3.0443,3.092,3.1767,3.1982,3.2074,3.209,3.2305,3.2659,3.3075,3.3075,3.3783,3.4845,3.5106,3.5614,3.6199,3.6415,3.6492,3.6492,3.6492,3.6492,3.6492,3.6492,3.6785,3.7178,3.7621,3.8132,3.8547,3.8547,3.7914,3.7064,3.6478,3.5351,3.4664,3.5594,3.5885,3.586,3.5633,3.56,3.56,3.56,3.56,3.5538,3.5379,3.5492,3.5554,3.5379,0.0,3.4827,3.4279,3.4199,3.3695,0.0,3.2643,0.0,0.0,0.0,0.0,0.0,0.0,0.0,0.0,3.3075,0.0,3.2398,3.3812,3.4505,3.452,3.5845,3.6492,3.6492,3.66,3.6662,3.6693,3.6662,3.7103,3.7908,3.8193,3.8767,3.9523,3.9944,4.0096,4.0096,4.0096,4.0096,4.0316,3.526,3.526,3.5398,3.5784,3.5891,3.603,3.643,3.6492,3.6492,3.6492,3.6492,3.6492,3.6492,3.6492,3.6492,3.6492,3.6492,3.6492,3.6492,3.6492,3.6307,3.5876,3.5891,3.5568,3.489,3.4414,3.406,3.3798,3.269,3.2013,3.1794,3.1794,3.1982,3.2398,3.2398,3.2536,3.2782,3.2782,3.3167,3.3798,3.3798,3.4475,3.5506,3.5506,3.5937,3.6492,3.6492,3.6492,3.6492,3.6492,3.6492,3.6492,3.6492,3.6922,3.746,3.7854,3.8379,3.8865,3.8865,3.8275,3.7519,3.6927,3.6003,3.5451,3.6334,3.6879,3.6975,3.6214,3.6062,3.596,3.565,3.5424,3.5379,3.5577,3.5247,3.5068,3.527,3.5131,3.4793,0.0,0.0,0.0,0.0,3.3198,3.3108,0.0,0.0,0.0,0.0,0.0,3.3013,3.3013,3.3013,3.2936,3.2782,3.3935,3.4628,3.489,3.5968,3.6492,3.6492,3.6585,3.6693,3.68,3.6662,3.7178,3.8067,3.8238,3.8794,3.9592,3.9944,4.0096,4.0096,4.0096,4.0096,4.0316,3.6492,3.6492,3.6492,3.6492,3.6492,3.6492,3.6492,3.6492,3.6492,3.6492,3.6492,3.6492,3.6492,3.6492,3.6492,3.6492,3.6492,3.6492,3.6492,3.6492,3.6492,3.6492,3.6492,3.6199,3.5568,3.5537,3.5183,3.4505,3.3798,3.3152,3.2536,3.2536,3.2536,3.2536,3.2536,3.289,3.3475,3.3475,3.3891,3.4582,3.4582,3.4982,3.5553,3.5553,3.5953,3.6492,3.6492,3.6492,3.6492,3.6492,3.6492,3.6492,3.6492,3.6892,3.7358,3.7387,3.7825,3.8278,3.8266,3.8238,3.8096,3.749,3.6927,3.6646,3.7079,3.7593,3.777,3.7032,3.6846,3.6552,3.5802,3.5211,3.4975,3.5447,3.4673,3.4185,3.4673,3.4309,3.3818,3.3313,0.0,0.0,3.252,3.2453,3.2437,0.0,0.0,0.0,0.0,0.0,3.2413,3.2459,3.2413,3.2721,3.3398,3.4135,3.4874,3.5598,3.6184,3.6492,3.6492,3.6523,3.6677,3.6969,3.6708,3.7417,3.8777,3.8463,3.9038,4.0096,4.0096,4.0096,4.0096,4.0096,4.0113,4.0316,3.6492,3.6492,3.6492,3.6492,3.6492,3.6492,3.6492,3.6492,3.6492,3.6492,3.6492,3.6492,3.6492,3.6492,3.6492,3.6492,3.6492,3.6492,3.6492,3.6492,3.6492,3.6492,3.6492,3.6415,3.6261,3.5753,3.5183,3.4505,3.4335,3.4166,3.4012,3.4012,3.4012,3.4012,3.4012,3.4104,3.4243,3.4243,3.4643,3.5275,3.5275,3.5645,3.6245,3.6245,3.6353,3.6492,3.6492,3.6492,3.6492,3.6492,3.6492,3.6492,3.6492,3.6616,3.68,3.7268,3.7825,3.821,3.7738,3.7608,3.746,3.6861,3.7304,3.7857,3.7857,3.8313,3.8531,3.7787,3.7178,3.6745,3.6535,3.5562,3.4857,3.4975,3.4431,3.4045,3.4185,3.4086,3.3944,3.3818,3.3818,3.3588,3.3066,3.3013,3.2841,0.0,0.0,3.2459,3.2628,3.249,3.2628,3.3152,3.2659,3.2721,3.3398,3.4135,3.5106,3.6261,3.6415,3.6492,3.6492,3.66,3.677,3.6999,3.7222,3.7911,3.8805,3.8936,3.9444,4.0096,4.0096,4.0096,4.0096,4.0096,4.0163,4.0459,3.6492,3.6492,3.6492,3.6492,3.6492,3.6492,3.6492,3.6492,3.6492,3.6492,3.6492,3.6492,3.6492,3.6492,3.6492,3.6492,3.6492,3.6492,3.6492,3.6492,3.6492,3.6492,3.6492,3.6492,3.6492,3.6122,3.5645,3.4967,3.4967,3.4813,3.4505,3.4505,3.4505,3.4505,3.4505,3.4674,3.4967,3.4967,3.5322,3.5953,3.5953,3.6168,3.6492,3.6492,3.6492,3.6492,3.6492,3.6492,3.6492,3.6492,3.6492,3.6492,3.6492,3.6693,3.6922,3.6983,3.7431,3.7825,3.749,3.7417,3.7387,3.7342,3.7809,3.8432,3.8902,3.9261,3.9276,3.8548,3.8075,3.7608,3.6931,3.5797,3.4947,3.4835,3.4144,3.3716,3.396,3.4011,3.4011,3.4011,3.3767,3.3537,3.3251,3.2986,3.2722,3.2425,3.2398,0.0,3.2398,3.2398,3.2567,3.2936,3.289,3.3183,3.3891,3.4921,3.5799,3.6492,3.6492,3.6492,3.6492,3.6631,3.68,3.6999,3.7118,3.7796,3.8805,3.8783,3.9295,4.0096,4.0096,4.0096,4.0113,4.0163,4.0188,4.0434,3.6492,3.6492,3.6492,3.6492,3.6492,3.6492,3.6492,3.6492,3.6492,3.6492,3.6492,3.6492,3.6492,3.6492,3.6492,3.6492,3.6492,3.6492,3.6492,3.6492,3.6492,3.6492,3.6492,3.6492,3.6492,3.6492,3.6215,3.566,3.566,3.5367,3.4813,3.4813,3.4813,3.4813,3.4813,3.5121,3.566,3.566,3.5968,3.6492,3.6492,3.6492,3.6492,3.6492,3.6492,3.6492,3.6492,3.6492,3.6492,3.6492,3.6492,3.6492,3.6492,3.6831,3.7148,3.6662,3.6861,3.7268,3.7268,3.7328,3.7549,3.8153,3.8379,3.8739,3.985,4.0096,3.9926,3.9317,3.9073,3.8616,3.7371,3.6216,3.5395,3.5191,3.4221,3.367,3.4122,3.4075,3.4011,3.4011,3.3614,3.3313,3.3313,3.2895,3.2641,3.2641,3.2641,3.2641,3.2641,3.2667,3.2674,3.2674,3.3162,3.3798,3.4643,3.5891,3.6492,3.6492,3.6492,3.6492,3.6492,3.6631,3.68,3.7015,3.6983,3.7666,3.8805,3.8629,3.9189,4.0096,4.0096,4.0096,4.0113,4.0238,4.0238,4.0391,3.6492,3.6492,3.6492,3.6492,3.6492,3.6492,3.6492,3.6492,3.6492,3.6492,3.6492,3.6492,3.6492,3.6492,3.6492,3.6492,3.6492,3.6492,3.6492,3.6492,3.6492,3.6492,3.6492,3.6492,3.6492,3.6492,3.6445,3.6338,3.6338,3.6276,3.6184,3.6184,3.6184,3.6184,3.6184,3.6245,3.6338,3.6338,3.6384,3.6492,3.6492,3.6492,3.6492,3.6492,3.6492,3.6492,3.6492,3.6492,3.6492,3.6492,3.6492,3.6492,3.6492,3.6554,3.6631,3.6523,3.6585,3.6631,3.6631,3.7013,3.7549,3.8153,3.8684,3.9242,3.9927,4.0096,4.0079,3.996,3.9411,3.892,3.8684,3.7644,3.6803,3.6763,3.5698,3.4907,3.501,3.4424,3.4011,3.4011,3.3935,3.3885,3.3885,3.3793,3.3758,3.3758,3.3758,3.3758,3.3758,3.3858,3.3904,3.3904,3.3575,3.4029,3.5337,3.6107,3.6492,3.6492,3.6492,3.6492,3.6492,3.6631,3.68,3.7045,3.787,3.8451,3.8843,3.954,3.9927,4.0096,4.0096,4.0096,4.0113,4.0238,4.0362,4.0641,3.6492,3.6492,3.6492,3.6492,3.6492,3.6492,3.6492,3.6492,3.6492,3.6492,3.6492,3.6492,3.6492,3.6492,3.6492,3.6492,3.6492,3.6492,3.6492,3.6492,3.6492,3.6492,3.6492,3.6492,3.6492,3.6492,3.6492,3.6492,3.6492,3.6492,3.6492,3.6492,3.6492,3.6492,3.6492,3.6492,3.6492,3.6492,3.6492,3.6492,3.6492,3.6492,3.6492,3.6492,3.6492,3.6492,3.6492,3.6492,3.6492,3.6492,3.6492,3.6492,3.6492,3.6492,3.6492,3.6492,3.6492,3.6492,3.6492,3.6952,3.7549,3.8153,3.8739,3.9365,3.9969,4.0096,4.0096,4.0096,3.9556,3.9092,3.9006,3.8018,3.7173,3.7119,3.6273,3.562,3.562,3.52,3.4857,3.4857,3.4601,3.4431,3.4431,3.4185,3.4011,3.4011,3.4011,3.4173,3.4628,3.4362,3.4415,3.4837,3.4654,3.5014,3.6014,3.6338,3.6492,3.6492,3.6492,3.6554,3.66,3.677,3.6908,3.703,3.7565,3.8112,3.8673,3.9082,3.9575,4.0096,4.0096,4.0096,4.0121,4.0337,4.0387,4.0608,3.6492,3.6492,3.6492,3.6492,3.6492,3.6492,3.6492,3.6492,3.6492,3.6492,3.6492,3.6492,3.6492,3.6492,3.6492,3.6492,3.6492,3.6492,3.6492,3.6492,3.6492,3.6492,3.6492,3.6492,3.6492,3.6492,3.6492,3.6492,3.6492,3.6492,3.6492,3.6492,3.6492,3.6492,3.6492,3.6492,3.6492,3.6492,3.6492,3.6492,3.6492,3.6492,3.6492,3.6492,3.6492,3.6492,3.6492,3.6492,3.6492,3.6492,3.6492,3.6492,3.6492,3.6492,3.6492,3.6492,3.6492,3.6492,3.6492,3.7028,3.7709,3.8165,3.8849,3.9523,3.9995,4.0096,4.0096,4.0096,3.9722,3.9382,3.9269,3.8543,3.7926,3.7802,3.7178,3.6695,3.6695,3.637,3.6124,3.6124,3.5767,3.5514,3.5514,3.5152,3.4914,3.4914,3.4914,3.5176,3.5783,3.5362,3.5388,3.6043,3.5706,3.589,3.6708,3.6585,3.6585,3.6723,3.6585,3.6569,3.6723,3.6998,3.718,3.7285,3.7608,3.8153,3.875,3.8876,3.9375,4.0096,4.0096,4.0096,4.0121,4.0395,4.0436,4.0584,3.6492,3.6492,3.6492,3.6492,3.6492,3.6492,3.6492,3.6492,3.6492,3.6492,3.6492,3.6492,3.6492,3.6492,3.6492,3.6492,3.6492,3.6492,3.6492,3.6492,3.6492,3.6492,3.6492,3.6492,3.6492,3.6492,3.6492,3.6492,3.6492,3.6492,3.6492,3.6492,3.6492,3.6492,3.6492,3.6492,3.6492,3.6492,3.6492,3.6492,3.6492,3.6492,3.6492,3.6492,3.6492,3.6492,3.6492,3.6492,3.6492,3.6492,3.6492,3.6492,3.6492,3.6492,3.6492,3.6492,3.6492,3.6492,3.6492,3.7342,3.8222,3.8294,3.9172,4.0062,4.007,4.0096,4.0096,4.0096,4.0045,4.0028,4.0028,3.9935,3.9893,3.9868,3.9243,3.877,3.877,3.8169,3.7736,3.7736,3.7689,3.7665,3.7665,3.7641,3.76,3.76,3.76,3.7634,3.7684,3.7777,3.7892,3.8072,3.6381,3.6086,3.7312,3.6785,3.6785,3.7328,3.6785,3.6569,3.6723,3.7296,3.7738,3.8071,3.9011,3.9463,3.9542,3.9995,4.0138,4.0096,4.0096,4.0096,4.0121,4.0395,4.0493,4.069,3.6492,3.6492,3.6492,3.6492,3.6492,3.6492,3.6492,3.6492,3.6492,3.6492,3.6492,3.6492,3.6492,3.6492,3.6492,3.6492,3.6492,3.6492,3.6492,3.6492,3.6492,3.6492,3.6492,3.6492,3.6492,3.6492,3.6492,3.6492,3.6492,3.6492,3.6492,3.6492,3.6492,3.6492,3.6492,3.6492,3.6492,3.6492,3.6492,3.6492,3.6492,3.6492,3.6492,3.6492,3.6492,3.6492,3.6492,3.6492,3.6492,3.6492,3.6492,3.6492,3.6492,3.6492,3.6492,3.6492,3.6492,3.6492,3.6492,3.7118,3.7738,3.7738,3.8379,3.8984,3.8984,3.8984,3.8984,3.8984,3.8984,3.9092,3.947,3.9523,3.967,4.0045,3.9486,3.8988,3.8988,3.8362,3.7905,3.7905,3.7905,3.7905,3.7905,3.7905,3.7905,3.7905,3.7905,3.8108,3.8565,3.8696,3.8623,3.8306,3.761,3.7467,3.7953,3.7342,3.7342,3.7953,3.7342,3.7371,3.7953,3.8165,3.839,3.8613,3.9038,3.9322,3.9489,3.967,3.9876,4.0096,4.0096,4.0163,4.0238,4.0436,4.0558,4.083,3.6492,3.6492,3.6492,3.6492,3.6492,3.6492,3.6492,3.6492,3.6492,3.6492,3.6492,3.6492,3.6492,3.6492,3.6492,3.6492,3.6492,3.6492,3.6492,3.6492,3.6492,3.6492,3.6492,3.6492,3.6492,3.6492,3.6492,3.6492,3.6492,3.6492,3.6492,3.6492,3.6492,3.6492,3.6492,3.6492,3.6492,3.6492,3.6492,3.6492,3.6492,3.6492,3.6492,3.6492,3.6492,3.6492,3.6492,3.6492,3.6492,3.6492,3.6492,3.6492,3.6492,3.6492,3.6492,3.6492,3.6492,3.6492,3.6492,3.68,3.7148,3.7358,3.7838,3.8306,3.8306,3.8306,3.8334,3.8546,3.8574,3.8767,3.9365,3.947,3.9618,4.002,3.969,3.9368,3.9368,3.8903,3.8582,3.8582,3.8582,3.8582,3.8582,3.8582,3.8582,3.8582,3.8582,3.8802,3.9334,3.9428,3.9295,3.8876,3.8876,3.8876,3.8876,3.8067,3.7998,3.8574,3.801,3.8067,3.8712,3.8887,3.9076,3.9229,3.9411,3.9584,3.974,3.9696,3.9867,4.0096,4.0096,4.0188,4.033,4.0461,4.0583,4.0878,3.6492,3.6492,3.6492,3.6492,3.6492,3.6492,3.6492,3.6492,3.6492,3.6492,3.6492,3.6492,3.6492,3.6492,3.6492,3.6492,3.6492,3.6492,3.6492,3.6492,3.6492,3.6492,3.6492,3.6492,3.6492,3.6492,3.6492,3.6492,3.6492,3.6492,3.6492,3.6492,3.6492,3.6492,3.6492,3.6492,3.6492,3.6492,3.6492,3.6492,3.6492,3.6492,3.6492,3.6492,3.6492,3.6492,3.6492,3.6492,3.6492,3.6492,3.6492,3.6492,3.6492,3.6492,3.6492,3.6492,3.6492,3.6492,3.6492,3.6492,3.6631,3.7238,3.7854,3.8294,3.8294,3.8294,3.8463,3.9055,3.9179,3.9365,3.9969,4.0096,4.0096,4.0096,4.0096,4.0096,4.0096,4.0096,4.0096,4.0096,4.0096,4.0096,4.0096,4.0096,4.0096,4.0096,4.0096,4.0096,4.0096,4.0096,4.0096,4.0096,4.0096,4.0096,4.0096,3.8903,3.8601,3.9206,3.8739,3.8585,3.8723,3.9332,3.9749,4.0028,4.0353,4.051,4.0485,4.0337,4.0213,4.0096,4.0096,4.0188,4.033,4.0461,4.0583,4.0878,3.6492,3.6492,3.6492,3.6492,3.6492,3.6492,3.6492,3.6492,3.6492,3.6492,3.6492,3.6492,3.6492,3.6492,3.6492,3.6492,3.6492,3.6492,3.6492,3.6492,3.6492,3.6492,3.6492,3.6492,3.6492,3.6492,3.6492,3.6492,3.6492,3.6492,3.6492,3.6492,3.6492,3.6492,3.6492,3.6492,3.6492,3.6492,3.6492,3.6492,3.6492,3.6492,3.6492,3.6492,3.6492,3.6492,3.6492,3.6492,3.6492,3.6492,3.6492,3.6492,3.6492,3.6492,3.6492,3.6492,3.6492,3.6492,3.6492,3.6492,3.6554,3.6723,3.6922,3.7058,3.7058,3.7058,3.7088,3.7252,3.7982,3.8629,3.8794,3.9523,4.0096,4.0096,4.0096,4.0096,4.0096,4.0096,4.0096,4.0096,4.0096,4.0096,4.0096,4.0096,4.0096,4.0096,4.0096,4.0096,4.0096,4.0096,4.0096,4.0096,4.0096,4.0096,4.0096,3.9322,3.9216,3.9841,3.9375,3.9411,3.9986,4.0254,4.0468,4.0638,4.0631,4.0583,4.0434,3.9793,3.9755,4.0045,3.9537,3.978,4.0436,4.0485,4.0655,4.1023,3.6492,3.6492,3.6492,3.6492,3.6492,3.6492,3.6492,3.6492,3.6492,3.6492,3.6492,3.6492,3.6492,3.6492,3.6492,3.6492,3.6492,3.6492,3.6492,3.6492,3.6492,3.6492,3.6492,3.6492,3.6492,3.6492,3.6492,3.6492,3.6492,3.6492,3.6492,3.6492,3.6492,3.6492,3.6492,3.6492,3.6492,3.6492,3.6492,3.6492,3.6492,3.6492,3.6492,3.6492,3.6492,3.6492,3.6492,3.6492,3.6492,3.6492,3.6492,3.6492,3.6492,3.6492,3.6492,3.6492,3.6492,3.6492,3.6492,3.6492,3.6492,3.6492,3.6492,3.6492,3.6492,3.6492,3.6631,3.7103,3.778,3.8446,3.893,3.9601,4.0096,4.0096,4.0096,4.0096,4.0096,4.0096,4.0096,4.0096,4.0096,4.0096,4.0096,4.0096,4.0096,4.0096,4.0096,4.0096,4.0096,4.0096,4.0096,4.0096,4.0096,4.0096,4.0096,3.9799,3.9825,4.0188,3.9935,4.0104,4.0583,4.0721,4.0817,4.0894,4.0769,4.0453,4.0007,3.9508,3.9431,3.9622,3.928,3.9715,4.051,4.0558,4.0704,4.1095,3.6492,3.6492,3.6492,3.6492,3.6492,3.6492,3.6492,3.6492,3.6492,3.6492,3.6492,3.6492,3.6492,3.6492,3.6492,3.6492,3.6492,3.6492,3.6492,3.6492,3.6492,3.6492,3.6492,3.6492,3.6492,3.6492,3.6492,3.6492,3.6492,3.6492,3.6492,3.6492,3.6492,3.6492,3.6492,3.6492,3.6492,3.6492,3.6492,3.6492,3.6492,3.6492,3.6492,3.6492,3.6492,3.6492,3.6492,3.6492,3.6492,3.6492,3.6492,3.6492,3.6492,3.6492,3.6492,3.6492,3.6492,3.6492,3.6492,3.6492,3.6492,3.6492,3.6492,3.6492,3.6492,3.6492,3.68,3.7924,3.8222,3.8657,3.9747,3.9995,4.0045,4.0096,4.0045,4.0045,4.0096,4.0096,4.0096,4.0096,4.0096,4.0096,4.0096,4.0096,4.0096,4.0096,4.0096,4.0096,4.0096,4.0096,4.0096,4.0096,4.0096,4.0113,4.0138,4.0238,4.0305,4.0305,4.0436,4.0583,4.0697,4.084,4.0912,4.0894,4.0683,4.0151,3.9399,3.9262,3.9136,3.9037,3.9211,3.9792,4.051,4.0648,4.0793,4.1095,3.6492,3.6492,3.6492,3.6492,3.6492,3.6492,3.6492,3.6492,3.6492,3.6492,3.6492,3.6492,3.6492,3.6492,3.6492,3.6492,3.6492,3.6492,3.6492,3.6492,3.6492,3.6492,3.6492,3.6492,3.6492,3.6492,3.6492,3.6492,3.6492,3.6492,3.6492,3.6492,3.6492,3.6492,3.6492,3.6492,3.6492,3.6492,3.6492,3.6492,3.6492,3.6492,3.6492,3.6492,3.6492,3.6492,3.6492,3.6492,3.6492,3.6492,3.6492,3.6492,3.6492,3.6492,3.6492,3.6492,3.6492,3.6492,3.6492,3.6492,3.6492,3.6492,3.6492,3.6492,3.6492,3.6492,3.6569,3.6831,3.7634,3.8362,3.864,3.9082,3.9566,4.002,3.9696,3.9549,4.002,4.0096,4.0096,4.0096,4.0096,4.0096,4.0096,4.0096,4.0096,4.0096,4.0096,4.0096,4.0096,4.0096,4.0096,4.0096,4.0096,4.0163,4.0255,4.0305,4.0305,4.0288,4.0551,4.0673,4.0697,4.084,4.0912,4.0877,4.0192,3.9754,3.9397,3.8237,3.8316,3.9125,3.8638,3.9289,4.051,4.0648,4.0793,4.1071,3.6492,3.6492,3.6492,3.6492,3.6492,3.6492,3.6492,3.6492,3.6492,3.6492,3.6492,3.6492,3.6492,3.6492,3.6492,3.6492,3.6492,3.6492,3.6492,3.6492,3.6492,3.6492,3.6492,3.6492,3.6492,3.6492,3.6492,3.6492,3.6492,3.6492,3.6492,3.6492,3.6492,3.6492,3.6492,3.6492,3.6492,3.6492,3.6492,3.6492,3.6492,3.6492,3.6492,3.6492,3.6492,3.6492,3.6492,3.6492,3.6492,3.6492,3.6492,3.6492,3.6492,3.6492,3.6492,3.6492,3.6492,3.6492,3.6492,3.6492,3.6492,3.6492,3.6492,3.6492,3.6492,3.6492,3.6569,3.6861,3.7431,3.7953,3.8266,3.8794,3.9312,3.9618,3.9418,3.9418,4.002,3.985,3.9773,4.007,4.0096,4.0096,4.0096,4.0096,4.0096,4.0096,4.0096,4.0096,4.0096,4.0096,4.0138,4.0188,4.0188,4.0263,4.0387,4.0478,4.0502,4.0502,4.0624,4.0721,4.0793,4.0864,4.0912,4.086,4.0043,3.9422,3.8894,3.7828,3.7922,3.87,3.8477,3.9294,4.0607,4.0745,4.1306,4.2053,3.6492,3.6492,3.6492,3.6492,3.6492,3.6492,3.6492,3.6492,3.6492,3.6492,3.6492,3.6492,3.6492,3.6492,3.6492,3.6492,3.6492,3.6492,3.6492,3.6492,3.6492,3.6492,3.6492,3.6492,3.6492,3.6492,3.6492,3.6492,3.6492,3.6492,3.6492,3.6492,3.6492,3.6492,3.6492,3.6492,3.6492,3.6492,3.6492,3.6492,3.6492,3.6492,3.6492,3.6492,3.6492,3.6492,3.6492,3.6492,3.6492,3.6492,3.6492,3.6492,3.6492,3.6492,3.6492,3.6492,3.6492,3.6492,3.6492,3.6492,3.6492,3.6492,3.6492,3.6492,3.6492,3.6492,3.6631,3.7148,3.7328,3.7549,3.8067,3.8562,3.892,3.9028,3.9055,3.9216,3.9705,3.9523,3.9497,3.9918,4.0045,4.0096,4.0096,4.0096,4.0096,4.0096,4.0096,4.0096,4.0096,4.0138,4.0188,4.0305,4.033,4.0387,4.0534,4.0631,4.0697,4.0721,4.0721,4.0793,4.0912,4.0912,4.0825,4.0653,3.9853,3.9032,3.8207,3.7555,3.7652,3.8213,3.8465,3.9428,4.0697,4.084,4.1878,4.3164,3.6492,3.6492,3.6492,3.6492,3.6492,3.6492,3.6492,3.6492,3.6492,3.6492,3.6492,3.6492,3.6492,3.6492,3.6492,3.6492,3.6492,3.6492,3.6492,3.6492,3.6492,3.6492,3.6492,3.6492,3.6492,3.6492,3.6492,3.6492,3.6492,3.6492,3.6492,3.6492,3.6492,3.6492,3.6492,3.6492,3.6492,3.6492,3.6492,3.6492,3.6492,3.6492,3.6492,3.6492,3.6492,3.6492,3.6492,3.6492,3.6492,3.6492,3.6492,3.6492,3.6492,3.6492,3.6492,3.6492,3.6492,3.6492,3.6492,3.6492,3.6492,3.6492,3.6492,3.6492,3.6492,3.6492,3.6523,3.66,3.7043,3.7401,3.7519,3.7578,3.7796,3.8351,3.8418,3.8446,3.853,3.9375,3.9799,3.9365,3.9773,4.0096,4.0096,4.0096,4.0096,4.0096,4.0096,4.0096,4.0096,4.0213,4.028,4.0305,4.0412,4.0534,4.0673,4.0697,4.0769,4.0871,4.0871,4.0888,4.0912,4.0912,4.0532,3.9819,3.906,3.8318,3.756,3.6784,3.7148,3.8213,3.8368,3.9294,4.0558,4.0799,4.1878,4.3164,3.6492,3.6492,3.6492,3.6492,3.6492,3.6492,3.6492,3.6492,3.6492,3.6492,3.6492,3.6492,3.6492,3.6492,3.6492,3.6492,3.6492,3.6492,3.6492,3.6492,3.6492,3.6492,3.6492,3.6492,3.6492,3.6492,3.6492,3.6492,3.6492,3.6492,3.6492,3.6492,3.6492,3.6492,3.6492,3.6492,3.6492,3.6492,3.6492,3.6492,3.6492,3.6492,3.6492,3.6492,3.6492,3.6492,3.6492,3.6492,3.6492,3.6492,3.6492,3.6492,3.6492,3.6492,3.6492,3.6492,3.6492,3.6492,3.6492,3.6492,3.6492,3.6492,3.6492,3.6492,3.6492,3.6492,3.6492,3.6492,3.6723,3.6892,3.6892,3.7178,3.749,3.7738,3.7796,3.7895,3.825,3.8463,3.8739,3.9152,3.9722,4.0096,4.0096,4.0096,4.0121,4.0213,4.0213,4.0238,4.0337,4.0387,4.0453,4.0527,4.0583,4.0673,4.0817,4.0817,4.084,4.0912,4.0912,4.0912,4.0912,4.0912,4.0463,3.9664,3.8905,3.8185,3.7443,3.6628,3.7133,3.8419,3.8482,3.941,4.0728,4.0864,4.1878,4.3164]}]]